[[{"header":{"parameterUnit":"m.s-1","parameterCategory":1,"la1":31.0,"la2":29.5877,"lo1":-88.7671,"lo2":-86.6584,"dy":0.0162,"dx":0.0185,"nx":115,"ny":88,"refTime":"2023-09-06T00:00:00:Z","depth":0,"parameterNumber":2,"parameterNumberName":"U-component_of_WINDS"},"data":[0.0,0.0,0.0,0.0,0.0,0.0,0.0,0.0,0.0,0.0,0.0,0.0,0.0,0.0,0.0,0.0,0.0,0.0,0.0,0.0,0.0,0.0,0.0,0.0,0.0,0.0,0.0,0.0,0.0,0.0,0.0,0.0,0.0,0.0,0.0,0.0,0.0,0.0,0.0,0.0,0.0,0.0,0.0,0.0,0.0,0.0,0.0,0.0,0.0,0.0,0.0,0.0,0.0,0.0,0.0,0.0,0.0,0.0,0.0,0.0,0.0,0.0,0.0,0.0,0.0,0.0,0.0,0.0,0.0,0.0,0.0,0.0,0.0,0.0,0.0,0.0,0.0,0.0,0.0,0.0,0.0,0.0,0.0,0.0,0.0,0.0,0.0,0.0,0.0,0.0,0.0,0.0,0.0,0.0,0.0,0.0,0.0,0.0,0.0,0.0,0.0,0.0,0.0,0.0,0.0,0.0,0.0,0.0,0.0,0.0,0.0,0.0,0.0,0.0,0.0,0.0,0.0,0.0,0.0,0.0,0.0,0.0,0.0,0.0,0.0,0.0,0.0,0.0,0.0,0.0,0.0,0.0,0.0,0.0,0.0,0.0,0.0,0.0,0.0,0.0,0.0,0.0,0.0,0.0,0.0,0.0,0.0,0.0,0.0,0.0,0.0,0.0,0.0,0.0,0.0,0.0,0.0,0.0,0.0,0.0,0.0,0.0,0.0,0.0,0.0,0.0,0.0,0.0,0.0,0.0,0.0,0.0,0.0,0.0,0.0,0.0,0.0,0.0,0.0,0.0,0.0,0.0,0.0,0.0,0.0,0.0,0.0,0.0,0.0,0.0,0.0,0.0,0.0,0.0,0.0,0.0,0.0,0.0,0.0,0.0,0.0,0.0,0.0,0.0,0.0,0.0,0.0,0.0,0.0,0.0,0.0,0.0,0.0,0.0,0.0,0.0,0.0,0.0,0.0,0.0,0.0,0.0,0.0,0.0,0.0,0.0,0.0,0.0,0.0,0.0,0.0,0.0,0.0,0.0,0.0,0.0,0.0,0.0,0.0,0.0,0.0,0.0,0.0,0.0,0.0,0.0,0.0,0.0,0.0,0.0,0.0,0.0,0.0,0.0,0.0,0.0,0.0,0.0,0.0,0.0,0.0,0.0,0.0,0.0,0.0,0.0,0.0,0.0,0.0,0.0,0.0,0.0,0.0,0.0,0.0,0.0,0.0,0.0,0.0,0.0,0.0,0.0,0.0,0.0,0.0,0.0,0.0,0.0,0.0,0.0,0.0,0.0,0.0,0.0,0.0,0.0,0.0,0.0,0.0,0.0,0.0,0.0,0.0,0.0,0.0,0.0,0.0,0.0,0.0,0.0,0.0,0.0,0.0,0.0,0.0,0.0,0.0,0.0,0.0,0.0,0.0,0.0,0.0,0.0,0.0,0.0,0.0,0.0,0.0,0.0,0.0,0.0,0.0,0.0,0.0,0.0,0.0,0.0,0.0,0.0,0.0,0.0,0.0,0.0,0.0,0.0,0.0,0.0,0.0,0.0,0.0,0.0,0.0,0.0,0.0,0.0,0.0,0.0,0.0,0.0,0.0,0.0,0.0,0.0,0.0,0.0,0.0,0.0,0.0,0.0,0.0,0.0,0.0,0.0,0.0,0.0,0.0,0.0,0.0,0.0,0.0,0.0,0.0,0.0,0.0,0.0,0.0,0.0,0.0,0.0,0.0,0.0,0.0,0.0,0.0,0.0,0.0,0.0,0.0,0.0,0.0,0.0,0.0,0.0,0.0,0.0,0.0,0.0,0.0,0.0,0.0,0.0,0.0,0.0,0.0,0.0,0.0,0.0,0.0,0.0,0.0,0.0,0.0,0.0,0.0,0.0,0.0,0.0,0.0,0.0,0.0,0.0,0.0,0.0,0.0,0.0,0.0,0.0,0.0,0.0,0.0,0.0,0.0,0.0,0.0,0.0,0.0,0.0,0.0,0.0,0.0,0.0,0.0,0.0,0.0,0.0,0.0,0.0,0.0,0.0,0.0,0.0,0.0,0.0,0.0,0.0,0.0,0.0,0.0,0.0,0.0,0.0,0.0,0.0,0.0,0.0,0.0,0.0,0.0,0.0,0.0,0.0,0.0,0.0,0.0,0.0,0.0,0.0,0.0,0.0,0.0,0.0,0.0,0.0,0.0,0.0,0.0,0.0,0.0,0.0,0.0,0.0,0.0,0.0,0.0,0.0,0.0,0.0,0.0,0.0,0.0,0.0,0.0,0.0,0.0,0.0,0.0,0.0,0.0,0.0,0.0,0.0,0.0,0.0,0.0,0.0,0.0,0.0,0.0,0.0,0.0,0.0,0.0,0.0,0.0,0.0,0.0,0.0,0.0,0.0,0.0,0.0,0.0,0.0,0.0,0.0,0.0,0.0,0.0,0.0,0.0,0.0,0.0,0.0,0.0,0.0,0.0,0.0,0.0,0.0,0.0,0.0,0.0,0.0,0.0,0.0,0.0,0.0,0.0,0.0,0.0,0.0,0.0,0.0,0.0,0.0,0.0,0.0,0.0,0.0,0.0,0.0,0.0,0.0,0.0,0.0,0.0,0.0,0.0,0.0,0.0,0.0,0.0,0.0,0.0,0.0,0.0,0.0,0.0,0.0,0.0,0.0,0.0,0.0,0.0,0.0,0.0,0.0,0.0,0.0,0.0,0.0,0.0,0.0,0.0,0.0,0.0,0.0,0.0,0.0,0.0,0.0,0.0,0.0,0.0,0.0,0.0,0.0,0.0,0.0,0.0,0.0,0.0,0.0,0.0,0.0,0.0,0.0,0.0,0.0,0.0,0.0,0.0,0.0,0.0,0.0,0.0,0.0,0.0,0.0,0.0,0.0,0.0,0.0,0.0,0.0,0.0,0.0,0.0,0.0,0.0,0.0,0.0,0.0,0.0,0.0,0.0,0.0,0.0,0.0,0.0,0.0,0.0,0.0,0.0,0.0,0.0,0.0,0.0,0.0,0.0,0.0,0.0,0.0,0.0,0.0,0.0,0.0,0.0,0.0,0.0,0.0,0.0,0.0,0.0,0.0,0.0,0.0,0.0,0.0,0.0,0.0,0.0,0.0,0.0,0.0,0.0,0.0,0.0,0.0,0.0,0.0,0.0,0.0,0.0,0.0,0.0,0.0,0.0,0.0,0.0,0.0,0.0,0.0,0.0,0.0,0.0,0.0,0.0,0.0,0.0,0.0,0.0,0.0,0.0,0.0,0.0,0.0,0.0,0.0,0.0,0.0,0.0,0.0,0.0,0.0,0.0,0.0,0.0,0.0,0.0,0.0,0.0,0.0,0.0,0.0,0.0,0.0,0.0,0.0,0.0,0.0,0.0,0.0,0.0,0.0,0.0,0.0,0.0,0.0,0.0,0.0,0.0,0.0,0.0,0.0,0.0,0.0,0.0,0.0,0.0,0.0,0.0,0.0,0.0,0.0,0.0,0.0,0.0,0.0,0.0,0.0,0.0,0.0,0.0,0.0,0.0,0.0,0.0,0.0,0.0,0.0,0.0,0.0,0.0,0.0,0.0,0.0,0.0,0.0,0.0,0.0,0.0,0.0,0.0,0.0,0.0,0.0,0.0,0.0,0.0,0.0,0.0,0.0,0.0,0.0,0.0,0.0,0.0,0.0,0.0,0.0,0.0,0.0,0.0,0.0,0.0,0.0,0.0,0.0,0.0,0.0,0.0,0.0,0.0,0.0,0.0,0.0,0.0,0.0,0.0,0.0,0.0,0.0,0.0,0.0,0.0,0.0,0.0,0.0,0.0,0.0,0.0,0.0,0.0,0.0,0.0,0.0,0.0,0.0,0.0,0.0,0.0,0.0,0.0,0.0,0.0,0.0,0.0,0.0,0.0,0.0,0.0,0.0,0.0,0.0,0.0,0.0,0.0,0.0,0.0,0.0,0.0,0.0,0.0,0.0,0.0,0.0,0.0,0.0,0.0,0.0,0.0,0.0,0.0,0.0,0.0,0.0,0.0,0.0,0.0,0.0,0.0,0.0,0.0,0.0,0.0,0.0,0.0,0.0,0.0,0.0,0.0,0.0,0.0,0.0,0.0,0.0,0.0,0.0,0.0,0.0,0.0,0.0,0.0,0.0,0.0,0.0,0.0,0.0,0.0,0.0,0.0,0.0,0.0,0.0,0.0,0.0,0.0,0.0,0.0,0.0,0.0,0.0,0.0,0.0,0.0,0.0,0.0,0.0,0.0,0.0,0.0,0.0,0.0,0.0,-1.7399,0.0,0.0,0.0,0.0,0.0,0.0,0.0,0.0,0.0,0.0,0.0,0.0,0.0,0.0,0.0,0.0,0.0,0.0,0.0,0.0,0.0,0.0,0.0,0.0,0.0,0.0,0.0,0.0,0.0,0.0,0.0,0.0,0.0,0.0,0.0,0.0,0.0,0.0,0.0,0.0,0.0,0.0,0.0,0.0,0.0,0.0,0.0,0.0,0.0,0.0,0.0,0.0,0.0,0.0,0.0,0.0,0.0,0.0,0.0,0.0,0.0,0.0,0.0,0.0,0.0,0.0,0.0,0.0,0.0,0.0,0.0,0.0,0.0,0.0,0.0,0.0,0.0,0.0,0.0,0.0,0.0,0.0,0.0,0.0,0.0,0.0,0.0,0.0,0.0,0.0,0.0,0.0,0.0,0.0,0.0,0.0,0.0,0.0,0.0,0.0,0.0,0.0,0.0,0.0,0.0,0.0,0.0,0.0,0.0,0.0,-1.5134,-1.5404,-1.5925,-1.6428,-1.6893,0.0,0.0,0.0,0.0,0.0,0.0,0.0,0.0,0.0,0.0,0.0,0.0,0.0,0.0,0.0,0.0,0.0,0.0,0.0,0.0,0.0,0.0,0.0,0.0,0.0,0.0,0.0,0.0,0.0,0.0,0.0,0.0,0.0,0.0,0.0,0.0,0.0,0.0,0.0,0.0,0.0,0.0,0.0,0.0,0.0,0.0,0.0,0.0,0.0,0.0,0.0,0.0,0.0,0.0,0.0,0.0,0.0,0.0,0.0,0.0,0.0,0.0,0.0,0.0,0.0,0.0,0.0,0.0,0.0,0.0,0.0,0.0,0.0,0.0,0.0,0.0,0.0,0.0,0.0,0.0,0.0,0.0,0.0,0.0,0.0,0.0,0.0,0.0,0.0,0.0,0.0,0.0,0.0,0.0,0.0,0.0,0.0,0.0,0.0,0.0,0.0,0.0,0.0,0.0,0.0,0.0,0.0,0.0,0.0,0.0,0.0,0.0,-1.6893,-1.7457,-1.7799,0.0,0.0,0.0,0.0,0.0,0.0,0.0,0.0,0.0,0.0,0.0,0.0,0.0,0.0,0.0,0.0,0.0,0.0,0.0,0.0,0.0,0.0,0.0,0.0,0.0,0.0,0.0,0.0,0.0,0.0,0.0,0.0,0.0,0.0,0.0,0.0,0.0,0.0,0.0,0.0,0.0,0.0,0.0,0.0,0.0,0.0,0.0,0.0,0.0,0.0,0.0,0.0,0.0,0.0,0.0,0.0,0.0,0.0,0.0,0.0,0.0,0.0,0.0,0.0,0.0,0.0,0.0,0.0,0.0,0.0,0.0,0.0,0.0,0.0,0.0,0.0,0.0,0.0,0.0,0.0,0.0,0.0,0.0,0.0,0.0,0.0,0.0,0.0,0.0,0.0,0.0,0.0,0.0,0.0,0.0,0.0,0.0,0.0,0.0,0.0,0.0,0.0,0.0,0.0,0.0,0.0,0.0,0.0,0.0,0.0,-1.639,-1.8516,-1.9686,0.0,-2.2167,0.0,0.0,0.0,0.0,0.0,0.0,0.0,0.0,0.0,0.0,0.0,0.0,0.0,0.0,0.0,0.0,0.0,0.0,0.0,0.0,0.0,0.0,0.0,0.0,0.0,0.0,0.0,0.0,0.0,0.0,0.0,0.0,0.0,0.0,0.0,0.0,0.0,0.0,0.0,0.0,0.0,0.0,0.0,0.0,0.0,0.0,0.0,0.0,0.0,0.0,0.0,0.0,0.0,0.0,0.0,0.0,0.0,0.0,0.0,0.0,0.0,0.0,0.0,0.0,0.0,0.0,0.0,0.0,0.0,0.0,0.0,0.0,0.0,0.0,0.0,0.0,0.0,0.0,0.0,0.0,0.0,0.0,0.0,0.0,0.0,0.0,0.0,0.0,0.0,0.0,0.0,0.0,0.0,0.0,0.0,0.0,0.0,0.0,0.0,0.0,0.0,0.0,0.0,0.0,0.0,0.0,0.0,0.0,0.0,0.0,-1.7561,-1.9564,-2.0289,-2.0739,0.0,0.0,0.0,0.0,0.0,0.0,0.0,0.0,0.0,0.0,0.0,0.0,0.0,0.0,0.0,0.0,0.0,0.0,0.0,0.0,0.0,0.0,0.0,0.0,0.0,0.0,0.0,0.0,0.0,0.0,0.0,0.0,0.0,0.0,0.0,0.0,0.0,0.0,0.0,0.0,0.0,0.0,0.0,0.0,0.0,0.0,0.0,0.0,0.0,0.0,0.0,0.0,0.0,0.0,0.0,0.0,0.0,0.0,0.0,0.0,0.0,0.0,0.0,0.0,0.0,0.0,0.0,0.0,0.0,0.0,0.0,0.0,0.0,0.0,0.0,0.0,0.0,0.0,0.0,0.0,0.0,0.0,0.0,0.0,0.0,0.0,0.0,0.0,0.0,0.0,0.0,0.0,0.0,0.0,0.0,0.0,0.0,0.0,0.0,0.0,0.0,0.0,0.0,0.0,0.0,0.0,0.0,0.0,0.0,0.0,-1.7279,-1.8728,-2.086,-2.0755,-2.0486,-2.0174,0.0,0.0,0.0,0.0,0.0,0.0,0.0,0.0,0.0,0.0,0.0,0.0,0.0,0.0,0.0,0.0,0.0,0.0,0.0,0.0,0.0,0.0,0.0,0.0,0.0,0.0,0.0,0.0,0.0,0.0,0.0,0.0,0.0,0.0,0.0,0.0,0.0,0.0,0.0,0.0,0.0,0.0,0.0,0.0,0.0,0.0,0.0,0.0,0.0,0.0,0.0,0.0,0.0,0.0,0.0,0.0,0.0,0.0,0.0,0.0,0.0,0.0,0.0,0.0,0.0,0.0,0.0,0.0,0.0,0.0,0.0,0.0,0.0,0.0,0.0,0.0,0.0,0.0,0.0,0.0,0.0,0.0,0.0,0.0,0.0,0.0,0.0,0.0,0.0,0.0,0.0,0.0,0.0,0.0,0.0,0.0,0.0,0.0,0.0,0.0,0.0,0.0,0.0,0.0,0.0,0.0,0.0,0.0,-1.9935,-1.8902,-1.9891,-2.3119,-2.1557,-2.0926,0.0,0.0,0.0,0.0,0.0,0.0,0.0,0.0,0.0,0.0,0.0,0.0,0.0,0.0,0.0,0.0,0.0,0.0,0.0,0.0,0.0,0.0,0.0,0.0,0.0,0.0,0.0,0.0,0.0,0.0,0.0,0.0,0.0,0.0,0.0,0.0,0.0,0.0,0.0,0.0,0.0,0.0,0.0,0.0,0.0,0.0,0.0,0.0,0.0,0.0,0.0,0.0,0.0,0.0,0.0,0.0,0.0,0.0,0.0,0.0,0.0,0.0,0.0,0.0,0.0,0.0,0.0,0.0,0.0,0.0,0.0,0.0,0.0,0.0,0.0,0.0,0.0,0.0,0.0,0.0,0.0,0.0,0.0,0.0,0.0,0.0,0.0,0.0,0.0,0.0,0.0,0.0,0.0,0.0,0.0,0.0,0.0,0.0,0.0,0.0,0.0,0.0,0.0,0.0,0.0,0.0,0.0,0.0,0.0,-1.6876,-1.8415,-2.0563,-2.3161,-2.1476,-2.0836,0.0,0.0,0.0,0.0,0.0,0.0,0.0,0.0,0.0,0.0,0.0,0.0,0.0,0.0,0.0,0.0,0.0,0.0,0.0,0.0,0.0,0.0,0.0,0.0,0.0,0.0,0.0,0.0,0.0,0.0,0.0,0.0,0.0,0.0,0.0,0.0,0.0,0.0,0.0,0.0,0.0,0.0,0.0,0.0,0.0,0.0,0.0,0.0,0.0,0.0,0.0,0.0,0.0,0.0,0.0,0.0,0.0,0.0,0.0,0.0,0.0,0.0,0.0,0.0,0.0,0.0,0.0,0.0,0.0,0.0,0.0,0.0,0.0,0.0,0.0,0.0,0.0,0.0,0.0,0.0,0.0,0.0,0.0,0.0,0.0,0.0,0.0,0.0,0.0,0.0,0.0,0.0,0.0,0.0,0.0,0.0,0.0,0.0,0.0,0.0,0.0,0.0,0.0,0.0,0.0,0.0,0.0,0.0,0.0,-1.7282,0.0,-2.1769,-2.3183,-2.1639,-2.0472,0.0,0.0,0.0,0.0,0.0,0.0,0.0,0.0,0.0,0.0,0.0,0.0,0.0,0.0,0.0,0.0,0.0,0.0,0.0,0.0,0.0,0.0,0.0,0.0,0.0,0.0,0.0,0.0,0.0,0.0,0.0,0.0,0.0,0.0,0.0,0.0,0.0,0.0,0.0,0.0,0.0,0.0,0.0,0.0,0.0,0.0,0.0,0.0,0.0,0.0,0.0,0.0,0.0,0.0,0.0,0.0,0.0,0.0,0.0,0.0,0.0,0.0,0.0,0.0,0.0,0.0,0.0,0.0,0.0,0.0,0.0,0.0,0.0,0.0,0.0,0.0,0.0,0.0,0.0,0.0,0.0,0.0,0.0,0.0,0.0,0.0,0.0,0.0,0.0,0.0,0.0,0.0,0.0,0.0,0.0,0.0,0.0,0.0,0.0,0.0,0.0,0.0,0.0,0.0,0.0,0.0,0.0,0.0,-1.7575,-2.2005,-2.2908,-2.3299,-2.3392,-2.2031,-1.9836,0.0,0.0,0.0,0.0,0.0,0.0,0.0,0.0,0.0,0.0,0.0,0.0,0.0,0.0,0.0,0.0,0.0,0.0,0.0,0.0,0.0,0.0,0.0,0.0,0.0,0.0,0.0,0.0,0.0,0.0,0.0,0.0,0.0,0.0,0.0,0.0,0.0,0.0,0.0,0.0,0.0,0.0,0.0,0.0,0.0,0.0,0.0,0.0,0.0,0.0,0.0,0.0,0.0,0.0,0.0,0.0,0.0,0.0,0.0,0.0,0.0,0.0,0.0,0.0,0.0,0.0,0.0,0.0,0.0,0.0,0.0,0.0,0.0,0.0,0.0,0.0,0.0,0.0,0.0,0.0,0.0,0.0,0.0,0.0,0.0,0.0,0.0,0.0,0.0,0.0,0.0,0.0,0.0,0.0,0.0,0.0,0.0,0.0,0.0,0.0,0.0,0.0,0.0,0.0,0.0,0.0,0.0,0.0,0.0,-1.8928,-2.0748,-2.2676,-2.446,-2.1119,-1.9828,0.0,0.0,0.0,0.0,0.0,0.0,0.0,0.0,0.0,0.0,0.0,0.0,0.0,0.0,0.0,0.0,0.0,0.0,0.0,0.0,0.0,0.0,0.0,0.0,0.0,0.0,0.0,0.0,0.0,0.0,0.0,0.0,0.0,0.0,0.0,0.0,0.0,0.0,0.0,0.0,0.0,0.0,0.0,0.0,0.0,0.0,0.0,0.0,0.0,0.0,0.0,0.0,0.0,0.0,0.0,0.0,0.0,0.0,0.0,0.0,0.0,0.0,0.0,0.0,0.0,0.0,0.0,0.0,0.0,0.0,0.0,0.0,0.0,0.0,0.0,0.0,0.0,0.0,0.0,0.0,0.0,0.0,0.0,0.0,0.0,0.0,0.0,0.0,0.0,0.0,0.0,0.0,0.0,0.0,0.0,0.0,0.0,0.0,0.0,0.0,0.0,0.0,0.0,0.0,0.0,0.0,0.0,0.0,0.0,-2.0045,-2.2578,-2.4563,-2.5667,-2.1943,-2.0352,-2.1243,0.0,0.0,0.0,0.0,0.0,0.0,0.0,0.0,0.0,0.0,0.0,0.0,0.0,0.0,0.0,0.0,0.0,0.0,0.0,0.0,0.0,0.0,0.0,0.0,0.0,0.0,0.0,0.0,0.0,0.0,0.0,0.0,0.0,0.0,0.0,0.0,0.0,0.0,0.0,0.0,0.0,0.0,0.0,0.0,0.0,0.0,0.0,0.0,0.0,0.0,0.0,0.0,0.0,0.0,0.0,0.0,0.0,0.0,0.0,0.0,0.0,0.0,0.0,0.0,0.0,0.0,0.0,0.0,0.0,0.0,0.0,0.0,0.0,0.0,0.0,0.0,0.0,0.0,0.0,0.0,0.0,0.0,0.0,0.0,0.0,0.0,0.0,0.0,0.0,0.0,0.0,0.0,0.0,0.0,0.0,0.0,0.0,0.0,0.0,0.0,0.0,0.0,0.0,0.0,0.0,0.0,0.0,0.0,-2.4142,-2.7638,-2.8566,-2.6688,-2.4086,-2.1292,0.0,0.0,0.0,0.0,0.0,0.0,0.0,0.0,0.0,0.0,0.0,0.0,0.0,0.0,0.0,0.0,0.0,0.0,0.0,0.0,0.0,0.0,0.0,0.0,0.0,0.0,0.0,0.0,0.0,0.0,0.0,0.0,0.0,0.0,0.0,0.0,0.0,0.0,0.0,0.0,0.0,0.0,0.0,0.0,0.0,0.0,0.0,0.0,0.0,0.0,0.0,0.0,0.0,0.0,0.0,0.0,0.0,0.0,0.0,0.0,0.0,0.0,0.0,0.0,0.0,0.0,0.0,0.0,0.0,0.0,0.0,0.0,0.0,0.0,0.0,0.0,0.0,0.0,0.0,0.0,0.0,0.0,0.0,0.0,0.0,0.0,0.0,0.0,0.0,0.0,0.0,0.0,0.0,0.0,0.0,0.0,0.0,0.0,0.0,0.0,0.0,0.0,0.0,0.0,0.0,0.0,0.0,0.0,0.0,-2.4981,-2.9555,-3.125,-2.9381,-2.459,-2.1874,0.0,0.0,0.0,0.0,0.0,0.0,0.0,0.0,0.0,0.0,0.0,0.0,0.0,0.0,0.0,0.0,0.0,0.0,0.0,0.0,0.0,0.0,0.0,0.0,0.0,0.0,0.0,0.0,0.0,0.0,0.0,0.0,0.0,0.0,0.0,0.0,0.0,0.0,0.0,0.0,0.0,0.0,0.0,0.0,0.0,0.0,0.0,0.0,0.0,0.0,0.0,0.0,0.0,0.0,0.0,0.0,0.0,0.0,0.0,0.0,0.0,0.0,0.0,0.0,0.0,0.0,0.0,0.0,0.0,0.0,0.0,0.0,0.0,0.0,0.0,0.0,0.0,0.0,0.0,0.0,0.0,0.0,0.0,0.0,0.0,0.0,0.0,0.0,0.0,0.0,0.0,0.0,0.0,0.0,0.0,0.0,0.0,0.0,0.0,0.0,0.0,0.0,0.0,0.0,0.0,0.0,0.0,0.0,-2.6035,-2.6986,-3.0715,-3.2384,-3.1629,-2.6588,-2.3438,0.0,0.0,0.0,0.0,0.0,0.0,0.0,0.0,0.0,0.0,0.0,0.0,0.0,0.0,0.0,0.0,0.0,0.0,0.0,0.0,0.0,0.0,0.0,0.0,0.0,0.0,0.0,0.0,0.0,0.0,0.0,0.0,0.0,0.0,0.0,0.0,0.0,0.0,0.0,0.0,0.0,0.0,0.0,0.0,0.0,0.0,0.0,0.0,0.0,0.0,0.0,0.0,0.0,0.0,0.0,0.0,0.0,0.0,0.0,0.0,0.0,0.0,0.0,0.0,0.0,0.0,0.0,0.0,0.0,0.0,0.0,0.0,0.0,0.0,0.0,0.0,0.0,0.0,0.0,0.0,0.0,0.0,0.0,0.0,0.0,0.0,0.0,0.0,0.0,0.0,0.0,0.0,0.0,0.0,0.0,0.0,0.0,0.0,0.0,0.0,0.0,0.0,0.0,0.0,0.0,0.0,0.0,0.0,-2.666,-2.9518,-3.1391,-3.2617,-3.3038,-2.8981,-2.5325,0.0,0.0,0.0,0.0,0.0,0.0,0.0,0.0,0.0,0.0,0.0,0.0,0.0,0.0,0.0,0.0,0.0,0.0,0.0,0.0,0.0,0.0,0.0,0.0,0.0,0.0,0.0,0.0,0.0,0.0,0.0,0.0,0.0,0.0,0.0,0.0,0.0,0.0,0.0,0.0,0.0,0.0,0.0,0.0,0.0,0.0,0.0,0.0,0.0,0.0,0.0,0.0,0.0,0.0,0.0,0.0,0.0,0.0,0.0,0.0,0.0,0.0,0.0,0.0,0.0,0.0,0.0,0.0,0.0,0.0,0.0,0.0,0.0,0.0,0.0,0.0,0.0,0.0,0.0,0.0,0.0,0.0,0.0,0.0,0.0,0.0,0.0,0.0,0.0,0.0,0.0,0.0,0.0,0.0,0.0,0.0,0.0,0.0,0.0,0.0,0.0,0.0,0.0,0.0,0.0,0.0,0.0,0.0,-2.7659,-2.8826,-3.1915,-3.3411,-3.3092,-2.8561,-2.5101,0.0,0.0,0.0,0.0,0.0,0.0,0.0,0.0,0.0,0.0,0.0,0.0,0.0,0.0,0.0,0.0,0.0,0.0,0.0,0.0,0.0,0.0,0.0,0.0,0.0,0.0,0.0,0.0,0.0,0.0,0.0,0.0,0.0,0.0,0.0,0.0,0.0,0.0,0.0,0.0,0.0,0.0,0.0,0.0,0.0,0.0,0.0,0.0,-2.237,0.0,0.0,0.0,0.0,0.0,0.0,0.0,0.0,0.0,0.0,0.0,0.0,0.0,0.0,0.0,0.0,0.0,0.0,0.0,0.0,0.0,0.0,0.0,0.0,0.0,0.0,0.0,0.0,0.0,0.0,0.0,0.0,0.0,0.0,0.0,0.0,0.0,0.0,0.0,0.0,0.0,0.0,0.0,0.0,0.0,0.0,0.0,0.0,0.0,0.0,0.0,0.0,0.0,0.0,0.0,0.0,0.0,0.0,0.0,-2.8261,-3.029,-3.2634,-3.3758,-3.3363,-2.9849,-2.6664,0.0,0.0,0.0,0.0,0.0,0.0,0.0,0.0,0.0,0.0,0.0,0.0,0.0,0.0,0.0,0.0,0.0,0.0,0.0,0.0,0.0,0.0,0.0,0.0,0.0,0.0,0.0,0.0,0.0,0.0,0.0,0.0,0.0,0.0,0.0,0.0,0.0,0.0,0.0,0.0,0.0,0.0,0.0,0.0,0.0,0.0,0.0,0.0,0.0,0.0,0.0,0.0,0.0,0.0,0.0,0.0,0.0,0.0,0.0,0.0,0.0,0.0,0.0,0.0,0.0,0.0,0.0,0.0,0.0,0.0,0.0,0.0,0.0,0.0,0.0,0.0,0.0,0.0,0.0,0.0,0.0,0.0,0.0,0.0,0.0,0.0,0.0,0.0,0.0,0.0,0.0,0.0,0.0,0.0,0.0,0.0,0.0,0.0,0.0,0.0,0.0,0.0,0.0,0.0,0.0,0.0,0.0,-2.5803,-2.8655,-3.2046,-3.3298,-3.3829,-3.3707,-3.124,-2.8327,-2.5069,0.0,0.0,0.0,0.0,0.0,0.0,0.0,0.0,0.0,0.0,0.0,0.0,0.0,0.0,0.0,0.0,0.0,0.0,0.0,0.0,0.0,0.0,0.0,0.0,0.0,0.0,0.0,0.0,0.0,0.0,0.0,0.0,0.0,0.0,0.0,0.0,0.0,0.0,-2.1145,-2.1053,0.0,0.0,0.0,0.0,0.0,0.0,0.0,0.0,-2.2535,0.0,0.0,0.0,0.0,0.0,0.0,0.0,0.0,0.0,0.0,0.0,0.0,0.0,0.0,0.0,0.0,0.0,0.0,0.0,0.0,0.0,0.0,0.0,0.0,0.0,0.0,0.0,0.0,0.0,0.0,0.0,0.0,0.0,0.0,0.0,0.0,0.0,0.0,0.0,0.0,0.0,0.0,0.0,0.0,0.0,0.0,0.0,0.0,0.0,0.0,0.0,0.0,0.0,0.0,0.0,0.0,-2.5398,-2.685,-2.9062,-3.2101,-3.3184,-3.3486,-3.2947,-3.0366,-2.7601,-2.4782,0.0,0.0,0.0,0.0,0.0,0.0,0.0,0.0,0.0,0.0,0.0,0.0,0.0,0.0,0.0,0.0,0.0,0.0,0.0,0.0,0.0,0.0,0.0,0.0,0.0,0.0,0.0,0.0,0.0,0.0,0.0,0.0,0.0,0.0,0.0,0.0,0.0,0.0,0.0,-2.2284,-2.2234,0.0,0.0,0.0,0.0,0.0,0.0,0.0,0.0,-2.384,0.0,0.0,0.0,0.0,0.0,0.0,0.0,0.0,0.0,0.0,0.0,0.0,0.0,0.0,0.0,0.0,0.0,0.0,0.0,0.0,0.0,0.0,0.0,0.0,0.0,0.0,0.0,0.0,0.0,0.0,0.0,0.0,0.0,0.0,0.0,0.0,0.0,0.0,0.0,0.0,0.0,0.0,0.0,0.0,0.0,0.0,0.0,0.0,0.0,0.0,0.0,0.0,0.0,0.0,0.0,-2.5332,-2.723,-2.9618,-3.2572,-3.3347,-3.3259,-3.2307,-2.9709,-2.6961,0.0,0.0,0.0,0.0,0.0,0.0,0.0,0.0,0.0,0.0,0.0,0.0,0.0,0.0,0.0,0.0,0.0,0.0,0.0,0.0,0.0,0.0,0.0,0.0,0.0,0.0,0.0,0.0,0.0,0.0,0.0,0.0,0.0,0.0,0.0,0.0,0.0,0.0,0.0,0.0,-2.3631,-2.4256,-2.5191,0.0,0.0,0.0,0.0,0.0,0.0,-2.4563,-2.4542,0.0,0.0,0.0,0.0,0.0,0.0,0.0,0.0,0.0,0.0,0.0,0.0,0.0,0.0,0.0,0.0,0.0,0.0,0.0,0.0,0.0,0.0,0.0,0.0,0.0,0.0,0.0,0.0,0.0,0.0,0.0,0.0,0.0,0.0,0.0,0.0,0.0,0.0,0.0,0.0,0.0,0.0,0.0,0.0,0.0,0.0,0.0,0.0,0.0,0.0,0.0,0.0,0.0,0.0,0.0,-2.4964,-2.7257,-2.9876,-3.2715,-3.3243,-3.2874,-3.1606,-2.891,-2.6268,0.0,0.0,0.0,0.0,0.0,0.0,0.0,0.0,0.0,0.0,0.0,0.0,0.0,0.0,0.0,0.0,0.0,0.0,0.0,0.0,0.0,0.0,0.0,0.0,0.0,0.0,0.0,0.0,0.0,0.0,0.0,0.0,0.0,0.0,0.0,0.0,0.0,0.0,0.0,0.0,0.0,-2.6051,-2.6101,-2.6143,0.0,0.0,0.0,0.0,-2.4709,-2.5468,0.0,0.0,0.0,0.0,0.0,0.0,0.0,0.0,0.0,0.0,0.0,0.0,0.0,0.0,0.0,0.0,0.0,0.0,0.0,0.0,0.0,0.0,0.0,0.0,0.0,0.0,0.0,0.0,0.0,0.0,0.0,0.0,0.0,0.0,0.0,0.0,0.0,0.0,0.0,0.0,0.0,0.0,0.0,0.0,0.0,0.0,0.0,0.0,0.0,0.0,0.0,0.0,0.0,0.0,0.0,0.0,-2.491,-2.685,-2.9199,-3.1873,-3.2463,-3.1971,-3.0593,-2.763,-2.5175,0.0,0.0,0.0,0.0,0.0,0.0,0.0,0.0,0.0,0.0,0.0,0.0,0.0,0.0,0.0,0.0,0.0,0.0,0.0,0.0,0.0,0.0,0.0,0.0,0.0,0.0,0.0,0.0,0.0,0.0,0.0,0.0,0.0,0.0,0.0,0.0,0.0,0.0,0.0,0.0,0.0,-2.6352,-2.703,-2.6954,-2.681,0.0,0.0,-2.6761,-2.6818,-2.8474,0.0,0.0,0.0,0.0,0.0,0.0,0.0,0.0,0.0,0.0,0.0,0.0,0.0,0.0,0.0,0.0,0.0,0.0,0.0,0.0,0.0,0.0,0.0,0.0,0.0,0.0,0.0,0.0,0.0,0.0,0.0,0.0,0.0,0.0,0.0,0.0,0.0,0.0,0.0,0.0,0.0,0.0,0.0,0.0,0.0,0.0,0.0,0.0,0.0,0.0,0.0,0.0,0.0,0.0,0.0,-2.2161,-2.4448,-2.6837,-2.9134,-3.1312,-3.1662,-3.1212,-2.9988,-2.6626,-2.4161,0.0,0.0,0.0,0.0,0.0,0.0,0.0,0.0,0.0,0.0,0.0,0.0,0.0,0.0,0.0,0.0,0.0,0.0,0.0,0.0,0.0,0.0,0.0,0.0,0.0,0.0,0.0,0.0,0.0,0.0,0.0,0.0,0.0,0.0,0.0,0.0,0.0,0.0,0.0,0.0,0.0,0.0,-2.7268,-2.8412,0.0,0.0,0.0,-2.7921,-2.7281,0.0,0.0,0.0,0.0,0.0,0.0,0.0,0.0,0.0,0.0,0.0,0.0,0.0,0.0,0.0,0.0,0.0,0.0,0.0,0.0,0.0,0.0,0.0,0.0,0.0,0.0,0.0,0.0,0.0,0.0,0.0,0.0,0.0,0.0,0.0,0.0,0.0,0.0,0.0,0.0,0.0,0.0,0.0,0.0,0.0,0.0,0.0,0.0,0.0,0.0,0.0,0.0,0.0,0.0,0.0,0.0,0.0,-2.4055,-2.6539,-2.8739,-3.0566,-3.0808,-3.0283,-2.9074,-2.5852,0.0,0.0,0.0,0.0,0.0,0.0,0.0,0.0,0.0,0.0,0.0,0.0,0.0,0.0,0.0,0.0,0.0,0.0,0.0,0.0,0.0,0.0,0.0,0.0,0.0,0.0,0.0,-1.8414,0.0,0.0,0.0,0.0,0.0,0.0,0.0,0.0,0.0,0.0,0.0,0.0,0.0,0.0,-2.8033,-2.7412,-2.9367,-3.0593,0.0,0.0,-2.8904,-2.7692,-2.9043,-2.9094,0.0,0.0,0.0,0.0,0.0,0.0,0.0,0.0,0.0,0.0,0.0,0.0,0.0,0.0,0.0,0.0,0.0,0.0,0.0,0.0,0.0,0.0,0.0,0.0,0.0,0.0,0.0,0.0,0.0,0.0,0.0,0.0,0.0,0.0,0.0,0.0,0.0,0.0,0.0,0.0,0.0,0.0,0.0,0.0,0.0,0.0,0.0,0.0,0.0,0.0,0.0,0.0,0.0,0.0,0.0,-2.3877,-2.5584,-2.7527,-2.9609,-2.972,-2.9039,-2.7641,-2.5323,-2.3274,0.0,0.0,0.0,0.0,0.0,0.0,0.0,0.0,0.0,0.0,0.0,0.0,0.0,0.0,0.0,0.0,0.0,0.0,0.0,0.0,0.0,0.0,0.0,0.0,0.0,0.0,0.0,0.0,0.0,0.0,0.0,0.0,0.0,0.0,0.0,0.0,0.0,0.0,0.0,0.0,0.0,-2.7578,-2.7651,-2.9154,-3.0473,0.0,0.0,-2.9693,-2.8583,-3.0554,-3.0685,-2.592,0.0,0.0,0.0,0.0,0.0,0.0,0.0,0.0,0.0,0.0,0.0,0.0,0.0,0.0,0.0,0.0,0.0,0.0,0.0,0.0,0.0,0.0,0.0,0.0,0.0,0.0,0.0,0.0,0.0,0.0,0.0,0.0,0.0,0.0,0.0,0.0,0.0,0.0,0.0,0.0,0.0,0.0,0.0,0.0,0.0,0.0,0.0,0.0,0.0,0.0,0.0,0.0,0.0,-2.1488,-2.2684,-2.5299,-2.726,-2.8443,-2.8736,-2.8449,-2.7516,-2.4609,-2.2517,0.0,0.0,0.0,0.0,0.0,0.0,0.0,0.0,0.0,0.0,0.0,0.0,0.0,0.0,0.0,0.0,0.0,0.0,0.0,0.0,0.0,0.0,0.0,0.0,0.0,0.0,0.0,0.0,-1.8805,-1.8832,-1.9315,0.0,0.0,0.0,0.0,0.0,0.0,0.0,0.0,0.0,0.0,-2.7473,-2.8524,-3.0214,0.0,0.0,-3.0772,-3.0311,-2.88,-2.9126,-2.8425,-2.5036,-2.356,0.0,0.0,0.0,0.0,0.0,0.0,0.0,0.0,0.0,0.0,0.0,0.0,0.0,0.0,0.0,0.0,0.0,0.0,0.0,0.0,0.0,0.0,0.0,0.0,0.0,0.0,0.0,0.0,0.0,0.0,0.0,0.0,0.0,0.0,0.0,0.0,0.0,0.0,0.0,0.0,0.0,0.0,0.0,0.0,0.0,0.0,0.0,0.0,0.0,0.0,0.0,0.0,-2.1189,-2.1848,-2.4648,-2.6427,-2.7196,-2.7472,-2.7327,-2.6713,-2.406,-2.2242,0.0,0.0,0.0,0.0,0.0,0.0,0.0,0.0,0.0,0.0,0.0,0.0,0.0,0.0,0.0,0.0,0.0,0.0,0.0,0.0,0.0,0.0,0.0,0.0,0.0,0.0,0.0,0.0,-1.9276,-1.9236,-1.8927,0.0,0.0,0.0,0.0,0.0,0.0,0.0,0.0,0.0,0.0,-2.7368,-2.8414,-2.9975,-3.0737,-2.9997,-2.9993,-2.9537,-2.8021,-2.7629,-2.6608,-2.3986,0.0,0.0,0.0,0.0,0.0,0.0,0.0,0.0,0.0,0.0,0.0,0.0,0.0,0.0,0.0,0.0,0.0,0.0,0.0,0.0,0.0,0.0,0.0,0.0,0.0,0.0,0.0,0.0,0.0,0.0,-2.4815,0.0,0.0,0.0,0.0,0.0,0.0,0.0,0.0,0.0,0.0,0.0,0.0,0.0,0.0,0.0,0.0,0.0,0.0,0.0,0.0,0.0,0.0,-2.0645,-2.1693,-2.3371,-2.4766,-2.5793,-2.5845,-2.5628,-2.5083,-2.3825,-2.2621,-2.1472,0.0,0.0,0.0,0.0,0.0,0.0,0.0,0.0,0.0,0.0,0.0,0.0,0.0,0.0,0.0,0.0,0.0,0.0,0.0,0.0,0.0,0.0,0.0,0.0,0.0,0.0,-1.7881,-1.8284,-1.8253,0.0,0.0,0.0,0.0,0.0,0.0,0.0,0.0,0.0,0.0,-2.5587,-2.7292,-2.6938,-2.78,-2.859,-2.8655,-2.8089,-2.7228,-2.6199,-2.6432,-2.5792,0.0,0.0,0.0,0.0,0.0,0.0,0.0,0.0,0.0,0.0,0.0,0.0,0.0,0.0,0.0,0.0,0.0,0.0,0.0,0.0,0.0,0.0,0.0,0.0,0.0,0.0,0.0,-2.5681,-2.5661,0.0,0.0,0.0,0.0,0.0,0.0,0.0,0.0,0.0,0.0,0.0,-2.3519,-2.3196,0.0,0.0,0.0,0.0,0.0,0.0,0.0,0.0,0.0,0.0,0.0,0.0,-2.0718,-2.113,-2.3435,-2.487,-2.5267,-2.5262,-2.4975,-2.4413,-2.2869,-2.1316,-1.9768,0.0,0.0,0.0,0.0,0.0,0.0,0.0,0.0,0.0,0.0,0.0,0.0,0.0,0.0,0.0,0.0,0.0,0.0,0.0,0.0,0.0,0.0,0.0,0.0,0.0,-1.8555,0.0,0.0,0.0,0.0,0.0,0.0,0.0,0.0,0.0,0.0,0.0,-2.2884,-2.4578,-2.5405,-2.6221,-2.724,-2.7683,-2.8089,0.0,0.0,0.0,0.0,0.0,0.0,0.0,0.0,0.0,0.0,0.0,0.0,0.0,0.0,-2.4773,-2.2185,-2.1846,-2.1939,-2.1749,0.0,0.0,0.0,0.0,0.0,0.0,0.0,0.0,0.0,0.0,0.0,0.0,0.0,0.0,-2.6151,0.0,-2.5866,0.0,0.0,0.0,0.0,0.0,0.0,0.0,0.0,-2.3766,-2.4325,-2.4156,-2.383,-2.3604,0.0,-2.2448,-2.0957,0.0,0.0,0.0,0.0,0.0,0.0,0.0,0.0,-2.0774,-2.083,-2.333,-2.4704,-2.4704,-2.4704,-2.4504,-2.4112,-2.2763,-2.1329,-1.9908,-1.9349,-1.8869,0.0,0.0,0.0,0.0,0.0,0.0,0.0,0.0,0.0,0.0,0.0,0.0,0.0,0.0,0.0,0.0,0.0,0.0,0.0,0.0,0.0,0.0,0.0,-1.8674,0.0,0.0,0.0,0.0,0.0,0.0,0.0,0.0,0.0,-2.2525,-2.2884,-2.3703,-2.554,-2.5693,-2.5914,-2.666,0.0,0.0,0.0,0.0,0.0,0.0,0.0,-2.4245,-2.3621,-2.3079,-2.2944,-2.3703,-2.4787,-2.552,-2.5317,0.0,0.0,-2.3378,-2.3119,-2.3187,-2.297,-2.3554,-2.3958,-2.3459,-2.3913,-2.4111,0.0,0.0,0.0,0.0,0.0,0.0,0.0,0.0,-2.6114,-2.6509,0.0,-2.5708,0.0,0.0,0.0,0.0,0.0,-2.2176,0.0,0.0,-2.4267,-2.4571,-2.4544,-2.3809,-2.3364,-2.3283,-2.2727,-2.2054,-2.1271,-2.0785,0.0,0.0,0.0,0.0,0.0,0.0,-2.08,-2.0843,-2.2975,-2.4125,-2.4125,-2.4125,-2.4083,-2.4031,-2.3314,-2.2605,-2.1886,-2.0691,-1.9965,-1.9799,-1.8385,0.0,0.0,0.0,0.0,0.0,0.0,0.0,0.0,0.0,0.0,0.0,0.0,0.0,0.0,0.0,0.0,0.0,0.0,0.0,0.0,-1.862,0.0,0.0,0.0,0.0,0.0,0.0,0.0,0.0,0.0,0.0,-2.2791,-2.3956,-2.5066,-2.5776,0.0,0.0,0.0,0.0,-2.5538,-2.5194,-2.5445,-2.5605,-2.5194,-2.605,-2.6129,-2.4475,0.0,0.0,-2.5317,-2.5154,-2.5086,-2.4435,-2.5398,-2.6011,-2.5984,-2.5398,-2.4869,-2.4326,-2.4327,-2.4115,-2.3829,-2.4935,-2.5365,-3.1186,0.0,0.0,0.0,0.0,-2.6743,-2.7279,-2.7867,-2.7904,-2.7816,-2.7608,-2.6632,0.0,0.0,0.0,0.0,0.0,0.0,-2.2951,-2.4255,-2.5315,-2.5903,-2.6138,-2.6337,-2.6183,-2.5763,-2.504,-2.4188,-2.3138,-2.2778,-2.1409,-1.9133,0.0,0.0,0.0,0.0,-2.1105,-2.1957,-2.3354,-2.4125,-2.4125,-2.4125,-2.3816,-2.3314,-2.27,-2.2214,-2.1909,-2.1192,-2.0564,-2.0105,-1.9301,0.0,0.0,0.0,0.0,0.0,0.0,0.0,0.0,0.0,0.0,0.0,0.0,0.0,0.0,0.0,0.0,0.0,0.0,0.0,-1.9052,-1.9181,-1.9096,0.0,0.0,0.0,0.0,0.0,0.0,0.0,0.0,0.0,-2.4132,-2.4242,-2.4649,0.0,0.0,-2.4881,-2.4863,-2.5069,-2.5449,-2.6169,-2.6397,0.0,0.0,-2.6497,-2.6145,-2.6034,-2.7189,-2.7963,-2.7623,-2.7908,-2.8139,-2.7922,-2.7868,-2.7813,-2.7759,-2.6999,-2.628,-2.6088,-2.6345,-2.6489,-2.609,-2.636,-2.6439,-3.496,-3.2366,-2.9967,-2.8674,-2.8248,-2.8709,-2.9112,-2.9468,-2.9526,-2.92,-2.8584,-2.7295,-2.6318,-2.556,-2.4119,0.0,0.0,0.0,-2.3733,-2.4942,-2.5739,-2.6237,-2.647,-2.6823,-2.6796,-2.6413,-2.5686,-2.4939,-2.4183,-2.372,-2.2511,-2.0594,0.0,0.0,-1.9774,-2.0829,-2.1721,-2.2401,-2.3524,-2.4125,-2.4125,-2.4067,-2.3651,-2.2951,-2.2562,-2.2236,-2.1909,-2.1385,-2.0924,-2.0566,-1.9872,-1.9225,0.0,0.0,0.0,0.0,0.0,0.0,0.0,0.0,0.0,0.0,0.0,-1.8104,0.0,0.0,0.0,0.0,-1.8526,-1.9221,-1.9699,-1.9436,0.0,0.0,0.0,0.0,0.0,0.0,0.0,-2.0425,-2.2318,-2.3743,-2.4121,-2.4325,-2.4935,-2.6236,-2.5501,-2.4922,-2.5189,0.0,-2.571,-2.6687,-2.6996,-2.7267,-2.7651,-2.7298,-2.7094,-2.7461,-2.7881,-2.8329,-2.8573,-2.8899,-2.9067,-2.8831,-2.8668,-2.8438,-2.7976,-2.7443,-2.7271,-2.7488,-2.8003,-2.8223,-2.7703,-2.7966,-2.8134,-3.8278,-3.6622,-3.2446,-3.0468,-3.0192,-3.0684,-3.0954,-3.0995,-3.0948,-3.0513,-2.9719,-2.7777,-2.6405,-2.5425,-2.3963,0.0,-2.4221,-2.4444,-2.4943,-2.5632,-2.5799,-2.5914,-2.5968,-2.6052,-2.6009,-2.5968,-2.5268,-2.4842,-2.4618,-2.3915,-2.3181,-2.2453,-2.1904,-2.1355,-2.0935,-2.1865,-2.244,-2.2545,-2.3563,-2.4125,-2.4096,-2.3897,-2.3509,-2.2824,-2.2773,-2.2462,-2.1924,-2.1359,-2.1104,-2.1078,-2.018,-1.9634,-1.9555,0.0,0.0,0.0,0.0,0.0,0.0,0.0,0.0,0.0,0.0,0.0,0.0,0.0,0.0,0.0,-1.9507,0.0,-2.0409,-1.9539,0.0,0.0,0.0,-1.9409,-2.0957,-2.0879,-2.1062,-2.202,0.0,0.0,-2.3337,-2.434,-2.571,-2.7406,-2.6592,-2.5846,-2.5873,-2.5873,-2.609,-2.6603,-2.7244,-2.7623,-2.7583,-2.7922,-2.818,-2.8193,-2.799,-2.7841,-2.8261,-2.841,-2.8207,-2.7773,-2.8085,-2.8125,-2.6982,-2.7226,-2.78,-2.8248,-2.8777,-2.9038,-2.8465,-2.9026,-2.9318,-3.9371,-3.8491,-3.6973,-3.5334,-3.3704,-3.3022,-3.2773,-3.2727,-3.2233,-3.1418,-3.0309,-2.8732,-2.7401,-2.6295,-2.5963,-2.5939,-2.6103,-2.5254,-2.5457,-2.6437,-2.6079,-2.6145,-2.6576,-2.7054,-2.704,-2.6576,-2.6143,-2.5685,-2.5186,-2.4353,-2.3631,-2.3027,-2.2884,-2.2544,-2.2021,-2.227,-2.2846,-2.3694,-2.3939,-2.4054,-2.3936,-2.3479,-2.3083,-2.2811,-2.2444,-2.2161,-2.1909,-2.1372,-2.1131,-2.121,-2.0642,-2.0122,-1.9777,-1.8836,0.0,0.0,0.0,0.0,0.0,0.0,0.0,0.0,0.0,-1.8158,-1.7663,0.0,-1.8052,0.0,-1.8397,-1.9561,-2.0879,-2.0415,0.0,0.0,-2.0606,-2.071,-2.1286,-2.2369,-2.2868,-2.2322,-2.3621,-2.4557,-2.4557,-2.5222,-2.6009,-2.686,-2.5982,-2.5314,-2.5601,-2.5812,-2.5941,-2.6145,-2.6674,-2.6996,-2.7037,-2.7104,-2.7226,-2.7213,-2.7121,-2.7094,-2.7199,-2.7226,-2.7172,-2.7067,-2.7104,-2.7108,-2.6779,-2.6915,-2.7009,-2.7216,-2.7335,-2.743,-2.7274,-2.7522,-2.7551,-3.9747,-3.9135,-3.8546,-3.7459,-3.5979,-3.5163,-3.4445,-3.386,-3.349,-3.2272,-3.0479,-2.8773,-2.7527,-2.6694,-2.6461,-2.6507,-2.6714,-2.5561,-2.552,-2.6375,-2.6036,-2.6077,-2.643,-2.6996,-2.6999,-2.6386,-2.6059,-2.5615,-2.5026,-2.4402,-2.3913,-2.3587,-2.3587,-2.3443,-2.3171,-2.2663,-2.2728,-2.3341,-2.3561,-2.3751,-2.3894,-2.3308,-2.2755,-2.2342,-2.1685,-2.1171,-2.0796,-2.0373,-2.0176,-2.0225,-1.9963,-1.9662,-1.9394,-1.8375,-1.7617,0.0,0.0,0.0,0.0,0.0,0.0,0.0,0.0,0.0,0.0,0.0,-1.8692,-1.8355,-1.9071,-1.9998,-2.1097,-2.0523,-2.0502,-2.1572,-2.1415,-2.1587,-2.2497,-2.3433,-2.3879,-2.3567,-2.4381,-2.4896,-2.4652,-2.4896,-2.5127,-2.5194,-2.4624,-2.4678,-2.5835,-2.6031,-2.5982,-2.6267,-2.6562,-2.6793,-2.6793,-2.6549,-2.6497,-2.6711,-2.6592,-2.6484,-2.6725,-2.6592,-2.6321,-2.6077,-2.598,-2.5776,-2.5343,-2.5437,-2.5519,-2.5261,-2.5194,-2.5587,-2.6562,-2.6685,-2.6504,-3.9747,-3.9135,-3.8546,-3.7969,-3.7342,-3.6661,-3.5645,-3.4489,-3.4489,-3.3008,-3.04,-2.8713,-2.7619,-2.6982,-2.6484,-2.6524,-2.6942,-2.586,-2.5629,-2.6104,-2.6036,-2.6009,-2.605,-2.6616,-2.6576,-2.5964,-2.5668,-2.5212,-2.4682,-2.4297,-2.4086,-2.4008,-2.3965,-2.3968,-2.3851,-2.2898,-2.248,-2.2608,-2.2972,-2.3371,-2.3719,-2.3021,-2.2262,-2.1517,-2.0669,-1.9957,-1.9357,-1.9069,-1.8898,-1.8898,-1.8898,-1.8937,-1.8953,-1.7565,-1.7186,0.0,-1.684,0.0,0.0,0.0,0.0,0.0,0.0,0.0,0.0,-1.9526,-1.9723,-2.0184,-2.0378,-2.0718,-2.1282,-2.0566,-2.0704,-2.228,-2.2088,-2.2402,-2.3987,-2.4204,-2.4407,-2.4951,-2.5005,-2.4773,-2.434,-2.4204,-2.4014,-2.3757,-2.3689,-2.434,-2.598,-2.5968,-2.5778,-2.6497,-2.6562,-2.6413,-2.64,-2.609,-2.5941,-2.6389,-2.6131,-2.5982,-2.6443,-2.6117,-2.5615,-2.5168,-2.51,-2.4706,-2.3608,-2.3947,-2.4096,-2.3798,-2.3743,-2.4258,-2.5666,-2.5955,-2.5896,-3.9747,-3.9135,-3.8574,-3.7953,-3.731,-3.6165,-3.5244,-3.4489,-3.4489,-3.2973,-3.0498,-3.0116,-2.9318,-2.8266,-2.8139,-2.8153,-2.822,-2.7528,-2.7257,-2.7352,-2.6847,-2.6616,-2.6657,-2.7089,-2.7031,-2.6462,-2.6117,-2.5659,-2.5077,-2.4423,-2.3835,-2.3378,-2.3365,-2.3158,-2.2741,0.0,0.0,0.0,-2.3205,-2.292,-2.2955,-2.1503,-2.0668,-2.045,-1.9646,0.0,-1.9011,-1.8917,-1.8898,-1.8898,-1.8898,0.0,0.0,0.0,0.0,0.0,0.0,0.0,0.0,0.0,0.0,0.0,-1.936,-1.9346,-1.949,-1.9606,-1.9863,-2.0311,-2.0448,-2.0914,-2.197,-2.1927,-2.2332,-2.3554,-2.3649,-2.3906,-2.4747,-2.4829,-2.4896,-2.4991,-2.5005,-2.4964,-2.4815,-2.4842,-2.4774,-2.4543,-2.4624,-2.4814,-2.5234,-2.4896,-2.4692,-2.5222,-2.5439,-2.5385,-2.5344,-2.5276,-2.5263,-2.5303,-2.5276,-2.5236,-2.5331,-2.5276,-2.5154,-2.4937,-2.5005,-2.4896,-2.4611,-2.4774,-2.4611,-2.4652,-2.4611,-2.4489,-2.4014,-2.4009,-2.3997,-3.9575,0.0,-3.8435,-3.7796,0.0,-3.5905,-3.5121,-3.4474,-3.4135,-3.2658,-3.0509,-3.0133,-2.947,-2.8573,-2.8288,-2.8315,-2.8546,-2.7678,-2.742,-2.7678,-2.7362,-2.7226,-2.7253,-2.7638,-2.7548,-2.6952,-2.6379,-2.5787,-2.5189,-2.4446,-2.3926,-2.3668,-2.3626,-2.3483,-2.3237,-2.3265,-2.338,-2.3639,-2.3238,-2.3153,-2.3373,-2.2027,-2.125,-2.1145,0.0,0.0,0.0,0.0,0.0,0.0,0.0,0.0,0.0,0.0,0.0,-1.9422,-1.9229,-1.9303,-1.9697,-1.9819,-2.0023,-2.0421,-2.0705,-2.0769,-2.0462,-2.0775,-2.1209,-2.1729,-2.1821,-2.2198,-2.3052,-2.2917,-2.3228,-2.4367,-2.4272,-2.4326,-2.4883,-2.5005,-2.5005,-2.5005,-2.5005,-2.491,-2.4598,-2.4571,-2.4407,-2.4164,-2.3825,-2.392,-2.4421,-2.4584,-2.4693,-2.4922,-2.5005,-2.5018,-2.5005,-2.5005,-2.4991,-2.5005,-2.5005,-2.4883,-2.4611,-2.4299,-2.4014,-2.3743,-2.3445,-2.3215,-2.3268,-2.3458,-2.3689,-2.3716,-2.392,-2.4014,-2.3548,-2.3865,-2.4219,-3.9401,-3.8306,-3.8306,-3.7621,-3.643,-3.5645,-3.489,-3.4104,0.0,0.0,0.0,-3.0023,-2.9415,-2.8921,-2.8175,-2.8125,-2.8551,-2.7583,-2.7375,-2.7854,-2.7868,-2.7854,-2.785,-2.8136,-2.7978,-2.7337,-2.6525,-2.5757,-2.5159,-2.4446,-2.4125,-2.4125,-2.4125,-2.4125,-2.4125,-2.4125,-2.3877,-2.3365,-2.3219,-2.3402,-2.3858,-2.2796,-2.2154,-2.2034,-2.0566,-1.9727,-1.9632,-1.9149,-1.8934,-1.9035,-1.8957,-1.8996,-1.9202,-1.9147,-1.9199,-1.9407,-1.9466,-1.9794,-2.0486,-2.055,-2.0813,-2.1358,-2.1871,-2.1993,-2.1562,-2.2129,-2.2646,-2.3174,-2.3189,-2.3445,-2.4028,-2.3662,-2.3757,-2.4719,-2.438,-2.4258,-2.4625,-2.4693,-2.4611,-2.4665,-2.4611,-2.4517,-2.4014,-2.3933,-2.3771,-2.3296,-2.293,-2.278,-2.3757,-2.4502,-2.4896,-2.4815,-2.4855,-2.4978,-2.4856,-2.4787,-2.4815,-2.4611,-2.4597,-2.4489,-2.4014,-2.354,-2.3052,-2.2766,-2.2061,-2.1914,-2.1819,-2.232,-2.247,-2.2578,-2.2998,-2.351,-2.3952,-2.4613,-2.4981,-3.9401,-3.8306,-3.8306,-3.7605,-3.6399,-3.5183,-3.3904,-3.2705,-3.2582,-3.2431,-3.2124,-3.0907,-3.0371,-3.0241,-2.9031,-2.8519,-2.8587,-2.841,-2.8397,-2.8465,-2.8465,-2.8465,-2.8465,-2.8371,-2.7927,-2.721,-2.6463,-2.5726,-2.5022,-2.4429,-2.4125,-2.4125,-2.4125,-2.4125,-2.4125,-2.4125,-2.4044,-2.3952,-2.3342,-2.3065,-2.313,-2.1982,-2.137,-2.1303,-2.0321,-1.9714,-1.9678,-1.9205,-1.9116,-1.9557,-1.9148,-1.9373,-2.0347,-2.0044,-2.0107,-2.0691,-2.0828,-2.0965,-2.107,-2.1205,-2.1304,-2.1385,-2.148,-2.1683,-2.2156,-2.2727,-2.3094,-2.3189,-2.3216,-2.3459,-2.4001,-2.4001,-2.4014,-2.4204,-2.415,-2.3947,-2.3594,-2.3527,-2.354,-2.3554,-2.3432,-2.3499,-2.3392,-2.3378,-2.3364,-2.3202,-2.3066,-2.3106,-2.335,-2.4313,-2.4706,-2.4449,-2.4693,-2.4747,-2.434,-2.4218,-2.4055,-2.354,-2.354,-2.3554,-2.3364,-2.3228,-2.3052,-2.3039,-2.2754,-2.2742,-2.2755,-2.2986,-2.3147,-2.3459,-2.3743,-2.4123,-2.486,-2.5425,-2.5452,-3.9575,-3.8767,-3.8435,-3.778,-3.6859,-3.5208,-3.3919,-3.2921,-3.2552,-3.2429,-3.2392,-3.1456,-3.0872,-3.0517,-2.9529,-2.8912,-2.8587,-2.8587,-2.8587,-2.8587,-2.8587,-2.8424,-2.8134,-2.8166,-2.7857,-2.7187,-2.6667,-2.6088,-2.5458,-2.5171,-2.4883,-2.4622,-2.4853,-2.4696,-2.4164,-2.4723,-2.4856,-2.4563,-2.3924,-2.3764,-2.4066,-2.3232,-2.2911,-2.323,-2.2142,-2.1425,-2.1193,-2.0583,-2.0257,-2.0247,-2.0257,-2.0425,-2.0764,-2.0863,-2.0922,-2.108,-2.1169,-2.1229,-2.1302,-2.1375,-2.1385,-2.1399,-2.1697,-2.1993,-2.2278,-2.2537,-2.2984,-2.3608,-2.3689,-2.3798,-2.4069,-2.4096,-2.4096,-2.4096,-2.3825,-2.3486,-2.3256,-2.3189,-2.3189,-2.3189,-2.3189,-2.3189,-2.3189,-2.3189,-2.3189,-2.3189,-2.3175,-2.2958,-2.2363,-2.3242,-2.3947,-2.3703,-2.3852,-2.3892,-2.3662,-2.3608,-2.3499,-2.3202,-2.3189,-2.3066,-2.2808,-2.27,-2.2564,-2.2293,-2.2239,-2.2226,-2.2253,-2.251,-2.2821,-2.3038,-2.355,-2.4106,-2.4845,-2.5572,-2.5766,-3.9747,-3.9135,-3.8546,-3.7787,-3.688,-3.553,-3.4459,-3.3629,-3.309,-3.2896,-3.2823,-3.1941,-3.1338,-3.0977,-3.0128,-2.947,-2.904,-2.8849,-2.8817,-2.8785,-2.8515,-2.8139,-2.7755,-2.7919,-2.7736,-2.7272,-2.6963,-2.6566,-2.6128,-2.5952,-2.5744,-2.554,-2.5867,-2.5659,-2.4989,-2.5819,-2.6051,-2.5626,-2.5168,-2.5018,-2.5147,-2.4709,-2.4685,-2.5036,-2.4081,-2.3266,-2.282,-2.221,-2.1664,-2.1196,-2.1381,-2.1401,-2.1171,-2.1388,-2.1447,-2.1277,-2.1253,-2.1302,-2.1385,-2.1385,-2.1385,-2.1399,-2.183,-2.2156,-2.2278,-2.2169,-2.2591,-2.3676,-2.3987,-2.4082,-2.4096,-2.4096,-2.4042,-2.3892,-2.3364,-2.293,-2.2835,-2.2917,-2.3012,-2.2998,-2.2998,-2.2958,-2.2984,-2.289,-2.2741,-2.2727,-2.2795,-2.2375,-2.1711,-2.2253,-2.2741,-2.2863,-2.3012,-2.3161,-2.3052,-2.2998,-2.293,-2.2876,-2.2768,-2.251,-2.2185,-2.2101,-2.1966,-2.1575,-2.1453,-2.1494,-2.1467,-2.1751,-2.2181,-2.2487,-2.3022,-2.3697,-2.4698,-2.5516,-2.6099,-3.9764,-3.9152,-3.859,-3.7268,-3.5843,-3.6091,-3.5537,-3.4443,-3.4305,-3.4306,-3.3975,-3.234,-3.1809,-3.2109,-3.0981,-3.0359,-3.0222,-2.9673,-2.9411,-2.9275,-2.8287,-2.7759,-2.7718,-2.7755,-2.7588,-2.7395,-2.7314,-2.7242,-2.7077,-2.6467,-2.6373,-2.6808,-2.6788,-2.6957,-2.7364,-2.7551,-2.758,-2.7538,-2.7509,-2.689,-2.5797,-2.5614,-2.5568,-2.5618,-2.5071,-2.4513,-2.4038,-2.3566,-2.3048,-2.2553,-2.2109,-2.1905,-2.1866,-2.1496,-2.1302,-2.1375,-2.1361,-2.1399,-2.1385,-2.1385,-2.1385,-2.1399,-2.144,-2.1724,-2.2171,-2.1792,-2.1982,-2.3066,-2.3771,-2.4042,-2.4096,-2.4096,-2.3892,-2.3405,-2.2821,-2.2183,-2.1819,-2.2074,-2.2386,-2.2386,-2.2483,-2.24,-2.2495,-2.2129,-2.1711,-2.1846,-2.1819,-2.1711,-2.1494,-2.1548,-2.1751,-2.1846,-2.2429,-2.2835,-2.2524,-2.2375,-2.2212,-2.1778,-2.1602,-2.1616,-2.1589,-2.1548,-2.144,-2.1467,-2.1434,-2.1434,-2.1434,-2.1505,-2.1806,-2.2385,-2.2851,-2.3312,-2.4807,-2.5598,-2.5931,-4.0745,-3.9694,-3.9187,-3.7844,-3.6199,-3.5953,-3.5353,-3.4505,-3.4029,-3.3629,-3.3213,-3.2377,-3.2229,-3.2452,-3.1501,-3.0881,-3.048,-3.0194,-2.9844,-2.949,-2.8986,-2.8381,-2.779,-2.8373,-2.8426,-2.8092,-2.8553,-2.868,-2.8332,-2.7931,-2.785,-2.807,-2.8288,-2.8214,-2.7908,-2.8584,-2.8814,-2.8495,-2.8873,-2.8828,-2.8257,-2.7451,-2.7181,-2.7391,-2.6624,-2.5888,-2.5398,-2.4846,-2.4318,-2.3801,-2.3447,-2.3039,-2.2598,-2.2272,-2.1874,-2.1458,-2.1385,-2.1385,-2.1385,-2.1385,-2.1385,-2.1385,-2.1385,-2.1507,-2.1735,-2.1534,-2.1765,-2.2537,-2.3215,-2.3703,-2.4028,-2.4096,-2.3852,-2.3269,-2.2659,-2.2074,-2.148,-2.1939,-2.2305,-2.2332,-2.2605,-2.2835,-2.2754,-2.2319,-2.1979,-2.1884,-2.1667,-2.1399,-2.1385,-2.1385,-2.1385,-2.144,-2.186,-2.1995,-2.183,-2.1776,-2.1654,-2.1467,-2.1385,-2.1385,-2.141,-2.1385,-2.1399,-2.141,-2.1544,-2.164,-2.1664,-2.1807,-2.2037,-2.2452,-2.2853,-2.3382,-2.4769,-2.5304,-2.583,-4.1068,-4.007,-3.9385,-3.8089,-3.6444,-3.5782,-3.5136,-3.4459,-3.3706,-3.3121,-3.2675,-3.2475,-3.2435,-3.2399,-3.1949,-3.1465,-3.1028,-3.0661,-3.035,-3.0001,-2.9517,-2.8872,-2.8338,-2.8993,-2.9146,-2.8925,-2.962,-2.9814,-2.9415,-2.9297,-2.931,-2.9425,-2.9736,-2.957,-2.9117,-2.9971,-3.0199,-2.9854,-3.0304,-3.0536,-3.0406,-2.94,-2.8928,-2.9003,-2.8101,-2.7333,-2.6827,-2.6209,-2.5521,-2.4875,-2.4573,-2.399,-2.3122,-2.2767,-2.2244,-2.1496,-2.1385,-2.1385,-2.1385,-2.1385,-2.1385,-2.1385,-2.1385,-2.1385,-2.1385,-2.1385,-2.1656,-2.2253,-2.2849,-2.3472,-2.3987,-2.4096,-2.3838,-2.3243,-2.2659,-2.2115,-2.1776,-2.2171,-2.2619,-2.2807,-2.3215,-2.3378,-2.3161,-2.2659,-2.2264,-2.221,-2.1789,-2.1385,-2.1385,-2.1385,-2.1385,-2.1385,-2.1399,-2.1412,-2.1385,-2.144,-2.1385,-2.1385,-2.1385,-2.141,-2.1471,-2.1506,-2.1578,-2.1722,-2.1831,-2.1902,-2.1926,-2.2091,-2.2254,-2.2386,-2.2743,-2.3363,-2.4298,-2.4883,-2.5557,-4.0163,-3.9977,-3.8827,-3.7632,-3.6364,-3.576,-3.5106,-3.4397,-3.3706,-3.3367,-3.3183,-3.2659,-3.2413,-3.2419,-3.2345,-3.2342,-3.2139,-3.1093,-3.0841,-3.104,-2.9578,-2.9001,-2.9508,-2.9595,-2.9581,-2.9639,-3.0116,-3.0317,-3.0215,-3.0169,-3.0467,-3.1028,-3.0955,-3.1203,-3.153,-3.1673,-3.1849,-3.1669,-3.1738,-3.1858,-3.1797,-3.1302,-3.0647,-3.0031,-2.926,-2.8641,-2.823,-2.7586,-2.6745,-2.5795,-2.5274,-2.447,-2.3339,-2.2625,-2.2027,-2.1491,-2.1385,-2.1385,-2.1385,-2.1385,-2.1385,-2.1385,-2.1385,-2.1385,-2.1385,-2.1385,-2.1656,-2.2251,-2.2849,-2.3459,-2.3987,-2.4096,-2.3852,-2.3256,-2.2659,-2.2305,-2.2251,-2.27,-2.3391,-2.3798,-2.3974,-2.3892,-2.3324,-2.2673,-2.2468,-2.2266,-2.1805,-2.1426,-2.1385,-2.1385,-2.1385,-2.1385,-2.1385,-2.1385,-2.1385,-2.1385,-2.1385,-2.1458,-2.1506,-2.1506,-2.165,-2.1817,-2.1949,-2.2044,-2.2123,-2.2147,-2.2184,-2.2254,-2.237,-2.2514,-2.2712,-2.3291,-2.4012,-2.453,-2.511,-4.1021,-4.0081,-3.8768,-3.748,-3.6371,-3.5658,-3.4776,-3.3783,-3.3521,-3.3167,-3.2767,-3.249,-3.2398,-3.2398,-3.2398,-3.2398,-3.2367,-3.19,-3.1425,-3.0924,-3.0565,-3.0117,-2.961,-3.0366,-3.0819,-3.0877,-3.1344,-3.1549,-3.1478,-3.1478,-3.1551,-3.1667,-3.1667,-3.1768,-3.1981,-3.2109,-3.2122,-3.215,-3.2191,-3.2274,-3.2231,-3.2057,-3.1796,-3.1462,-3.0042,-2.9195,-2.9053,-2.8373,-2.7828,-2.7463,-2.651,-2.5456,-2.4268,-2.2648,-2.1629,-2.1426,-2.1385,-2.1385,-2.1385,-2.1385,-2.1385,-2.1385,-2.1385,-2.141,-2.1385,-2.1399,-2.1643,-2.2226,-2.2849,-2.3459,-2.3933,-2.4096,-2.3852,-2.3269,-2.2673,-2.2319,-2.2414,-2.2835,-2.3445,-2.4001,-2.4394,-2.4571,-2.4245,-2.3838,-2.331,-2.2903,-2.2348,-2.1871,-2.148,-2.1385,-2.1434,-2.141,-2.1385,-2.1385,-2.1385,-2.1385,-2.1434,-2.1592,-2.1712,-2.1817,-2.1959,-2.203,-2.2161,-2.2231,-2.231,-2.244,-2.2454,-2.2546,-2.2623,-2.2692,-2.2865,-2.312,-2.376,-2.419,-2.4573,-4.1045,-4.0124,-3.8954,-3.7756,-3.6612,-3.5899,-3.4723,-3.3414,-3.3324,-3.2992,-3.2471,-3.2398,-3.2398,-3.2398,-3.2398,-3.2398,-3.2367,-3.2167,-3.1702,-3.1187,-3.1371,-3.1072,-3.0683,-3.1369,-3.1794,-3.1851,-3.2203,-3.2342,-3.2274,-3.2274,-3.2219,-3.2135,-3.2122,-3.2135,-3.215,-3.2219,-3.2274,-3.2287,-3.2342,-3.2398,-3.2398,-3.2398,-3.2398,-3.2182,-3.0859,-2.991,-2.9725,-2.9089,-2.8611,-2.8293,-2.7382,-2.6218,-2.4839,-2.2845,-2.1736,-2.1864,-2.1746,-2.1664,-2.1688,-2.1793,-2.1732,-2.1434,-2.1568,-2.1602,-2.1434,-2.1385,-2.1602,-2.2047,-2.2576,-2.3161,-2.3594,-2.3621,-2.3418,-2.3134,-2.2659,-2.2414,-2.2578,-2.2957,-2.3554,-2.4258,-2.4706,-2.4951,-2.4909,-2.4421,-2.3947,-2.3527,-2.2899,-2.2267,-2.1926,-2.1712,-2.165,-2.165,-2.1712,-2.1712,-2.1722,-2.1769,-2.165,-2.1783,-2.1949,-2.2053,-2.2194,-2.2301,-2.237,-2.2417,-2.2509,-2.2638,-2.2752,-2.2834,-2.2865,-2.2888,-2.2902,-2.3033,-2.347,-2.3746,-2.4123,-4.0197,-4.0003,-3.9428,-3.8311,-3.7023,-3.6287,-3.4995,-3.3467,-3.3235,-3.2931,-3.2547,-3.241,-3.2398,-3.2398,-3.2398,-3.2398,-3.229,-3.1844,-3.1813,-3.2038,-3.1712,-3.1731,-3.206,-3.2259,-3.2422,-3.2391,-3.2413,-3.2398,-3.2398,-3.237,-3.237,-3.2382,-3.237,-3.2358,-3.2398,-3.237,-3.2398,-3.2398,-3.2382,-3.2398,-3.2398,-3.2398,-3.2398,-3.2336,-3.1674,-3.0997,-3.0371,-2.9694,-2.9027,-2.84,-2.7805,-2.6664,-2.498,-2.3146,-2.2402,-2.2698,-2.2477,-2.2231,-2.224,-2.2572,-2.2342,-2.1827,-2.1921,-2.203,-2.1684,-2.1554,-2.1571,-2.1683,-2.2122,-2.2643,-2.3052,-2.2795,-2.2698,-2.3025,-2.2605,-2.2415,-2.2971,-2.3242,-2.3676,-2.4679,-2.4963,-2.5005,-2.4855,-2.4543,-2.4191,-2.396,-2.3396,-2.2804,-2.2594,-2.2352,-2.2236,-2.2147,-2.2053,-2.1983,-2.2114,-2.2184,-2.2044,-2.1949,-2.2123,-2.2263,-2.2463,-2.2592,-2.2601,-2.2669,-2.2692,-2.2797,-2.2797,-2.2865,-2.2865,-2.2888,-2.2902,-2.2917,-2.3142,-2.3403,-2.363,-4.1027,-4.0054,-3.9354,-3.8321,-3.7003,-3.5762,-3.4618,-3.3758,-3.3365,-3.3077,-3.2895,-3.2574,-3.2398,-3.2425,-3.2398,-3.2398,-3.2382,-3.2167,-3.1967,-3.1797,-3.1951,-3.1921,-3.1921,-3.2644,-3.309,-3.2998,-3.2598,-3.2398,-3.2398,-3.2413,-3.2398,-3.2398,-3.2413,-3.2398,-3.2428,-3.2398,-3.2398,-3.2398,-3.2398,-3.2398,-3.2398,-3.2398,-3.2398,-3.2382,-3.221,-3.1582,-3.0489,-2.9756,-2.9104,-2.8418,-2.782,-2.6886,-2.5437,-2.3701,-2.3022,-2.3441,-2.3031,-2.2709,-2.2748,-2.2868,-2.2883,-2.2589,-2.2643,-2.2634,-2.248,-2.2426,-2.2287,-2.2085,-2.2491,-2.2967,-2.3048,-2.2646,-2.2654,-2.3134,-2.232,-2.2158,-2.3147,-2.392,-2.4529,-2.4896,-2.5005,-2.5005,-2.4991,-2.4747,-2.464,-2.449,-2.4115,-2.3761,-2.3133,-2.2877,-2.2606,-2.232,-2.2264,-2.2263,-2.2324,-2.2394,-2.237,-2.2301,-2.2394,-2.2486,-2.2684,-2.2775,-2.282,-2.2843,-2.2888,-2.2888,-2.2888,-2.2888,-2.2888,-2.2888,-2.2888,-2.2902,-2.2917,-2.3099,-2.3316,-4.0942,-4.0079,-3.9605,-3.863,-3.741,-3.6584,-3.5545,-3.4439,-3.426,-3.3983,-3.3481,-3.2949,-3.2695,-3.2668,-3.2492,-3.2398,-3.2398,-3.2398,-3.2167,-3.1859,-3.2151,-3.2136,-3.1886,-3.2567,-3.3029,-3.2967,-3.2582,-3.2398,-3.2413,-3.2644,-3.2767,-3.2782,-3.2767,-3.2782,-3.2721,-3.2505,-3.2398,-3.2398,-3.2398,-3.2398,-3.2398,-3.2398,-3.2398,-3.2398,-3.2398,-3.172,-3.0494,-3.0186,-2.9597,-2.8547,-2.7811,-2.7124,-2.6321,-2.4864,-2.4168,-2.4535,-2.4103,-2.3636,-2.3659,-2.3686,-2.3413,-2.3194,-2.3223,-2.3216,-2.312,-2.3155,-2.3151,-2.2672,-2.3083,-2.3457,-2.337,-2.3153,-2.3181,-2.3712,-2.2599,-2.2371,-2.3378,-2.4408,-2.4924,-2.5005,-2.5005,-2.5005,-2.5005,-2.5132,-2.512,-2.4956,-2.4699,-2.4437,-2.3657,-2.3244,-2.2843,-2.2553,-2.2552,-2.2546,-2.25,-2.2592,-2.2706,-2.2684,-2.2684,-2.2729,-2.2834,-2.2843,-2.2865,-2.2865,-2.2888,-2.2888,-2.2888,-2.2888,-2.2888,-2.2888,-2.2888,-2.2888,-2.2902,-2.2902,-2.307,-4.0282,-4.018,-4.0163,-3.9309,-3.8128,-3.8415,-3.7146,-3.5203,-3.5546,-3.5144,-3.4124,-3.3613,-3.3261,-3.3097,-3.2831,-3.2631,-3.2398,-3.2398,-3.2367,-3.2321,-3.2398,-3.2367,-3.249,-3.2521,-3.2582,-3.2613,-3.2459,-3.2398,-3.2428,-3.2875,-3.3336,-3.3167,-3.3136,-3.329,-3.3059,-3.2675,-3.2398,-3.2398,-3.2398,-3.2398,-3.2398,-3.2398,-3.2398,-3.2398,-3.2367,-3.1813,-3.0828,-3.0762,-3.0222,-2.8673,-2.7849,-2.7418,-2.7225,-2.6327,-2.5803,-2.6152,-2.5415,-2.4872,-2.4771,-2.4654,-2.428,-2.3573,-2.3736,-2.3773,-2.3516,-2.3792,-2.383,-2.3179,-2.3627,-2.3955,-2.3847,-2.3676,-2.3989,-2.4466,-2.3501,-2.3231,-2.4014,-2.4681,-2.4979,-2.5033,-2.5033,-2.5047,-2.5103,-2.5313,-2.5453,-2.5313,-2.4892,-2.4546,-2.4108,-2.3574,-2.3065,-2.2886,-2.2766,-2.2752,-2.2684,-2.2706,-2.2797,-2.2797,-2.2797,-2.2843,-2.2902,-2.2888,-2.2888,-2.2888,-2.2888,-2.2888,-2.2888,-2.2888,-2.2888,-2.2888,-2.2888,-2.2888,-2.2888,-2.2888,-2.2888,-4.1897,-4.095,-4.0899,-4.0054,-3.8734,-3.8379,-3.7158,-3.5557,-3.5813,-3.5537,-3.4718,-3.4653,-3.4104,-3.3303,-3.3612,-3.3314,-3.2655,-3.2425,-3.2398,-3.2398,-3.2398,-3.2705,-3.2921,-3.2628,-3.2644,-3.2952,-3.2598,-3.2398,-3.2398,-3.2644,-3.2736,-3.2659,-3.2767,-3.2705,-3.2598,-3.2521,-3.2413,-3.2398,-3.2398,-3.2425,-3.2425,-3.2425,-3.2398,-3.2398,-3.2425,-3.1994,-3.1116,-3.0423,-2.9867,-2.9181,-2.8091,-2.779,-2.8077,-2.7134,-2.6547,-2.659,-2.641,-2.5731,-2.515,-2.5259,-2.5139,-2.4508,-2.441,-2.4467,-2.4251,-2.4384,-2.4231,-2.3809,-2.3883,-2.4014,-2.3975,-2.3753,-2.4017,-2.4756,-2.4597,-2.4479,-2.4887,-2.4998,-2.5103,-2.5313,-2.5341,-2.5369,-2.5425,-2.5578,-2.5685,-2.5464,-2.5154,-2.4787,-2.4206,-2.3788,-2.3258,-2.2989,-2.2857,-2.2865,-2.2865,-2.2865,-2.2888,-2.2865,-2.2865,-2.2865,-2.2888,-2.2888,-2.2888,-2.2888,-2.2888,-2.2888,-2.2888,-2.2888,-2.2888,-2.2888,-2.2888,-2.2888,-2.2888,-2.2888,-2.2888,-4.1796,-4.073,-4.0747,-3.9901,-3.8616,-3.8396,-3.7499,-3.6405,-3.6575,-3.6148,-3.5371,-3.5416,-3.4903,-3.4007,-3.4428,-3.4075,-3.3145,-3.2815,-3.2734,-3.268,-3.252,-3.2598,-3.2798,-3.2536,-3.2613,-3.2875,-3.2598,-3.2428,-3.2459,-3.2659,-3.2813,-3.2875,-3.2813,-3.2857,-3.2987,-3.2604,-3.2508,-3.2594,-3.2621,-3.2621,-3.2605,-3.2605,-3.2605,-3.2621,-3.2605,-3.2296,-3.1506,-3.0359,-2.9537,-2.91,-2.8497,-2.828,-2.856,-2.8015,-2.7578,-2.7562,-2.7357,-2.6729,-2.5947,-2.5884,-2.5579,-2.5055,-2.4882,-2.5019,-2.5205,-2.5425,-2.5436,-2.4827,-2.497,-2.4839,-2.4463,-2.4474,-2.5145,-2.6036,-2.6224,-2.6112,-2.5923,-2.5573,-2.5495,-2.5619,-2.5674,-2.5674,-2.5674,-2.5907,-2.5785,-2.5488,-2.5177,-2.4677,-2.409,-2.3751,-2.3418,-2.3099,-2.3076,-2.3186,-2.3128,-2.3099,-2.296,-2.2931,-2.2888,-2.2888,-2.2888,-2.2888,-2.2888,-2.2888,-2.2888,-2.2888,-2.2888,-2.2888,-2.2888,-2.2888,-2.2888,-2.2888,-2.2888,-2.2888,-2.2888,-4.0815,-4.0214,-4.0138,-3.9285,-3.8278,-3.8684,-3.8099,-3.7083,-3.7341,-3.6844,-3.5874,-3.5933,-3.5512,-3.4835,-3.5043,-3.4809,-3.3935,-3.3443,-3.3313,-3.3119,-3.2815,-3.2609,-3.2636,-3.2499,-3.2444,-3.2521,-3.2459,-3.2475,-3.2582,-3.3029,-3.3275,-3.3165,-3.318,-3.3357,-3.3253,-3.2896,-3.2749,-3.2816,-3.2843,-3.2843,-3.2843,-3.2843,-3.2843,-3.2843,-3.2843,-3.2418,-3.1576,-3.0582,-2.9646,-2.8873,-2.8818,-2.8771,-2.8803,-2.8787,-2.867,-2.8537,-2.8121,-2.7633,-2.6853,-2.6246,-2.5866,-2.5329,-2.5175,-2.5397,-2.5952,-2.6393,-2.6283,-2.5655,-2.6345,-2.5691,-2.5072,-2.5695,-2.6361,-2.6901,-2.7384,-2.7295,-2.6776,-2.6228,-2.5961,-2.5988,-2.6002,-2.5948,-2.6015,-2.6037,-2.5993,-2.5228,-2.4883,-2.4303,-2.3867,-2.3606,-2.3287,-2.2975,-2.3171,-2.3534,-2.3432,-2.3316,-2.3142,-2.3004,-2.2917,-2.2888,-2.2888,-2.2888,-2.2888,-2.2888,-2.2888,-2.2888,-2.2888,-2.2888,-2.2888,-2.2888,-2.2888,-2.2888,-2.2888,-2.2888,-2.2888,-4.1119,-4.0916,-4.0341,-3.9572,-3.887,-3.8903,-3.8125,-3.6846,-3.6981,-3.6535,-3.5898,-3.6319,-3.5894,-3.4866,-3.5448,-3.5202,-3.4184,-3.3919,-3.3802,-3.3742,-3.3277,-3.3039,-3.2922,-3.2614,-3.241,-3.249,-3.2952,-3.2875,-3.2718,-3.3008,-3.3177,-3.286,-3.2903,-3.2881,-3.3018,-3.2967,-3.2843,-3.2912,-3.2912,-3.2924,-3.2939,-3.2939,-3.2924,-3.2924,-3.2897,-3.2295,-3.1418,-3.0927,-3.0183,-2.9344,-2.8936,-2.8889,-2.8912,-2.8975,-2.8817,-2.8572,-2.8667,-2.8059,-2.6709,-2.6604,-2.6546,-2.5835,-2.5724,-2.6072,-2.672,-2.6498,-2.6272,-2.5888,-2.5641,-2.5526,-2.5138,-2.5358,-2.6055,-2.6576,-2.6964,-2.7287,-2.7173,-2.6751,-2.6508,-2.6563,-2.6404,-2.6217,-2.6188,-2.5997,-2.568,-2.503,-2.4486,-2.3867,-2.3664,-2.3548,-2.3345,-2.3142,-2.336,-2.3659,-2.3258,-2.3171,-2.3099,-2.2989,-2.2931,-2.2888,-2.2888,-2.2888,-2.2888,-2.2888,-2.2888,-2.2888,-2.2888,-2.2888,-2.2888,-2.2888,-2.2888,-2.2888,-2.2888,-2.2888,-2.2888,-4.0493,-4.0104,-3.9377,-3.8853,-3.8447,-3.8108,-3.7523,-3.6897,-3.6812,-3.6349,-3.5904,-3.6434,-3.6161,-3.5285,-3.592,-3.5738,-3.4894,-3.448,-3.4219,-3.3944,-3.3511,-3.3277,-3.3214,-3.2873,-3.2621,-3.26,-3.2804,-3.2786,-3.2822,-3.2946,-3.3032,-3.2749,-3.2761,-3.2874,-3.2978,-3.302,-3.3016,-3.3085,-3.3112,-3.3069,-3.3085,-3.3096,-3.3085,-3.3069,-3.3022,-3.2479,-3.1256,-3.1114,-3.0352,-2.9462,-2.9045,-2.899,-2.899,-2.9075,-2.8893,-2.8735,-2.883,-2.8498,-2.7462,-2.6972,-2.6746,-2.6088,-2.6009,-2.6419,-2.6957,-2.6957,-2.702,-2.6925,-2.6693,-2.6298,-2.5598,-2.5979,-2.6288,-2.6539,-2.7063,-2.7659,-2.7953,-2.7485,-2.6959,-2.7023,-2.6788,-2.6618,-2.6431,-2.6203,-2.5836,-2.5429,-2.4843,-2.4283,-2.4181,-2.4027,-2.3722,-2.3577,-2.3717,-2.3659,-2.3142,-2.2931,-2.2946,-2.2917,-2.2902,-2.2888,-2.2888,-2.2888,-2.2888,-2.2888,-2.2888,-2.2888,-2.2888,-2.2888,-2.2888,-2.2888,-2.2888,-2.2888,-2.2888,-2.2888,-2.2888,-3.9511,-3.892,-3.8091,-3.7787,-3.777,-3.7144,-3.6971,-3.7005,-3.6734,-3.6248,-3.587,-3.6395,-3.6237,-3.6068,-3.6282,-3.6203,-3.5717,-3.5431,-3.5089,-3.4529,-3.4305,-3.3937,-3.3668,-3.3245,-3.292,-3.2703,-3.2896,-3.2948,-3.2921,-3.2979,-3.3135,-3.2986,-3.3096,-3.3146,-3.3159,-3.3264,-3.3318,-3.3287,-3.3256,-3.3256,-3.3256,-3.3266,-3.3256,-3.3256,-3.3224,-3.2688,-3.1719,-3.1356,-3.0819,-2.954,-2.9335,-2.9272,-2.9256,-2.913,-2.9114,-2.9082,-2.9098,-2.8679,-2.8,-2.7541,-2.7036,-2.634,-2.6372,-2.6735,-2.7415,-2.7731,-2.7715,-2.7668,-2.7367,-2.6893,-2.6214,-2.6535,-2.6914,-2.7156,-2.7668,-2.8316,-2.8606,-2.8079,-2.77,-2.7549,-2.7342,-2.7111,-2.6869,-2.6606,-2.6195,-2.5777,-2.5174,-2.4704,-2.4573,-2.4302,-2.392,-2.3688,-2.3717,-2.3572,-2.3099,-2.2888,-2.2888,-2.2888,-2.2888,-2.2888,-2.2888,-2.2888,-2.2888,-2.2888,-2.2888,-2.2888,-2.2888,-2.2888,-2.2888,-2.2888,-2.2888,-2.2888,-2.2888,-2.2888,-2.2888,-3.8856,-3.887,-3.7557,-3.7313,-3.7753,-3.7117,-3.7153,-3.7505,-3.652,-3.5992,-3.6029,-3.5987,-3.6486,-3.6593,-3.614,-3.5975,-3.6202,-3.6271,-3.6169,-3.57,-3.5528,-3.521,-3.4259,-3.3758,-3.3361,-3.3199,-3.338,-3.3439,-3.3236,-3.34,-3.3509,-3.3309,-3.3666,-3.3779,-3.3655,-3.374,-3.3756,-3.3467,-3.334,-3.3293,-3.3293,-3.3293,-3.3293,-3.3293,-3.3293,-3.2835,-3.2307,-3.2054,-3.1738,-3.0898,-3.0322,-3.0022,-2.9769,-2.9351,-2.9146,-2.9114,-2.9114,-2.8837,-2.8284,-2.8,-2.7857,-2.7762,-2.7604,-2.7936,-2.8379,-2.8347,-2.8079,-2.7525,-2.702,-2.6404,-2.6103,-2.6799,-2.7067,-2.7288,-2.7683,-2.8173,-2.8297,-2.8319,-2.8247,-2.8213,-2.7929,-2.755,-2.722,-2.6842,-2.6391,-2.5844,-2.5175,-2.4699,-2.4399,-2.4123,-2.3775,-2.363,-2.3572,-2.3331,-2.3041,-2.2931,-2.2888,-2.2888,-2.2888,-2.2888,-2.2888,-2.2888,-2.2888,-2.2888,-2.2888,-2.2888,-2.2888,-2.2888,-2.2888,-2.2888,-2.2888,-2.2888,-2.2888,-2.2888,-2.2888,-3.8298,-3.8625,-3.6996,-3.6903,-3.7591,-3.6814,-3.6809,-3.7353,-3.6786,-3.6746,-3.7063,-3.716,-3.7291,-3.7524,-3.7348,-3.7143,-3.7188,-3.7018,-3.6898,-3.6604,-3.6399,-3.5917,-3.4947,-3.4415,-3.4185,-3.4083,-3.4214,-3.4112,-3.3684,-3.3913,-3.4125,-3.4404,-3.4664,-3.4628,-3.4383,-3.4288,-3.4146,-3.3783,-3.3498,-3.3293,-3.3293,-3.3293,-3.3293,-3.3293,-3.3261,-3.2929,-3.2434,-3.2291,-3.1754,-3.0844,-3.0378,-3.0022,-2.9674,-2.9367,-2.9114,-2.9114,-2.9098,-2.8988,-2.8584,-2.8363,-2.8085,-2.8085,-2.8132,-2.8221,-2.8537,-2.8521,-2.8379,-2.8104,-2.7914,-2.744,-2.7209,-2.7431,-2.7573,-2.7668,-2.7936,-2.8252,-2.8523,-2.8708,-2.8764,-2.8693,-2.8207,-2.7775,-2.7415,-2.7001,-2.655,-2.5932,-2.5226,-2.4707,-2.4278,-2.3882,-2.3586,-2.3543,-2.3418,-2.3186,-2.2975,-2.2931,-2.2888,-2.2888,-2.2888,-2.2888,-2.2888,-2.2888,-2.2888,-2.2888,-2.2888,-2.2888,-2.2888,-2.2888,-2.2888,-2.2888,-2.2888,-2.2888,-2.2888,-2.2888,-2.2888,-3.7902,-3.8261,-3.662,-3.665,-3.7464,-3.6672,-3.6671,-3.7206,-3.7376,-3.7678,-3.8282,-3.83,-3.8351,-3.8545,-3.8528,-3.8425,-3.8185,-3.7512,-3.7295,-3.684,-3.6786,-3.6315,-3.5547,-3.5155,-3.484,-3.4617,-3.4667,-3.4652,-3.44,-3.4447,-3.4811,-3.5006,-3.5296,-3.5394,-3.5205,-3.4573,-3.4399,-3.4099,-3.3656,-3.3324,-3.3293,-3.3293,-3.3293,-3.3293,-3.3293,-3.304,-3.2613,-3.2576,-3.1991,-3.1153,-3.0552,-3.0117,-2.9461,-2.9193,-2.9114,-2.9114,-2.9114,-2.9114,-2.8972,-2.8672,-2.841,-2.8426,-2.8331,-2.8331,-2.8363,-2.8679,-2.8767,-2.8909,-2.8751,-2.8467,-2.7968,-2.8205,-2.8284,-2.83,-2.8347,-2.8489,-2.8846,-2.9036,-2.9013,-2.8803,-2.8391,-2.8167,-2.7966,-2.7507,-2.7122,-2.6261,-2.5574,-2.4693,-2.4236,-2.3702,-2.3403,-2.3389,-2.3287,-2.3055,-2.2902,-2.2917,-2.2888,-2.2888,-2.2888,-2.2888,-2.2888,-2.2888,-2.2888,-2.2888,-2.2888,-2.2888,-2.2888,-2.2888,-2.2888,-2.2888,-2.2888,-2.2888,-2.2888,-2.2888,-2.2888,-3.7794,-3.7756,-3.6863,-3.6784,-3.7183,-3.7035,-3.7438,-3.8191,-3.8254,-3.8362,-3.8734,-3.8562,-3.8923,-3.9371,-3.9457,-3.8773,-3.8153,-3.8062,-3.7644,-3.6848,-3.7024,-3.6671,-3.574,-3.5549,-3.5299,-3.5075,-3.4934,-3.4778,-3.4849,-3.4982,-3.5088,-3.5305,-3.5545,-3.5458,-3.56,-3.4873,-3.432,-3.4221,-3.3656,-3.3293,-3.3293,-3.3293,-3.3293,-3.3293,-3.3293,-3.3182,-3.2961,-3.2866,-3.2497,-3.1833,-3.1255,-3.0733,-3.0101,-2.943,-2.9177,-2.9114,-2.9114,-2.9114,-2.9082,-2.894,-2.8861,-2.8846,-2.8893,-2.8956,-2.883,-2.8537,-2.8458,-2.8205,-2.83,-2.8363,-2.8379,-2.864,-2.8877,-2.8909,-2.8846,-2.8893,-2.9114,-2.9114,-2.9114,-2.9091,-2.8732,-2.8803,-2.8764,-2.8232,-2.7656,-2.6742,-2.5838,-2.4957,-2.4241,-2.3728,-2.3244,-2.32,-2.3186,-2.296,-2.2888,-2.2888,-2.2888,-2.2888,-2.2888,-2.2888,-2.2888,-2.2888,-2.2888,-2.2888,-2.2888,-2.2888,-2.2888,-2.2888,-2.2888,-2.2888,-2.2888,-2.2888,-2.2888,-2.2888,-2.2888,-3.8364,-3.8312,-3.7141,-3.7214,-3.7961,-3.7536,-3.799,-3.8917,-3.9124,-3.9434,-3.9819,-3.9847,-4.0054,-4.0233,-3.9939,-3.937,-3.8819,-3.8612,-3.8025,-3.7133,-3.7198,-3.6917,-3.6204,-3.5985,-3.5793,-3.5683,-3.5638,-3.571,-3.5655,-3.561,-3.5731,-3.6195,-3.6355,-3.6545,-3.6267,-3.5438,-3.5047,-3.4636,-3.3957,-3.334,-3.3293,-3.3293,-3.3293,-3.3293,-3.3293,-3.3119,-3.2876,-3.2734,-3.2149,-3.1358,-3.0717,-3.0322,-2.9722,-2.9272,-2.9114,-2.9114,-2.9114,-2.9114,-2.9114,-2.9114,-2.9114,-2.9114,-2.9114,-2.9082,-2.9019,-2.8846,-2.8663,-2.8711,-2.8695,-2.8663,-2.8647,-2.8925,-2.9035,-2.9114,-2.9114,-2.9114,-2.9114,-2.9114,-2.9114,-2.9114,-2.9098,-2.9067,-2.8817,-2.7976,-2.7095,-2.6039,-2.536,-2.4734,-2.4215,-2.3865,-2.3389,-2.2975,-2.296,-2.2902,-2.2888,-2.2888,-2.2888,-2.2888,-2.2888,-2.2888,-2.2888,-2.2888,-2.2888,-2.2888,-2.2888,-2.2888,-2.2888,-2.2888,-2.2888,-2.2888,-2.2888,-2.2888,-2.2888,-2.2888,-2.2888,-3.9015,-3.9371,-3.7964,-3.785,-3.8572,-3.813,-3.858,-3.9537,-3.9635,-3.9991,-4.048,-4.0509,-4.0595,-4.0705,-4.006,-3.9508,-3.9284,-3.8646,-3.7905,-3.7404,-3.7111,-3.6818,-3.6396,-3.6241,-3.6241,-3.6284,-3.6156,-3.6156,-3.6139,-3.6146,-3.6322,-3.7049,-3.6878,-3.7116,-3.6937,-3.6023,-3.517,-3.476,-3.4152,-3.3726,-3.3581,-3.3529,-3.3424,-3.3346,-3.3245,-3.3056,-3.2623,-3.2355,-3.1675,-3.0868,-3.0378,-2.9975,-2.9304,-2.9161,-2.9114,-2.9137,-2.9183,-2.9236,-2.9213,-2.9183,-2.9137,-2.9114,-2.9114,-2.9114,-2.9114,-2.9114,-2.9114,-2.9035,-2.9035,-2.9067,-2.9114,-2.9098,-2.9114,-2.9114,-2.9114,-2.9114,-2.9114,-2.9114,-2.9114,-2.9114,-2.9051,-2.8893,-2.8465,-2.752,-2.6497,-2.5364,-2.4743,-2.4417,-2.4168,-2.3955,-2.3551,-2.3107,-2.3252,-2.3151,-2.2888,-2.2888,-2.2888,-2.2888,-2.2888,-2.2888,-2.2888,-2.2888,-2.2888,-2.2888,-2.2888,-2.2888,-2.2888,-2.2888,-2.2888,-2.2888,-2.2888,-2.2888,-2.2888,-2.2888,-2.2888,-3.9591,-4.0846,-3.9582,-3.8722,-3.8286,-3.8915,-3.9325,-3.9727,-3.9721,-3.9756,-3.9871,-3.9853,-4.029,-4.0532,-4.0135,-3.9457,-3.8732,-3.7905,-3.7422,-3.6887,-3.6387,-3.6594,-3.649,-3.6456,-3.6353,-3.6284,-3.6284,-3.6284,-3.628,-3.6255,-3.639,-3.6649,-3.6854,-3.7062,-3.6805,-3.6039,-3.5037,-3.4709,-3.4398,-3.4333,-3.4102,-3.3935,-3.3726,-3.3381,-3.3298,-3.3245,-3.3177,-3.253,-3.1817,-3.0943,-3.0521,-3.0051,-2.9507,-2.9396,-2.9403,-2.9373,-2.9448,-2.9515,-2.9448,-2.9289,-2.9144,-2.9137,-2.916,-2.9206,-2.9183,-2.9137,-2.9114,-2.9114,-2.9114,-2.9114,-2.9114,-2.9114,-2.9183,-2.9137,-2.9137,-2.9144,-2.9121,-2.9114,-2.9114,-2.9114,-2.9051,-2.8925,-2.8555,-2.7742,-2.6717,-2.5611,-2.504,-2.4723,-2.4313,-2.4045,-2.3681,-2.3445,-2.367,-2.3493,-2.2983,-2.2888,-2.2888,-2.2888,-2.2888,-2.2888,-2.2888,-2.2888,-2.2888,-2.2888,-2.2888,-2.2888,-2.2888,-2.2888,-2.2888,-2.2888,-2.2888,-2.2888,-2.2888,-2.2888,-2.2888,-3.904,-3.9609,-3.9662,-3.962,-3.9475,-3.9046,-3.9324,-3.9992,-4.0053,-3.9931,-3.9698,-3.9715,-3.9894,-4.0112,-4.0474,-3.9991,-3.9319,-3.9043,-3.8318,-3.7944,-3.7737,-3.7439,-3.7249,-3.6926,-3.6818,-3.6404,-3.6284,-3.6284,-3.6284,-3.6284,-3.6324,-3.6473,-3.6656,-3.6837,-3.6585,-3.6129,-3.5309,-3.4766,-3.4714,-3.469,-3.4519,-3.4037,-3.3737,-3.3592,-3.2934,-3.2593,-3.221,-3.195,-3.1421,-3.0949,-3.0603,-3.0255,-3.0006,-3.0006,-2.9903,-2.9788,-2.9859,-2.9853,-2.97,-2.9566,-2.9522,-2.9522,-2.9538,-2.9493,-2.9373,-2.9335,-2.9236,-2.9183,-2.9137,-2.9183,-2.9137,-2.9236,-2.9312,-2.9213,-2.919,-2.922,-2.922,-2.9213,-2.9229,-2.9259,-2.9152,-2.9035,-2.8602,-2.8077,-2.7014,-2.5992,-2.5501,-2.5001,-2.4559,-2.4227,-2.3898,-2.3587,-2.3739,-2.3583,-2.3064,-2.2939,-2.2888,-2.2888,-2.2888,-2.2888,-2.2888,-2.2888,-2.2888,-2.2888,-2.2888,-2.2888,-2.2888,-2.2888,-2.2888,-2.2888,-2.2888,-2.2888,-2.2888,-2.2888,-2.2888,-3.8982,-3.9405,-3.9515,-3.9727,-3.9895,-3.9175,-3.9365,-4.0147,-4.003,-3.9918,-3.9687,-3.9531,-3.9508,-3.9802,-4.0187,-4.0233,-3.9629,-3.9319,-3.8991,-3.8663,-3.8387,-3.8129,-3.7737,-3.7374,-3.7029,-3.6473,-3.6284,-3.6284,-3.6284,-3.6284,-3.6314,-3.6341,-3.6454,-3.6622,-3.6677,-3.6363,-3.5738,-3.5211,-3.5191,-3.4914,-3.4708,-3.4222,-3.3541,-3.3367,-3.2764,-3.2451,-3.2039,-3.1775,-3.1417,-3.1052,-3.0767,-3.0593,-3.0563,-3.0543,-3.046,-3.0314,-3.0204,-3.014,-3.0006,-2.9832,-2.9793,-2.9744,-2.9728,-2.9677,-2.9649,-2.9589,-2.9499,-2.9403,-2.9335,-2.9289,-2.9305,-2.9493,-2.9544,-2.9454,-2.9515,-2.9522,-2.947,-2.9448,-2.9403,-2.9403,-2.9319,-2.9325,-2.9023,-2.8554,-2.7523,-2.6408,-2.5485,-2.5039,-2.4649,-2.4392,-2.4263,-2.3935,-2.3728,-2.3462,-2.3101,-2.2968,-2.2888,-2.2888,-2.2888,-2.2888,-2.2888,-2.2888,-2.2888,-2.2888,-2.2888,-2.2888,-2.2888,-2.2888,-2.2888,-2.2888,-2.2888,-2.2888,-2.2888,-2.2888,-2.2888,-3.957,-4.0783,-3.9386,-3.8962,-3.926,-3.9278,-3.9637,-4.0063,-3.9512,-3.9377,-3.9485,-3.8962,-3.906,-3.956,-3.9871,-3.9802,-3.9681,-3.9181,-3.887,-3.8836,-3.8801,-3.8254,-3.7858,-3.7547,-3.734,-3.6525,-3.6559,-3.6697,-3.6508,-3.6508,-3.6456,-3.6301,-3.6346,-3.6317,-3.6574,-3.6595,-3.6219,-3.5757,-3.5985,-3.536,-3.474,-3.4276,-3.3525,-3.2999,-3.2545,-3.2288,-3.2168,-3.1863,-3.1607,-3.1456,-3.1133,-3.0925,-3.071,-3.067,-3.0506,-3.0187,-3.0284,-3.0316,-3.0231,-3.0,-2.9946,-2.9924,-2.9962,-2.9881,-2.9832,-2.981,-2.975,-2.9633,-2.9677,-2.9683,-2.9728,-2.9788,-2.9766,-2.9722,-2.9744,-2.9744,-2.9677,-2.9633,-2.9589,-2.9566,-2.9677,-2.9717,-2.9491,-2.9049,-2.8045,-2.6904,-2.5711,-2.509,-2.4836,-2.4912,-2.4912,-2.4246,-2.3933,-2.3507,-2.3204,-2.2991,-2.2888,-2.2888,-2.2888,-2.2888,-2.2888,-2.2888,-2.2888,-2.2888,-2.2888,-2.2888,-2.2888,-2.2888,-2.2888,-2.2888,-2.2888,-2.2888,-2.2888,-2.2888,-2.2888,-3.9004,-3.946,-3.8927,-3.8758,-3.894,-3.9483,-3.9675,-3.9438,-3.8863,-3.8645,-3.8787,-3.818,-3.8594,-3.9376,-3.9733,-3.9733,-3.9721,-4.0233,-3.9991,-3.9301,-3.9238,-3.8853,-3.8387,-3.803,-3.7754,-3.7426,-3.7461,-3.7629,-3.787,-3.718,-3.7025,-3.6973,-3.6094,-3.5924,-3.626,-3.6405,-3.6221,-3.602,-3.5786,-3.5304,-3.4837,-3.399,-3.3245,-3.2818,-3.2389,-3.2205,-3.2244,-3.1978,-3.1929,-3.1895,-3.1615,-3.1545,-3.1452,-3.147,-3.1432,-3.1203,-3.1278,-3.1237,-3.1137,-3.0942,-3.072,-3.0452,-3.0258,-3.0177,-3.0087,-3.0081,-2.9979,-2.9859,-2.9859,-2.9837,-2.9772,-2.9979,-3.0,-2.9853,-2.9853,-2.9875,-2.9832,-2.9788,-2.9728,-2.9705,-2.9772,-2.9789,-2.9648,-2.9258,-2.8372,-2.7751,-2.6688,-2.5779,-2.5373,-2.5777,-2.5933,-2.4837,-2.4175,-2.3725,-2.3345,-2.3043,-2.2888,-2.2888,-2.2888,-2.2888,-2.2888,-2.2888,-2.2888,-2.2888,-2.2888,-2.2888,-2.2888,-2.2888,-2.2888,-2.2888,-2.2888,-2.2888,-2.2888,-2.2888,-2.2888,-3.8508,-3.8765,-3.8765,-3.8765,-3.8839,-3.9289,-3.9345,-3.9066,-3.8433,-3.8224,-3.8321,-3.8031,-3.8358,-3.925,-3.9853,-3.9882,-3.9848,-4.017,-4.0089,-3.9451,-3.9307,-3.8738,-3.837,-3.8392,-3.7784,-3.765,-3.7771,-3.8025,-3.7491,-3.7232,-3.6818,-3.6305,-3.5756,-3.5428,-3.5597,-3.5645,-3.6035,-3.5935,-3.5718,-3.5137,-3.4547,-3.379,-3.2965,-3.2656,-3.2311,-3.2035,-3.209,-3.2126,-3.2126,-3.2161,-3.2196,-3.2197,-3.2196,-3.2144,-3.2073,-3.1857,-3.1747,-3.1635,-3.1502,-3.1271,-3.0958,-3.0733,-3.0692,-3.0547,-3.038,-3.0316,-3.0231,-3.013,-3.0049,-3.0027,-3.0049,-3.0274,-3.0194,-3.007,-3.007,-3.0113,-3.0092,-3.0049,-3.0027,-3.0006,-2.9989,-2.9924,-2.9685,-2.927,-2.8678,-2.8221,-2.7691,-2.6737,-2.5725,-2.5824,-2.593,-2.4925,-2.4046,-2.3541,-2.3183,-2.2991,-2.2888,-2.2888,-2.291,-2.2933,-2.2888,-2.2888,-2.2888,-2.2888,-2.2888,-2.2888,-2.2888,-2.2888,-2.2888,-2.2888,-2.2888,-2.2888,-2.2888,-2.2888,-2.2888,-3.8135,-3.8836,-3.8855,-3.8803,-3.8881,-3.8839,-3.894,-3.9137,-3.842,-3.8154,-3.8213,-3.8443,-3.8624,-3.8967,-4.0107,-4.0135,-3.9737,-3.9686,-3.9311,-3.8901,-3.8688,-3.8143,-3.8035,-3.8121,-3.7707,-3.7185,-3.7254,-3.781,-3.665,-3.683,-3.6433,-3.5604,-3.5477,-3.5082,-3.4923,-3.516,-3.5586,-3.5607,-3.5163,-3.4614,-3.4044,-3.3423,-3.2767,-3.2403,-3.2143,-3.2108,-3.2161,-3.2214,-3.2214,-3.2249,-3.2301,-3.2179,-3.2055,-3.1948,-3.1765,-3.1635,-3.1617,-3.1653,-3.1634,-3.1445,-3.1254,-3.1137,-3.1095,-3.0875,-3.0589,-3.0443,-3.0401,-3.0384,-3.0342,-3.0405,-3.0447,-3.0447,-3.0426,-3.0405,-3.0405,-3.0426,-3.0426,-3.0405,-3.0405,-3.0384,-3.0384,-3.0186,-2.9605,-2.9147,-2.854,-2.7846,-2.7221,-2.6477,-2.552,-2.4775,-2.4748,-2.4288,-2.3576,-2.3223,-2.3,-2.3023,-2.3023,-2.3031,-2.3023,-2.3023,-2.2955,-2.2933,-2.2978,-2.2978,-2.291,-2.2888,-2.2888,-2.2888,-2.2888,-2.2888,-2.2888,-2.2888,-2.2888,-2.2888,-2.2902,-3.7654,-3.8762,-3.7691,-3.7825,-3.8803,-3.8866,-3.9077,-3.9286,-3.8612,-3.851,-3.9053,-3.8016,-3.8423,-3.9624,-3.9011,-3.8721,-3.8721,-3.8773,-3.8599,-3.83,-3.8018,-3.7819,-3.7802,-3.7836,-3.7568,-3.7595,-3.7785,-3.807,-3.7936,-3.7598,-3.644,-3.5647,-3.5213,-3.4816,-3.4695,-3.5005,-3.502,-3.4861,-3.4328,-3.4017,-3.3497,-3.2891,-3.244,-3.2249,-3.2196,-3.2214,-3.2284,-3.2319,-3.2336,-3.2354,-3.2388,-3.2319,-3.2284,-3.2249,-3.2179,-3.2161,-3.2143,-3.2143,-3.2126,-3.2036,-3.1838,-3.1581,-3.1562,-3.114,-3.0781,-3.0551,-3.0551,-3.0572,-3.0551,-3.0589,-3.051,-3.0489,-3.0489,-3.0489,-3.0489,-3.0489,-3.0489,-3.0489,-3.0489,-3.0456,-3.0456,-2.9959,-2.94,-2.8751,-2.8111,-2.7352,-2.6693,-2.6072,-2.5472,-2.4769,-2.4266,-2.39,-2.3724,-2.3545,-2.3297,-2.3231,-2.3209,-2.3187,-2.3142,-2.312,-2.3142,-2.312,-2.3098,-2.3068,-2.3023,-2.2955,-2.2888,-2.291,-2.2933,-2.2888,-2.2888,-2.2888,-2.2888,-2.2888,-2.2888,-3.685,-3.7813,-3.6998,-3.7165,-3.7979,-3.8368,-3.8641,-3.8756,-3.846,-3.861,-3.8903,-3.8272,-3.8523,-3.9315,-3.8886,-3.8488,-3.8231,-3.8297,-3.8073,-3.7561,-3.7439,-3.7287,-3.7318,-3.7526,-3.7467,-3.765,-3.7823,-3.7987,-3.7957,-3.7179,-3.6055,-3.4594,-3.4633,-3.4234,-3.3816,-3.3748,-3.3854,-3.3801,-3.3644,-3.3503,-3.3103,-3.2563,-3.2354,-3.2284,-3.2301,-3.2336,-3.2388,-3.2406,-3.2406,-3.2406,-3.2406,-3.2406,-3.2406,-3.2406,-3.2388,-3.2371,-3.2354,-3.2354,-3.2301,-3.2196,-3.2055,-3.193,-3.1803,-3.1449,-3.1179,-3.0998,-3.0878,-3.0794,-3.0733,-3.0671,-3.0589,-3.0489,-3.0489,-3.0489,-3.0489,-3.0489,-3.0489,-3.0489,-3.0472,-3.0439,-3.0125,-2.9648,-2.9069,-2.8426,-2.7711,-2.6945,-2.6495,-2.62,-2.5678,-2.5139,-2.4684,-2.4343,-2.4214,-2.4069,-2.3809,-2.3545,-2.348,-2.3392,-2.3253,-2.3253,-2.3282,-2.3275,-2.3231,-2.3164,-2.3135,-2.3068,-2.3,-2.2978,-2.2978,-2.2955,-2.2933,-2.291,-2.291,-2.2888,-2.2888,-3.5937,-3.676,-3.6718,-3.6668,-3.6723,-3.7466,-3.7806,-3.7835,-3.8003,-3.8232,-3.8374,-3.8613,-3.8636,-3.8831,-3.8623,-3.8564,-3.8277,-3.8115,-3.7622,-3.6853,-3.7048,-3.6881,-3.6673,-3.7227,-3.7085,-3.705,-3.7206,-3.7502,-3.6754,-3.6168,-3.5266,-3.338,-3.3681,-3.3508,-3.2826,-3.3457,-3.3545,-3.2985,-3.3614,-3.3997,-3.3228,-3.2722,-3.2406,-3.2388,-3.2388,-3.2406,-3.2406,-3.2406,-3.2406,-3.2406,-3.2406,-3.2406,-3.2406,-3.2406,-3.2406,-3.2406,-3.2406,-3.2406,-3.2371,-3.2214,-3.209,-3.193,-3.1728,-3.1635,-3.1504,-3.1215,-3.1035,-3.0895,-3.0814,-3.0651,-3.0547,-3.0489,-3.0489,-3.0489,-3.0489,-3.0489,-3.0489,-3.0489,-3.0489,-3.0357,-2.9963,-2.9433,-2.8738,-2.8094,-2.7381,-2.6566,-2.6234,-2.6097,-2.5901,-2.5441,-2.5157,-2.4827,-2.4748,-2.4608,-2.4297,-2.4027,-2.3809,-2.3659,-2.348,-2.3348,-2.3414,-2.337,-2.3319,-2.3275,-2.3231,-2.3201,-2.3135,-2.3112,-2.309,-2.3045,-2.3015,-2.297,-2.2947,-2.2933,-2.291,-3.538,-3.6686,-3.6718,-3.6383,-3.5919,-3.6662,-3.6983,-3.6983,-3.7057,-3.7591,-3.8245,-3.8011,-3.7942,-3.8178,-3.7932,-3.788,-3.8079,-3.7828,-3.7363,-3.6948,-3.6871,-3.6215,-3.5644,-3.6516,-3.6512,-3.6327,-3.6466,-3.6823,-3.6317,-3.5762,-3.5262,-3.4351,-3.4125,-3.344,-3.2529,-3.3459,-3.3757,-3.2616,-3.3459,-3.3721,-3.2827,-3.2599,-3.2406,-3.2406,-3.2406,-3.2406,-3.2406,-3.2406,-3.2406,-3.2406,-3.2406,-3.2406,-3.2406,-3.2406,-3.2406,-3.2406,-3.2406,-3.2406,-3.2388,-3.2301,-3.2249,-3.2267,-3.2143,-3.2019,-3.1765,-3.1387,-3.1095,-3.0975,-3.0834,-3.0671,-3.0547,-3.051,-3.0489,-3.0489,-3.0472,-3.0472,-3.0472,-3.0423,-3.0439,-3.0075,-2.9698,-2.9069,-2.8376,-2.7713,-2.7015,-2.6568,-2.6301,-2.6151,-2.6151,-2.5864,-2.5663,-2.5403,-2.5313,-2.5125,-2.4748,-2.4359,-2.4084,-2.3973,-2.3846,-2.3696,-2.3545,-2.348,-2.3429,-2.3407,-2.3363,-2.3319,-2.329,-2.3268,-2.3223,-2.3157,-2.3135,-2.309,-2.3068,-2.3045,-2.2978,-3.4736,-3.5566,-3.559,-3.5343,-3.5107,-3.5807,-3.6179,-3.6235,-3.6551,-3.6872,-3.7261,-3.745,-3.757,-3.7689,-3.7484,-3.7293,-3.7629,-3.7391,-3.6809,-3.6468,-3.6451,-3.5733,-3.5674,-3.5827,-3.5684,-3.5537,-3.5572,-3.5698,-3.554,-3.4964,-3.4336,-3.388,-3.367,-3.3371,-3.2599,-3.3634,-3.3845,-3.2511,-3.3424,-3.3178,-3.2423,-3.2406,-3.2406,-3.2406,-3.2406,-3.2406,-3.2406,-3.2406,-3.2406,-3.2406,-3.2406,-3.2406,-3.2406,-3.2406,-3.2406,-3.2406,-3.2406,-3.2406,-3.2406,-3.2406,-3.2406,-3.2423,-3.2406,-3.2179,-3.2126,-3.1746,-3.131,-3.1157,-3.0975,-3.0814,-3.0589,-3.0489,-3.0489,-3.0489,-3.0423,-3.0373,-3.0108,-2.9877,-2.9632,-2.9201,-2.8754,-2.821,-2.758,-2.7131,-2.6551,-2.6435,-2.6202,-2.6185,-2.6185,-2.6185,-2.6008,-2.5828,-2.5631,-2.5332,-2.4867,-2.4522,-2.4245,-2.4162,-2.4141,-2.3846,-2.3588,-2.3566,-2.3538,-2.3494,-2.3458,-2.3451,-2.3407,-2.3385,-2.3319,-2.3253,-2.3253,-2.3268,-2.3223,-2.3164,-2.312,-3.4234,-3.4216,-3.4234,-3.4234,-3.4309,-3.5008,-3.5324,-3.5454,-3.6036,-3.5956,-3.5658,-3.6901,-3.7039,-3.7168,-3.7681,-3.7409,-3.7353,-3.7576,-3.6823,-3.6096,-3.627,-3.5311,-3.5026,-3.5248,-3.5212,-3.5055,-3.4932,-3.4564,-3.4231,-3.3898,-3.3494,-3.2669,-3.2441,-3.2423,-3.2423,-3.2564,-3.2616,-3.2546,-3.2792,-3.2669,-3.2476,-3.2406,-3.2406,-3.2406,-3.2406,-3.2406,-3.2406,-3.2406,-3.2406,-3.2423,-3.2422,-3.2457,-3.2491,-3.2508,-3.2491,-3.2491,-3.2474,-3.2457,-3.244,-3.2422,-3.2422,-3.244,-3.2423,-3.2354,-3.2284,-3.2019,-3.1579,-3.1332,-3.1154,-3.0995,-3.0757,-3.0551,-3.0551,-3.0464,-3.0381,-3.0274,-2.9893,-2.9516,-2.9069,-2.8605,-2.8127,-2.7597,-2.7083,-2.6617,-2.6369,-2.6219,-2.6185,-2.6185,-2.6185,-2.6185,-2.6115,-2.5901,-2.5703,-2.5368,-2.5118,-2.4918,-2.4679,-2.4374,-2.4297,-2.3937,-2.3653,-2.3588,-2.3566,-2.3588,-2.3566,-2.3523,-2.3501,-2.3494,-2.3429,-2.3348,-2.3392,-2.3392,-2.3341,-2.3297,-2.326,-3.4216,-3.4216,-3.4216,-3.4216,-3.4234,-3.4414,-3.4457,-3.4476,-3.4624,-3.455,-3.4791,-3.538,-3.5807,-3.5789,-3.6642,-3.6911,-3.722,-3.7533,-3.6973,-3.6118,-3.6482,-3.5153,-3.4288,-3.4765,-3.5111,-3.4884,-3.4552,-3.455,-3.3935,-3.3618,-3.3442,-3.3213,-3.2563,-3.2476,-3.2528,-3.2669,-3.288,-3.2687,-3.2757,-3.288,-3.2476,-3.2423,-3.2406,-3.2406,-3.2406,-3.2406,-3.2406,-3.2406,-3.2406,-3.2422,-3.2507,-3.2557,-3.2607,-3.2657,-3.2674,-3.2625,-3.259,-3.2574,-3.2557,-3.2507,-3.2525,-3.2557,-3.2506,-3.2353,-3.2249,-3.2091,-3.1784,-3.1596,-3.1445,-3.1387,-3.1157,-3.0878,-3.0777,-3.0512,-3.0375,-3.0253,-3.0009,-2.9612,-2.9218,-2.8804,-2.8392,-2.7779,-2.7116,-2.6684,-2.6268,-2.6185,-2.6185,-2.6185,-2.6185,-2.6185,-2.6185,-2.6008,-2.5793,-2.5901,-2.5862,-2.5589,-2.5323,-2.4902,-2.4486,-2.4194,-2.3915,-2.3616,-2.3595,-2.3595,-2.3595,-2.3551,-2.3566,-2.3581,-2.3545,-2.3501,-2.353,-2.353,-2.348,-2.3414,-2.3392]},{"header":{"parameterUnit":"m.s-1","parameterCategory":1,"la1":31.0,"la2":29.5877,"lo1":-88.7671,"lo2":-86.6584,"dy":0.0162,"dx":0.0185,"nx":115,"ny":88,"refTime":"2023-09-06T00:00:00:Z","depth":0,"parameterNumber":3,"parameterNumberName":"V-component_of_WINDS"},"data":[0.0,0.0,0.0,0.0,0.0,0.0,0.0,0.0,0.0,0.0,0.0,0.0,0.0,0.0,0.0,0.0,0.0,0.0,0.0,0.0,0.0,0.0,0.0,0.0,0.0,0.0,0.0,0.0,0.0,0.0,0.0,0.0,0.0,0.0,0.0,0.0,0.0,0.0,0.0,0.0,0.0,0.0,0.0,0.0,0.0,0.0,0.0,0.0,0.0,0.0,0.0,0.0,0.0,0.0,0.0,0.0,0.0,0.0,0.0,0.0,0.0,0.0,0.0,0.0,0.0,0.0,0.0,0.0,0.0,0.0,0.0,0.0,0.0,0.0,0.0,0.0,0.0,0.0,0.0,0.0,0.0,0.0,0.0,0.0,0.0,0.0,0.0,0.0,0.0,0.0,0.0,0.0,0.0,0.0,0.0,0.0,0.0,0.0,0.0,0.0,0.0,0.0,0.0,0.0,0.0,0.0,0.0,0.0,0.0,0.0,0.0,0.0,0.0,0.0,0.0,0.0,0.0,0.0,0.0,0.0,0.0,0.0,0.0,0.0,0.0,0.0,0.0,0.0,0.0,0.0,0.0,0.0,0.0,0.0,0.0,0.0,0.0,0.0,0.0,0.0,0.0,0.0,0.0,0.0,0.0,0.0,0.0,0.0,0.0,0.0,0.0,0.0,0.0,0.0,0.0,0.0,0.0,0.0,0.0,0.0,0.0,0.0,0.0,0.0,0.0,0.0,0.0,0.0,0.0,0.0,0.0,0.0,0.0,0.0,0.0,0.0,0.0,0.0,0.0,0.0,0.0,0.0,0.0,0.0,0.0,0.0,0.0,0.0,0.0,0.0,0.0,0.0,0.0,0.0,0.0,0.0,0.0,0.0,0.0,0.0,0.0,0.0,0.0,0.0,0.0,0.0,0.0,0.0,0.0,0.0,0.0,0.0,0.0,0.0,0.0,0.0,0.0,0.0,0.0,0.0,0.0,0.0,0.0,0.0,0.0,0.0,0.0,0.0,0.0,0.0,0.0,0.0,0.0,0.0,0.0,0.0,0.0,0.0,0.0,0.0,0.0,0.0,0.0,0.0,0.0,0.0,0.0,0.0,0.0,0.0,0.0,0.0,0.0,0.0,0.0,0.0,0.0,0.0,0.0,0.0,0.0,0.0,0.0,0.0,0.0,0.0,0.0,0.0,0.0,0.0,0.0,0.0,0.0,0.0,0.0,0.0,0.0,0.0,0.0,0.0,0.0,0.0,0.0,0.0,0.0,0.0,0.0,0.0,0.0,0.0,0.0,0.0,0.0,0.0,0.0,0.0,0.0,0.0,0.0,0.0,0.0,0.0,0.0,0.0,0.0,0.0,0.0,0.0,0.0,0.0,0.0,0.0,0.0,0.0,0.0,0.0,0.0,0.0,0.0,0.0,0.0,0.0,0.0,0.0,0.0,0.0,0.0,0.0,0.0,0.0,0.0,0.0,0.0,0.0,0.0,0.0,0.0,0.0,0.0,0.0,0.0,0.0,0.0,0.0,0.0,0.0,0.0,0.0,0.0,0.0,0.0,0.0,0.0,0.0,0.0,0.0,0.0,0.0,0.0,0.0,0.0,0.0,0.0,0.0,0.0,0.0,0.0,0.0,0.0,0.0,0.0,0.0,0.0,0.0,0.0,0.0,0.0,0.0,0.0,0.0,0.0,0.0,0.0,0.0,0.0,0.0,0.0,0.0,0.0,0.0,0.0,0.0,0.0,0.0,0.0,0.0,0.0,0.0,0.0,0.0,0.0,0.0,0.0,0.0,0.0,0.0,0.0,0.0,0.0,0.0,0.0,0.0,0.0,0.0,0.0,0.0,0.0,0.0,0.0,0.0,0.0,0.0,0.0,0.0,0.0,0.0,0.0,0.0,0.0,0.0,0.0,0.0,0.0,0.0,0.0,0.0,0.0,0.0,0.0,0.0,0.0,0.0,0.0,0.0,0.0,0.0,0.0,0.0,0.0,0.0,0.0,0.0,0.0,0.0,0.0,0.0,0.0,0.0,0.0,0.0,0.0,0.0,0.0,0.0,0.0,0.0,0.0,0.0,0.0,0.0,0.0,0.0,0.0,0.0,0.0,0.0,0.0,0.0,0.0,0.0,0.0,0.0,0.0,0.0,0.0,0.0,0.0,0.0,0.0,0.0,0.0,0.0,0.0,0.0,0.0,0.0,0.0,0.0,0.0,0.0,0.0,0.0,0.0,0.0,0.0,0.0,0.0,0.0,0.0,0.0,0.0,0.0,0.0,0.0,0.0,0.0,0.0,0.0,0.0,0.0,0.0,0.0,0.0,0.0,0.0,0.0,0.0,0.0,0.0,0.0,0.0,0.0,0.0,0.0,0.0,0.0,0.0,0.0,0.0,0.0,0.0,0.0,0.0,0.0,0.0,0.0,0.0,0.0,0.0,0.0,0.0,0.0,0.0,0.0,0.0,0.0,0.0,0.0,0.0,0.0,0.0,0.0,0.0,0.0,0.0,0.0,0.0,0.0,0.0,0.0,0.0,0.0,0.0,0.0,0.0,0.0,0.0,0.0,0.0,0.0,0.0,0.0,0.0,0.0,0.0,0.0,0.0,0.0,0.0,0.0,0.0,0.0,0.0,0.0,0.0,0.0,0.0,0.0,0.0,0.0,0.0,0.0,0.0,0.0,0.0,0.0,0.0,0.0,0.0,0.0,0.0,0.0,0.0,0.0,0.0,0.0,0.0,0.0,0.0,0.0,0.0,0.0,0.0,0.0,0.0,0.0,0.0,0.0,0.0,0.0,0.0,0.0,0.0,0.0,0.0,0.0,0.0,0.0,0.0,0.0,0.0,0.0,0.0,0.0,0.0,0.0,0.0,0.0,0.0,0.0,0.0,0.0,0.0,0.0,0.0,0.0,0.0,0.0,0.0,0.0,0.0,0.0,0.0,0.0,0.0,0.0,0.0,0.0,0.0,0.0,0.0,0.0,0.0,0.0,0.0,0.0,0.0,0.0,0.0,0.0,0.0,0.0,0.0,0.0,0.0,0.0,0.0,0.0,0.0,0.0,0.0,0.0,0.0,0.0,0.0,0.0,0.0,0.0,0.0,0.0,0.0,0.0,0.0,0.0,0.0,0.0,0.0,0.0,0.0,0.0,0.0,0.0,0.0,0.0,0.0,0.0,0.0,0.0,0.0,0.0,0.0,0.0,0.0,0.0,0.0,0.0,0.0,0.0,0.0,0.0,0.0,0.0,0.0,0.0,0.0,0.0,0.0,0.0,0.0,0.0,0.0,0.0,0.0,0.0,0.0,0.0,0.0,0.0,0.0,0.0,0.0,0.0,0.0,0.0,0.0,0.0,0.0,0.0,0.0,0.0,0.0,0.0,0.0,0.0,0.0,0.0,0.0,0.0,0.0,0.0,0.0,0.0,0.0,0.0,0.0,0.0,0.0,0.0,0.0,0.0,0.0,0.0,0.0,0.0,0.0,0.0,0.0,0.0,0.0,0.0,0.0,0.0,0.0,0.0,0.0,0.0,0.0,0.0,0.0,0.0,0.0,0.0,0.0,0.0,0.0,0.0,0.0,0.0,0.0,0.0,0.0,0.0,0.0,0.0,0.0,0.0,0.0,0.0,0.0,0.0,0.0,0.0,0.0,0.0,0.0,0.0,0.0,0.0,0.0,0.0,0.0,0.0,0.0,0.0,0.0,0.0,0.0,0.0,0.0,0.0,0.0,0.0,0.0,0.0,0.0,0.0,0.0,0.0,0.0,0.0,0.0,0.0,0.0,0.0,0.0,0.0,0.0,0.0,0.0,0.0,0.0,0.0,0.0,0.0,0.0,0.0,0.0,0.0,0.0,0.0,0.0,0.0,0.0,0.0,0.0,0.0,0.0,0.0,0.0,0.0,0.0,0.0,0.0,0.0,0.0,0.0,0.0,0.0,0.0,0.0,0.0,0.0,0.0,0.0,0.0,0.0,0.0,0.0,0.0,0.0,0.0,0.0,0.0,0.0,0.0,0.0,0.0,0.0,0.0,0.0,0.0,0.0,0.0,0.0,0.0,0.0,0.0,0.0,0.0,0.0,0.0,0.0,0.0,0.0,0.0,0.0,0.0,0.0,0.0,0.0,0.0,0.0,0.0,0.0,0.0,0.0,0.0,0.0,0.0,0.0,0.0,0.0,0.0,0.0,0.0,0.0,0.0,0.0,0.0,0.0,0.0,0.0,0.0,0.0,0.0,0.0,0.0,0.0,0.0,0.0,0.0,0.0,0.0,0.0,0.0,0.0,-1.2934,0.0,0.0,0.0,0.0,0.0,0.0,0.0,0.0,0.0,0.0,0.0,0.0,0.0,0.0,0.0,0.0,0.0,0.0,0.0,0.0,0.0,0.0,0.0,0.0,0.0,0.0,0.0,0.0,0.0,0.0,0.0,0.0,0.0,0.0,0.0,0.0,0.0,0.0,0.0,0.0,0.0,0.0,0.0,0.0,0.0,0.0,0.0,0.0,0.0,0.0,0.0,0.0,0.0,0.0,0.0,0.0,0.0,0.0,0.0,0.0,0.0,0.0,0.0,0.0,0.0,0.0,0.0,0.0,0.0,0.0,0.0,0.0,0.0,0.0,0.0,0.0,0.0,0.0,0.0,0.0,0.0,0.0,0.0,0.0,0.0,0.0,0.0,0.0,0.0,0.0,0.0,0.0,0.0,0.0,0.0,0.0,0.0,0.0,0.0,0.0,0.0,0.0,0.0,0.0,0.0,0.0,0.0,0.0,0.0,0.0,-1.3868,-1.3598,-1.2983,-1.2663,-1.273,0.0,0.0,0.0,0.0,0.0,0.0,0.0,0.0,0.0,0.0,0.0,0.0,0.0,0.0,0.0,0.0,0.0,0.0,0.0,0.0,0.0,0.0,0.0,0.0,0.0,0.0,0.0,0.0,0.0,0.0,0.0,0.0,0.0,0.0,0.0,0.0,0.0,0.0,0.0,0.0,0.0,0.0,0.0,0.0,0.0,0.0,0.0,0.0,0.0,0.0,0.0,0.0,0.0,0.0,0.0,0.0,0.0,0.0,0.0,0.0,0.0,0.0,0.0,0.0,0.0,0.0,0.0,0.0,0.0,0.0,0.0,0.0,0.0,0.0,0.0,0.0,0.0,0.0,0.0,0.0,0.0,0.0,0.0,0.0,0.0,0.0,0.0,0.0,0.0,0.0,0.0,0.0,0.0,0.0,0.0,0.0,0.0,0.0,0.0,0.0,0.0,0.0,0.0,0.0,0.0,0.0,0.0,0.0,0.0,0.0,0.0,0.0,-1.3588,-1.3215,-1.3443,0.0,0.0,0.0,0.0,0.0,0.0,0.0,0.0,0.0,0.0,0.0,0.0,0.0,0.0,0.0,0.0,0.0,0.0,0.0,0.0,0.0,0.0,0.0,0.0,0.0,0.0,0.0,0.0,0.0,0.0,0.0,0.0,0.0,0.0,0.0,0.0,0.0,0.0,0.0,0.0,0.0,0.0,0.0,0.0,0.0,0.0,0.0,0.0,0.0,0.0,0.0,0.0,0.0,0.0,0.0,0.0,0.0,0.0,0.0,0.0,0.0,0.0,0.0,0.0,0.0,0.0,0.0,0.0,0.0,0.0,0.0,0.0,0.0,0.0,0.0,0.0,0.0,0.0,0.0,0.0,0.0,0.0,0.0,0.0,0.0,0.0,0.0,0.0,0.0,0.0,0.0,0.0,0.0,0.0,0.0,0.0,0.0,0.0,0.0,0.0,0.0,0.0,0.0,0.0,0.0,0.0,0.0,0.0,0.0,0.0,-1.4693,-1.6856,-1.5694,0.0,-1.6142,0.0,0.0,0.0,0.0,0.0,0.0,0.0,0.0,0.0,0.0,0.0,0.0,0.0,0.0,0.0,0.0,0.0,0.0,0.0,0.0,0.0,0.0,0.0,0.0,0.0,0.0,0.0,0.0,0.0,0.0,0.0,0.0,0.0,0.0,0.0,0.0,0.0,0.0,0.0,0.0,0.0,0.0,0.0,0.0,0.0,0.0,0.0,0.0,0.0,0.0,0.0,0.0,0.0,0.0,0.0,0.0,0.0,0.0,0.0,0.0,0.0,0.0,0.0,0.0,0.0,0.0,0.0,0.0,0.0,0.0,0.0,0.0,0.0,0.0,0.0,0.0,0.0,0.0,0.0,0.0,0.0,0.0,0.0,0.0,0.0,0.0,0.0,0.0,0.0,0.0,0.0,0.0,0.0,0.0,0.0,0.0,0.0,0.0,0.0,0.0,0.0,0.0,0.0,0.0,0.0,0.0,0.0,0.0,0.0,0.0,-1.5165,-1.6489,-1.578,-1.5381,0.0,0.0,0.0,0.0,0.0,0.0,0.0,0.0,0.0,0.0,0.0,0.0,0.0,0.0,0.0,0.0,0.0,0.0,0.0,0.0,0.0,0.0,0.0,0.0,0.0,0.0,0.0,0.0,0.0,0.0,0.0,0.0,0.0,0.0,0.0,0.0,0.0,0.0,0.0,0.0,0.0,0.0,0.0,0.0,0.0,0.0,0.0,0.0,0.0,0.0,0.0,0.0,0.0,0.0,0.0,0.0,0.0,0.0,0.0,0.0,0.0,0.0,0.0,0.0,0.0,0.0,0.0,0.0,0.0,0.0,0.0,0.0,0.0,0.0,0.0,0.0,0.0,0.0,0.0,0.0,0.0,0.0,0.0,0.0,0.0,0.0,0.0,0.0,0.0,0.0,0.0,0.0,0.0,0.0,0.0,0.0,0.0,0.0,0.0,0.0,0.0,0.0,0.0,0.0,0.0,0.0,0.0,0.0,0.0,0.0,-1.5661,-1.5784,-1.6445,-1.5783,-1.5263,-1.4996,0.0,0.0,0.0,0.0,0.0,0.0,0.0,0.0,0.0,0.0,0.0,0.0,0.0,0.0,0.0,0.0,0.0,0.0,0.0,0.0,0.0,0.0,0.0,0.0,0.0,0.0,0.0,0.0,0.0,0.0,0.0,0.0,0.0,0.0,0.0,0.0,0.0,0.0,0.0,0.0,0.0,0.0,0.0,0.0,0.0,0.0,0.0,0.0,0.0,0.0,0.0,0.0,0.0,0.0,0.0,0.0,0.0,0.0,0.0,0.0,0.0,0.0,0.0,0.0,0.0,0.0,0.0,0.0,0.0,0.0,0.0,0.0,0.0,0.0,0.0,0.0,0.0,0.0,0.0,0.0,0.0,0.0,0.0,0.0,0.0,0.0,0.0,0.0,0.0,0.0,0.0,0.0,0.0,0.0,0.0,0.0,0.0,0.0,0.0,0.0,0.0,0.0,0.0,0.0,0.0,0.0,0.0,0.0,-2.0553,-1.7704,-1.6616,-1.774,-1.6244,-1.5555,0.0,0.0,0.0,0.0,0.0,0.0,0.0,0.0,0.0,0.0,0.0,0.0,0.0,0.0,0.0,0.0,0.0,0.0,0.0,0.0,0.0,0.0,0.0,0.0,0.0,0.0,0.0,0.0,0.0,0.0,0.0,0.0,0.0,0.0,0.0,0.0,0.0,0.0,0.0,0.0,0.0,0.0,0.0,0.0,0.0,0.0,0.0,0.0,0.0,0.0,0.0,0.0,0.0,0.0,0.0,0.0,0.0,0.0,0.0,0.0,0.0,0.0,0.0,0.0,0.0,0.0,0.0,0.0,0.0,0.0,0.0,0.0,0.0,0.0,0.0,0.0,0.0,0.0,0.0,0.0,0.0,0.0,0.0,0.0,0.0,0.0,0.0,0.0,0.0,0.0,0.0,0.0,0.0,0.0,0.0,0.0,0.0,0.0,0.0,0.0,0.0,0.0,0.0,0.0,0.0,0.0,0.0,0.0,0.0,-1.6766,-1.6472,-1.6876,-1.7973,-1.6479,-1.5773,0.0,0.0,0.0,0.0,0.0,0.0,0.0,0.0,0.0,0.0,0.0,0.0,0.0,0.0,0.0,0.0,0.0,0.0,0.0,0.0,0.0,0.0,0.0,0.0,0.0,0.0,0.0,0.0,0.0,0.0,0.0,0.0,0.0,0.0,0.0,0.0,0.0,0.0,0.0,0.0,0.0,0.0,0.0,0.0,0.0,0.0,0.0,0.0,0.0,0.0,0.0,0.0,0.0,0.0,0.0,0.0,0.0,0.0,0.0,0.0,0.0,0.0,0.0,0.0,0.0,0.0,0.0,0.0,0.0,0.0,0.0,0.0,0.0,0.0,0.0,0.0,0.0,0.0,0.0,0.0,0.0,0.0,0.0,0.0,0.0,0.0,0.0,0.0,0.0,0.0,0.0,0.0,0.0,0.0,0.0,0.0,0.0,0.0,0.0,0.0,0.0,0.0,0.0,0.0,0.0,0.0,0.0,0.0,0.0,-1.5976,0.0,-1.7746,-1.8072,-1.6717,-1.5638,0.0,0.0,0.0,0.0,0.0,0.0,0.0,0.0,0.0,0.0,0.0,0.0,0.0,0.0,0.0,0.0,0.0,0.0,0.0,0.0,0.0,0.0,0.0,0.0,0.0,0.0,0.0,0.0,0.0,0.0,0.0,0.0,0.0,0.0,0.0,0.0,0.0,0.0,0.0,0.0,0.0,0.0,0.0,0.0,0.0,0.0,0.0,0.0,0.0,0.0,0.0,0.0,0.0,0.0,0.0,0.0,0.0,0.0,0.0,0.0,0.0,0.0,0.0,0.0,0.0,0.0,0.0,0.0,0.0,0.0,0.0,0.0,0.0,0.0,0.0,0.0,0.0,0.0,0.0,0.0,0.0,0.0,0.0,0.0,0.0,0.0,0.0,0.0,0.0,0.0,0.0,0.0,0.0,0.0,0.0,0.0,0.0,0.0,0.0,0.0,0.0,0.0,0.0,0.0,0.0,0.0,0.0,0.0,-1.6861,-1.9044,-1.9522,-1.9207,-1.8153,-1.6943,-1.5152,0.0,0.0,0.0,0.0,0.0,0.0,0.0,0.0,0.0,0.0,0.0,0.0,0.0,0.0,0.0,0.0,0.0,0.0,0.0,0.0,0.0,0.0,0.0,0.0,0.0,0.0,0.0,0.0,0.0,0.0,0.0,0.0,0.0,0.0,0.0,0.0,0.0,0.0,0.0,0.0,0.0,0.0,0.0,0.0,0.0,0.0,0.0,0.0,0.0,0.0,0.0,0.0,0.0,0.0,0.0,0.0,0.0,0.0,0.0,0.0,0.0,0.0,0.0,0.0,0.0,0.0,0.0,0.0,0.0,0.0,0.0,0.0,0.0,0.0,0.0,0.0,0.0,0.0,0.0,0.0,0.0,0.0,0.0,0.0,0.0,0.0,0.0,0.0,0.0,0.0,0.0,0.0,0.0,0.0,0.0,0.0,0.0,0.0,0.0,0.0,0.0,0.0,0.0,0.0,0.0,0.0,0.0,0.0,0.0,-1.66,-1.8316,-1.9282,-1.9197,-1.6463,-1.5387,0.0,0.0,0.0,0.0,0.0,0.0,0.0,0.0,0.0,0.0,0.0,0.0,0.0,0.0,0.0,0.0,0.0,0.0,0.0,0.0,0.0,0.0,0.0,0.0,0.0,0.0,0.0,0.0,0.0,0.0,0.0,0.0,0.0,0.0,0.0,0.0,0.0,0.0,0.0,0.0,0.0,0.0,0.0,0.0,0.0,0.0,0.0,0.0,0.0,0.0,0.0,0.0,0.0,0.0,0.0,0.0,0.0,0.0,0.0,0.0,0.0,0.0,0.0,0.0,0.0,0.0,0.0,0.0,0.0,0.0,0.0,0.0,0.0,0.0,0.0,0.0,0.0,0.0,0.0,0.0,0.0,0.0,0.0,0.0,0.0,0.0,0.0,0.0,0.0,0.0,0.0,0.0,0.0,0.0,0.0,0.0,0.0,0.0,0.0,0.0,0.0,0.0,0.0,0.0,0.0,0.0,0.0,0.0,0.0,-1.7695,-1.9932,-2.1072,-2.0785,-1.8088,-1.6702,-1.6747,0.0,0.0,0.0,0.0,0.0,0.0,0.0,0.0,0.0,0.0,0.0,0.0,0.0,0.0,0.0,0.0,0.0,0.0,0.0,0.0,0.0,0.0,0.0,0.0,0.0,0.0,0.0,0.0,0.0,0.0,0.0,0.0,0.0,0.0,0.0,0.0,0.0,0.0,0.0,0.0,0.0,0.0,0.0,0.0,0.0,0.0,0.0,0.0,0.0,0.0,0.0,0.0,0.0,0.0,0.0,0.0,0.0,0.0,0.0,0.0,0.0,0.0,0.0,0.0,0.0,0.0,0.0,0.0,0.0,0.0,0.0,0.0,0.0,0.0,0.0,0.0,0.0,0.0,0.0,0.0,0.0,0.0,0.0,0.0,0.0,0.0,0.0,0.0,0.0,0.0,0.0,0.0,0.0,0.0,0.0,0.0,0.0,0.0,0.0,0.0,0.0,0.0,0.0,0.0,0.0,0.0,0.0,0.0,-2.1406,-2.4026,-2.4505,-2.2643,-2.1263,-1.8879,0.0,0.0,0.0,0.0,0.0,0.0,0.0,0.0,0.0,0.0,0.0,0.0,0.0,0.0,0.0,0.0,0.0,0.0,0.0,0.0,0.0,0.0,0.0,0.0,0.0,0.0,0.0,0.0,0.0,0.0,0.0,0.0,0.0,0.0,0.0,0.0,0.0,0.0,0.0,0.0,0.0,0.0,0.0,0.0,0.0,0.0,0.0,0.0,0.0,0.0,0.0,0.0,0.0,0.0,0.0,0.0,0.0,0.0,0.0,0.0,0.0,0.0,0.0,0.0,0.0,0.0,0.0,0.0,0.0,0.0,0.0,0.0,0.0,0.0,0.0,0.0,0.0,0.0,0.0,0.0,0.0,0.0,0.0,0.0,0.0,0.0,0.0,0.0,0.0,0.0,0.0,0.0,0.0,0.0,0.0,0.0,0.0,0.0,0.0,0.0,0.0,0.0,0.0,0.0,0.0,0.0,0.0,0.0,0.0,-2.4764,-2.8355,-2.8573,-2.4873,-2.1755,-1.9782,0.0,0.0,0.0,0.0,0.0,0.0,0.0,0.0,0.0,0.0,0.0,0.0,0.0,0.0,0.0,0.0,0.0,0.0,0.0,0.0,0.0,0.0,0.0,0.0,0.0,0.0,0.0,0.0,0.0,0.0,0.0,0.0,0.0,0.0,0.0,0.0,0.0,0.0,0.0,0.0,0.0,0.0,0.0,0.0,0.0,0.0,0.0,0.0,0.0,0.0,0.0,0.0,0.0,0.0,0.0,0.0,0.0,0.0,0.0,0.0,0.0,0.0,0.0,0.0,0.0,0.0,0.0,0.0,0.0,0.0,0.0,0.0,0.0,0.0,0.0,0.0,0.0,0.0,0.0,0.0,0.0,0.0,0.0,0.0,0.0,0.0,0.0,0.0,0.0,0.0,0.0,0.0,0.0,0.0,0.0,0.0,0.0,0.0,0.0,0.0,0.0,0.0,0.0,0.0,0.0,0.0,0.0,0.0,-2.5809,-2.6986,-3.0715,-3.1273,-2.8417,-2.5012,-2.2486,0.0,0.0,0.0,0.0,0.0,0.0,0.0,0.0,0.0,0.0,0.0,0.0,0.0,0.0,0.0,0.0,0.0,0.0,0.0,0.0,0.0,0.0,0.0,0.0,0.0,0.0,0.0,0.0,0.0,0.0,0.0,0.0,0.0,0.0,0.0,0.0,0.0,0.0,0.0,0.0,0.0,0.0,0.0,0.0,0.0,0.0,0.0,0.0,0.0,0.0,0.0,0.0,0.0,0.0,0.0,0.0,0.0,0.0,0.0,0.0,0.0,0.0,0.0,0.0,0.0,0.0,0.0,0.0,0.0,0.0,0.0,0.0,0.0,0.0,0.0,0.0,0.0,0.0,0.0,0.0,0.0,0.0,0.0,0.0,0.0,0.0,0.0,0.0,0.0,0.0,0.0,0.0,0.0,0.0,0.0,0.0,0.0,0.0,0.0,0.0,0.0,0.0,0.0,0.0,0.0,0.0,0.0,0.0,-2.6952,-2.8505,-3.1805,-3.3119,-3.2254,-2.9299,-2.5827,0.0,0.0,0.0,0.0,0.0,0.0,0.0,0.0,0.0,0.0,0.0,0.0,0.0,0.0,0.0,0.0,0.0,0.0,0.0,0.0,0.0,0.0,0.0,0.0,0.0,0.0,0.0,0.0,0.0,0.0,0.0,0.0,0.0,0.0,0.0,0.0,0.0,0.0,0.0,0.0,0.0,0.0,0.0,0.0,0.0,0.0,0.0,0.0,0.0,0.0,0.0,0.0,0.0,0.0,0.0,0.0,0.0,0.0,0.0,0.0,0.0,0.0,0.0,0.0,0.0,0.0,0.0,0.0,0.0,0.0,0.0,0.0,0.0,0.0,0.0,0.0,0.0,0.0,0.0,0.0,0.0,0.0,0.0,0.0,0.0,0.0,0.0,0.0,0.0,0.0,0.0,0.0,0.0,0.0,0.0,0.0,0.0,0.0,0.0,0.0,0.0,0.0,0.0,0.0,0.0,0.0,0.0,0.0,-2.8517,-2.9397,-3.2905,-3.4447,-3.3748,-2.9383,-2.5936,0.0,0.0,0.0,0.0,0.0,0.0,0.0,0.0,0.0,0.0,0.0,0.0,0.0,0.0,0.0,0.0,0.0,0.0,0.0,0.0,0.0,0.0,0.0,0.0,0.0,0.0,0.0,0.0,0.0,0.0,0.0,0.0,0.0,0.0,0.0,0.0,0.0,0.0,0.0,0.0,0.0,0.0,0.0,0.0,0.0,0.0,0.0,0.0,-1.8277,0.0,0.0,0.0,0.0,0.0,0.0,0.0,0.0,0.0,0.0,0.0,0.0,0.0,0.0,0.0,0.0,0.0,0.0,0.0,0.0,0.0,0.0,0.0,0.0,0.0,0.0,0.0,0.0,0.0,0.0,0.0,0.0,0.0,0.0,0.0,0.0,0.0,0.0,0.0,0.0,0.0,0.0,0.0,0.0,0.0,0.0,0.0,0.0,0.0,0.0,0.0,0.0,0.0,0.0,0.0,0.0,0.0,0.0,0.0,-2.9265,-3.1298,-3.3867,-3.5034,-3.4548,-3.1044,-2.7793,0.0,0.0,0.0,0.0,0.0,0.0,0.0,0.0,0.0,0.0,0.0,0.0,0.0,0.0,0.0,0.0,0.0,0.0,0.0,0.0,0.0,0.0,0.0,0.0,0.0,0.0,0.0,0.0,0.0,0.0,0.0,0.0,0.0,0.0,0.0,0.0,0.0,0.0,0.0,0.0,0.0,0.0,0.0,0.0,0.0,0.0,0.0,0.0,0.0,0.0,0.0,0.0,0.0,0.0,0.0,0.0,0.0,0.0,0.0,0.0,0.0,0.0,0.0,0.0,0.0,0.0,0.0,0.0,0.0,0.0,0.0,0.0,0.0,0.0,0.0,0.0,0.0,0.0,0.0,0.0,0.0,0.0,0.0,0.0,0.0,0.0,0.0,0.0,0.0,0.0,0.0,0.0,0.0,0.0,0.0,0.0,0.0,0.0,0.0,0.0,0.0,0.0,0.0,0.0,0.0,0.0,0.0,-2.6779,-2.9673,-3.3185,-3.4556,-3.5184,-3.5057,-3.2849,-2.9851,-2.613,0.0,0.0,0.0,0.0,0.0,0.0,0.0,0.0,0.0,0.0,0.0,0.0,0.0,0.0,0.0,0.0,0.0,0.0,0.0,0.0,0.0,0.0,0.0,0.0,0.0,0.0,0.0,0.0,0.0,0.0,0.0,0.0,0.0,0.0,0.0,0.0,0.0,0.0,-1.7704,-1.751,0.0,0.0,0.0,0.0,0.0,0.0,0.0,0.0,-1.8659,0.0,0.0,0.0,0.0,0.0,0.0,0.0,0.0,0.0,0.0,0.0,0.0,0.0,0.0,0.0,0.0,0.0,0.0,0.0,0.0,0.0,0.0,0.0,0.0,0.0,0.0,0.0,0.0,0.0,0.0,0.0,0.0,0.0,0.0,0.0,0.0,0.0,0.0,0.0,0.0,0.0,0.0,0.0,0.0,0.0,0.0,0.0,0.0,0.0,0.0,0.0,0.0,0.0,0.0,0.0,0.0,-2.6301,-2.7804,-3.0094,-3.3241,-3.4665,-3.5133,-3.4568,-3.2492,-2.9729,-2.6402,0.0,0.0,0.0,0.0,0.0,0.0,0.0,0.0,0.0,0.0,0.0,0.0,0.0,0.0,0.0,0.0,0.0,0.0,0.0,0.0,0.0,0.0,0.0,0.0,0.0,0.0,0.0,0.0,0.0,0.0,0.0,0.0,0.0,0.0,0.0,0.0,0.0,0.0,0.0,-1.8534,-1.8533,0.0,0.0,0.0,0.0,0.0,0.0,0.0,0.0,-1.9005,0.0,0.0,0.0,0.0,0.0,0.0,0.0,0.0,0.0,0.0,0.0,0.0,0.0,0.0,0.0,0.0,0.0,0.0,0.0,0.0,0.0,0.0,0.0,0.0,0.0,0.0,0.0,0.0,0.0,0.0,0.0,0.0,0.0,0.0,0.0,0.0,0.0,0.0,0.0,0.0,0.0,0.0,0.0,0.0,0.0,0.0,0.0,0.0,0.0,0.0,0.0,0.0,0.0,0.0,0.0,-2.6175,-2.8197,-3.067,-3.3655,-3.4834,-3.4971,-3.4044,-3.1929,-2.923,0.0,0.0,0.0,0.0,0.0,0.0,0.0,0.0,0.0,0.0,0.0,0.0,0.0,0.0,0.0,0.0,0.0,0.0,0.0,0.0,0.0,0.0,0.0,0.0,0.0,0.0,0.0,0.0,0.0,0.0,0.0,0.0,0.0,0.0,0.0,0.0,0.0,0.0,0.0,0.0,-1.948,-1.995,-2.072,0.0,0.0,0.0,0.0,0.0,0.0,-1.9758,-1.9565,0.0,0.0,0.0,0.0,0.0,0.0,0.0,0.0,0.0,0.0,0.0,0.0,0.0,0.0,0.0,0.0,0.0,0.0,0.0,0.0,0.0,0.0,0.0,0.0,0.0,0.0,0.0,0.0,0.0,0.0,0.0,0.0,0.0,0.0,0.0,0.0,0.0,0.0,0.0,0.0,0.0,0.0,0.0,0.0,0.0,0.0,0.0,0.0,0.0,0.0,0.0,0.0,0.0,0.0,0.0,-2.5851,-2.8226,-3.0937,-3.3951,-3.4879,-3.4718,-3.3525,-3.1206,-2.8541,0.0,0.0,0.0,0.0,0.0,0.0,0.0,0.0,0.0,0.0,0.0,0.0,0.0,0.0,0.0,0.0,0.0,0.0,0.0,0.0,0.0,0.0,0.0,0.0,0.0,0.0,0.0,0.0,0.0,0.0,0.0,0.0,0.0,0.0,0.0,0.0,0.0,0.0,0.0,0.0,0.0,-2.1427,-2.1612,-2.1407,0.0,0.0,0.0,0.0,-1.992,-2.044,0.0,0.0,0.0,0.0,0.0,0.0,0.0,0.0,0.0,0.0,0.0,0.0,0.0,0.0,0.0,0.0,0.0,0.0,0.0,0.0,0.0,0.0,0.0,0.0,0.0,0.0,0.0,0.0,0.0,0.0,0.0,0.0,0.0,0.0,0.0,0.0,0.0,0.0,0.0,0.0,0.0,0.0,0.0,0.0,0.0,0.0,0.0,0.0,0.0,0.0,0.0,0.0,0.0,0.0,0.0,0.0,-2.5795,-2.7804,-3.0369,-3.3514,-3.4434,-3.436,-3.324,-3.0418,-2.7898,0.0,0.0,0.0,0.0,0.0,0.0,0.0,0.0,0.0,0.0,0.0,0.0,0.0,0.0,0.0,0.0,0.0,0.0,0.0,0.0,0.0,0.0,0.0,0.0,0.0,0.0,0.0,0.0,0.0,0.0,0.0,0.0,0.0,0.0,0.0,0.0,0.0,0.0,0.0,0.0,0.0,-2.2706,-2.3086,-2.2418,-2.1856,0.0,0.0,-2.1575,-2.138,-2.2497,0.0,0.0,0.0,0.0,0.0,0.0,0.0,0.0,0.0,0.0,0.0,0.0,0.0,0.0,0.0,0.0,0.0,0.0,0.0,0.0,0.0,0.0,0.0,0.0,0.0,0.0,0.0,0.0,0.0,0.0,0.0,0.0,0.0,0.0,0.0,0.0,0.0,0.0,0.0,0.0,0.0,0.0,0.0,0.0,0.0,0.0,0.0,0.0,0.0,0.0,0.0,0.0,0.0,0.0,0.0,-2.2502,-2.5372,-2.8034,-3.0567,-3.2996,-3.3954,-3.3839,-3.2655,-2.9377,-2.6893,0.0,0.0,0.0,0.0,0.0,0.0,0.0,0.0,0.0,0.0,0.0,0.0,0.0,0.0,0.0,0.0,0.0,0.0,0.0,0.0,0.0,0.0,0.0,0.0,0.0,0.0,0.0,0.0,0.0,0.0,0.0,0.0,0.0,0.0,0.0,0.0,0.0,0.0,0.0,0.0,0.0,0.0,-2.4445,-2.4053,0.0,0.0,0.0,-2.2965,-2.3663,0.0,0.0,0.0,0.0,0.0,0.0,0.0,0.0,0.0,0.0,0.0,0.0,0.0,0.0,0.0,0.0,0.0,0.0,0.0,0.0,0.0,0.0,0.0,0.0,0.0,0.0,0.0,0.0,0.0,0.0,0.0,0.0,0.0,0.0,0.0,0.0,0.0,0.0,0.0,0.0,0.0,0.0,0.0,0.0,0.0,0.0,0.0,0.0,0.0,0.0,0.0,0.0,0.0,0.0,0.0,0.0,0.0,-2.5073,-2.7967,-3.0483,-3.2492,-3.3255,-3.3048,-3.1798,-2.8524,0.0,0.0,0.0,0.0,0.0,0.0,0.0,0.0,0.0,0.0,0.0,0.0,0.0,0.0,0.0,0.0,0.0,0.0,0.0,0.0,0.0,0.0,0.0,0.0,0.0,0.0,0.0,-1.8294,0.0,0.0,0.0,0.0,0.0,0.0,0.0,0.0,0.0,0.0,0.0,0.0,0.0,0.0,-2.4966,-2.5618,-2.5698,-2.6071,0.0,0.0,-2.4741,-2.5431,-2.4969,-2.4305,0.0,0.0,0.0,0.0,0.0,0.0,0.0,0.0,0.0,0.0,0.0,0.0,0.0,0.0,0.0,0.0,0.0,0.0,0.0,0.0,0.0,0.0,0.0,0.0,0.0,0.0,0.0,0.0,0.0,0.0,0.0,0.0,0.0,0.0,0.0,0.0,0.0,0.0,0.0,0.0,0.0,0.0,0.0,0.0,0.0,0.0,0.0,0.0,0.0,0.0,0.0,0.0,0.0,0.0,0.0,-2.5161,-2.7256,-2.9584,-3.2101,-3.2292,-3.183,-3.0698,-2.8186,-2.5905,0.0,0.0,0.0,0.0,0.0,0.0,0.0,0.0,0.0,0.0,0.0,0.0,0.0,0.0,0.0,0.0,0.0,0.0,0.0,0.0,0.0,0.0,0.0,0.0,0.0,0.0,0.0,0.0,0.0,0.0,0.0,0.0,0.0,0.0,0.0,0.0,0.0,0.0,0.0,0.0,0.0,-2.669,-2.6644,-2.7187,-2.7802,0.0,0.0,-2.715,-2.602,-2.7451,-2.7568,-2.4383,0.0,0.0,0.0,0.0,0.0,0.0,0.0,0.0,0.0,0.0,0.0,0.0,0.0,0.0,0.0,0.0,0.0,0.0,0.0,0.0,0.0,0.0,0.0,0.0,0.0,0.0,0.0,0.0,0.0,0.0,0.0,0.0,0.0,0.0,0.0,0.0,0.0,0.0,0.0,0.0,0.0,0.0,0.0,0.0,0.0,0.0,0.0,0.0,0.0,0.0,0.0,0.0,0.0,-2.2743,-2.4166,-2.7309,-2.9619,-3.0972,-3.1498,-3.1389,-3.0627,-2.7331,-2.5062,0.0,0.0,0.0,0.0,0.0,0.0,0.0,0.0,0.0,0.0,0.0,0.0,0.0,0.0,0.0,0.0,0.0,0.0,0.0,0.0,0.0,0.0,0.0,0.0,0.0,0.0,0.0,0.0,-1.9473,-1.9501,-1.9957,0.0,0.0,0.0,0.0,0.0,0.0,0.0,0.0,0.0,0.0,-2.6939,-2.89,-2.905,0.0,0.0,-2.9201,-2.8266,-2.8179,-2.716,-2.599,-2.4764,-2.2951,0.0,0.0,0.0,0.0,0.0,0.0,0.0,0.0,0.0,0.0,0.0,0.0,0.0,0.0,0.0,0.0,0.0,0.0,0.0,0.0,0.0,0.0,0.0,0.0,0.0,0.0,0.0,0.0,0.0,0.0,0.0,0.0,0.0,0.0,0.0,0.0,0.0,0.0,0.0,0.0,0.0,0.0,0.0,0.0,0.0,0.0,0.0,0.0,0.0,0.0,0.0,0.0,-2.2623,-2.3583,-2.6899,-2.903,-2.981,-3.0377,-3.035,-2.9668,-2.6721,-2.4757,0.0,0.0,0.0,0.0,0.0,0.0,0.0,0.0,0.0,0.0,0.0,0.0,0.0,0.0,0.0,0.0,0.0,0.0,0.0,0.0,0.0,0.0,0.0,0.0,0.0,0.0,0.0,0.0,-2.0049,-2.0006,-1.9599,0.0,0.0,0.0,0.0,0.0,0.0,0.0,0.0,0.0,0.0,-2.7488,-2.9552,-2.9714,-2.9942,-3.0793,-2.9668,-2.8711,-2.8764,-2.6974,-2.536,-2.4569,0.0,0.0,0.0,0.0,0.0,0.0,0.0,0.0,0.0,0.0,0.0,0.0,0.0,0.0,0.0,0.0,0.0,0.0,0.0,0.0,0.0,0.0,0.0,0.0,0.0,0.0,0.0,0.0,0.0,0.0,-1.7947,0.0,0.0,0.0,0.0,0.0,0.0,0.0,0.0,0.0,0.0,0.0,0.0,0.0,0.0,0.0,0.0,0.0,0.0,0.0,0.0,0.0,0.0,-2.2382,-2.3673,-2.5843,-2.7505,-2.8709,-2.8767,-2.8463,-2.7797,-2.646,-2.5178,-2.39,0.0,0.0,0.0,0.0,0.0,0.0,0.0,0.0,0.0,0.0,0.0,0.0,0.0,0.0,0.0,0.0,0.0,0.0,0.0,0.0,0.0,0.0,0.0,0.0,0.0,0.0,-1.8843,-1.9268,-1.9109,0.0,0.0,0.0,0.0,0.0,0.0,0.0,0.0,0.0,0.0,-2.6904,-2.8572,-2.8017,-2.8977,-2.9735,-2.9673,-2.9214,-2.8443,-2.713,-2.7312,-2.6708,0.0,0.0,0.0,0.0,0.0,0.0,0.0,0.0,0.0,0.0,0.0,0.0,0.0,0.0,0.0,0.0,0.0,0.0,0.0,0.0,0.0,0.0,0.0,0.0,0.0,0.0,0.0,-1.8616,-1.8644,0.0,0.0,0.0,0.0,0.0,0.0,0.0,0.0,0.0,0.0,0.0,-2.2515,-2.24,0.0,0.0,0.0,0.0,0.0,0.0,0.0,0.0,0.0,0.0,0.0,0.0,-2.2659,-2.3262,-2.597,-2.7621,-2.8,-2.8057,-2.7737,-2.7113,-2.5454,-2.3778,-2.2149,0.0,0.0,0.0,0.0,0.0,0.0,0.0,0.0,0.0,0.0,0.0,0.0,0.0,0.0,0.0,0.0,0.0,0.0,0.0,0.0,0.0,0.0,0.0,0.0,0.0,-1.9468,0.0,0.0,0.0,0.0,0.0,0.0,0.0,0.0,0.0,0.0,0.0,-2.4326,-2.5843,-2.6538,-2.7271,-2.8269,-2.8792,-2.9214,0.0,0.0,0.0,0.0,0.0,0.0,0.0,0.0,0.0,0.0,0.0,0.0,0.0,0.0,-2.571,-2.3023,-2.2672,-2.2718,-2.2521,0.0,0.0,0.0,0.0,0.0,0.0,0.0,0.0,0.0,0.0,0.0,0.0,0.0,0.0,-1.9,0.0,-1.8793,0.0,0.0,0.0,0.0,0.0,0.0,0.0,0.0,-2.2652,-2.3593,-2.3738,-2.3623,-2.3656,0.0,-2.2794,-2.1466,0.0,0.0,0.0,0.0,0.0,0.0,0.0,0.0,-2.282,-2.3033,-2.5854,-2.7376,-2.7376,-2.7376,-2.7215,-2.6779,-2.5392,-2.4002,-2.2651,-2.2258,-2.1898,0.0,0.0,0.0,0.0,0.0,0.0,0.0,0.0,0.0,0.0,0.0,0.0,0.0,0.0,0.0,0.0,0.0,0.0,0.0,0.0,0.0,0.0,0.0,-1.9679,0.0,0.0,0.0,0.0,0.0,0.0,0.0,0.0,0.0,-2.4367,-2.438,-2.4923,-2.6679,-2.6722,-2.6835,-2.7607,0.0,0.0,0.0,0.0,0.0,0.0,0.0,-2.5161,-2.4514,-2.3952,-2.3811,-2.4599,-2.5724,-2.6427,-2.6217,0.0,0.0,-2.4261,-2.394,-2.4011,-2.3786,-2.4444,-2.5246,-2.6054,-2.6617,-2.7252,0.0,0.0,0.0,0.0,0.0,0.0,0.0,0.0,-1.9017,-1.9304,0.0,-1.8678,0.0,0.0,0.0,0.0,0.0,-2.032,0.0,0.0,-2.3847,-2.4678,-2.4705,-2.4441,-2.4247,-2.4163,-2.3586,-2.2987,-2.2464,-2.1903,0.0,0.0,0.0,0.0,0.0,0.0,-2.2849,-2.3047,-2.5517,-2.6794,-2.6794,-2.6794,-2.6806,-2.6747,-2.6236,-2.5663,-2.5177,-2.4066,-2.3531,-2.3543,-2.1669,0.0,0.0,0.0,0.0,0.0,0.0,0.0,0.0,0.0,0.0,0.0,0.0,0.0,0.0,0.0,0.0,0.0,0.0,0.0,0.0,-1.9622,0.0,0.0,0.0,0.0,0.0,0.0,0.0,0.0,0.0,0.0,-2.4333,-2.5355,-2.6241,-2.675,0.0,0.0,0.0,0.0,-2.6736,-2.6146,-2.6581,-2.6806,-2.6146,-2.6975,-2.7116,-2.54,0.0,0.0,-2.6217,-2.6048,-2.5978,-2.5303,-2.6301,-2.6877,-2.6849,-2.6301,-2.5753,-2.5246,-2.5191,-2.5635,-2.6875,-2.7272,-2.762,-1.7779,0.0,0.0,0.0,0.0,-1.9744,-2.0463,-2.1047,-2.0932,-2.0724,-2.0382,-1.9796,0.0,0.0,0.0,0.0,0.0,0.0,-2.226,-2.3887,-2.526,-2.6245,-2.689,-2.7213,-2.7172,-2.6736,-2.6157,-2.5378,-2.4436,-2.4426,-2.3059,-2.0428,0.0,0.0,0.0,0.0,-2.3337,-2.4278,-2.5937,-2.6794,-2.6794,-2.6794,-2.6625,-2.6236,-2.5658,-2.533,-2.5259,-2.4486,-2.3866,-2.3385,-2.2351,0.0,0.0,0.0,0.0,0.0,0.0,0.0,0.0,0.0,0.0,0.0,0.0,0.0,0.0,0.0,0.0,0.0,0.0,0.0,-2.0342,-2.0301,-2.0167,0.0,0.0,0.0,0.0,0.0,0.0,0.0,0.0,0.0,-2.5485,-2.5434,-2.5748,0.0,0.0,-2.5877,-2.6029,-2.613,-2.6469,-2.7158,-2.7454,0.0,0.0,-2.7439,-2.7074,-2.7018,-2.8155,-2.8956,-2.8605,-2.89,-2.9139,-2.8914,-2.8858,-2.8802,-2.8745,-2.7959,-2.7214,-2.7074,-2.7341,-2.7853,-2.8598,-2.9276,-3.0016,-2.0032,-1.9208,-1.9694,-2.0171,-2.0665,-2.1487,-2.2087,-2.2459,-2.235,-2.2004,-2.1393,-2.0992,-2.0562,-2.0105,-2.0509,0.0,0.0,0.0,-2.3527,-2.4997,-2.6078,-2.6875,-2.7411,-2.7776,-2.7748,-2.7411,-2.6891,-2.6281,-2.5651,-2.5604,-2.4513,-2.2376,0.0,0.0,-2.1722,-2.2981,-2.4018,-2.4824,-2.6126,-2.6794,-2.6794,-2.6846,-2.6615,-2.6113,-2.5727,-2.5467,-2.5259,-2.4655,-2.4123,-2.371,-2.276,-2.1873,0.0,0.0,0.0,0.0,0.0,0.0,0.0,0.0,0.0,0.0,0.0,-1.9757,0.0,0.0,0.0,0.0,-1.9523,-2.021,-2.0941,-2.0437,0.0,0.0,0.0,0.0,0.0,0.0,0.0,-2.176,-2.3518,-2.4911,-2.5253,-2.5355,-2.5934,-2.7527,-2.6581,-2.5864,-2.6313,0.0,-2.6624,-2.7636,-2.8016,-2.8298,-2.8633,-2.8268,-2.8057,-2.8436,-2.8872,-2.9336,-2.9588,-2.9926,-3.0034,-2.9855,-2.9687,-2.9448,-2.897,-2.848,-2.824,-2.8464,-2.8998,-2.9546,-3.0034,-3.072,-3.1384,-2.21,-2.1411,-2.0571,-2.1185,-2.27,-2.328,-2.3538,-2.3516,-2.348,-2.315,-2.2548,-2.2244,-2.2009,-2.1956,-2.2444,0.0,-2.3699,-2.4391,-2.5052,-2.5688,-2.6484,-2.6835,-2.6891,-2.6919,-2.6933,-2.6891,-2.6453,-2.6292,-2.6342,-2.5928,-2.5409,-2.4882,-2.4326,-2.3717,-2.3149,-2.423,-2.4868,-2.4984,-2.617,-2.6794,-2.682,-2.6893,-2.6689,-2.6198,-2.6139,-2.584,-2.5221,-2.4625,-2.4277,-2.4248,-2.301,-2.2241,-2.2103,0.0,0.0,0.0,0.0,0.0,0.0,0.0,0.0,0.0,0.0,0.0,0.0,0.0,0.0,0.0,-2.0288,0.0,-2.1506,-2.0366,0.0,0.0,0.0,-2.0543,-2.2278,-2.2002,-2.2098,-2.3154,0.0,0.0,-2.4272,-2.526,-2.6624,-2.838,-2.7537,-2.6764,-2.6793,-2.6793,-2.7017,-2.7608,-2.8212,-2.8605,-2.8563,-2.8914,-2.9181,-2.9195,-2.8984,-2.883,-2.9265,-2.942,-2.9209,-2.8759,-2.9083,-2.9125,-2.8002,-2.8255,-2.8788,-2.9251,-2.9799,-3.0334,-3.0659,-3.0991,-3.144,-2.3249,-2.3761,-2.4183,-2.4002,-2.3545,-2.4884,-2.5433,-2.5397,-2.5014,-2.4217,-2.3257,-2.3423,-2.403,-2.4953,-2.5017,-2.5657,-2.6678,-2.5924,-2.619,-2.7198,-2.6947,-2.7074,-2.758,-2.8015,-2.8001,-2.758,-2.7669,-2.7483,-2.7068,-2.6693,-2.6187,-2.5575,-2.5415,-2.5038,-2.4457,-2.4679,-2.5317,-2.6315,-2.6646,-2.6832,-2.6937,-2.648,-2.6205,-2.6184,-2.5649,-2.5325,-2.5259,-2.464,-2.4254,-2.4133,-2.3332,-2.2644,-2.2062,-2.0965,0.0,0.0,0.0,0.0,0.0,0.0,0.0,0.0,0.0,-1.96,-1.9233,0.0,-1.9486,0.0,-1.9134,-2.0344,-2.2002,-2.1419,0.0,0.0,-2.1857,-2.192,-2.2235,-2.3469,-2.3992,-2.3216,-2.4514,-2.5485,-2.5485,-2.6118,-2.6933,-2.7876,-2.6905,-2.6328,-2.6919,-2.6905,-2.6863,-2.7074,-2.7621,-2.8016,-2.8058,-2.8129,-2.8255,-2.8241,-2.8085,-2.8057,-2.8227,-2.8255,-2.8199,-2.8029,-2.8129,-2.8071,-2.7791,-2.7932,-2.803,-2.8183,-2.8368,-2.8466,-2.8615,-2.9321,-3.0067,-2.3647,-2.4573,-2.5453,-2.5565,-2.5369,-2.6618,-2.6911,-2.6454,-2.6166,-2.5441,-2.4462,-2.5012,-2.5838,-2.6753,-2.6461,-2.6856,-2.7664,-2.6469,-2.6427,-2.7312,-2.6961,-2.7003,-2.7369,-2.8016,-2.7959,-2.7383,-2.7641,-2.7469,-2.6896,-2.6806,-2.6617,-2.6253,-2.6253,-2.6094,-2.5734,-2.5114,-2.5187,-2.5923,-2.6224,-2.6552,-2.6948,-2.6345,-2.5947,-2.5815,-2.4781,-2.4141,-2.3976,-2.3231,-2.2805,-2.271,-2.2367,-2.1981,-2.154,-2.0407,-1.9566,0.0,0.0,0.0,0.0,0.0,0.0,0.0,0.0,0.0,0.0,0.0,-1.9957,-1.947,-1.9921,-2.0845,-2.228,-2.1532,-2.1417,-2.2583,-2.2517,-2.2649,-2.3347,-2.4425,-2.489,-2.4404,-2.5247,-2.5781,-2.5528,-2.5781,-2.602,-2.6146,-2.5555,-2.5666,-2.7046,-2.7074,-2.6905,-2.72,-2.7566,-2.7805,-2.7805,-2.7552,-2.7439,-2.7721,-2.7537,-2.7425,-2.7735,-2.7537,-2.7256,-2.7003,-2.6961,-2.675,-2.63,-2.6399,-2.6483,-2.6216,-2.6146,-2.6554,-2.7566,-2.8367,-2.8987,-2.3647,-2.4573,-2.5453,-2.634,-2.7255,-2.8068,-2.7849,-2.6885,-2.6885,-2.6492,-2.5907,-2.66,-2.7319,-2.8002,-2.7425,-2.7467,-2.796,-2.6778,-2.654,-2.7031,-2.6961,-2.6933,-2.6975,-2.7622,-2.758,-2.7004,-2.7285,-2.7096,-2.6469,-2.6691,-2.675,-2.6663,-2.6675,-2.662,-2.6489,-2.5375,-2.4911,-2.5164,-2.5625,-2.6185,-2.6868,-2.6078,-2.5497,-2.5082,-2.362,-2.2607,-2.2121,-2.1412,-2.0988,-2.0988,-2.0988,-2.1032,-2.1096,-1.9508,-1.9087,0.0,-1.8662,0.0,0.0,0.0,0.0,0.0,0.0,0.0,0.0,-2.0486,-2.0784,-2.1503,-2.1427,-2.1643,-2.2427,-2.1437,-2.144,-2.3122,-2.2873,-2.3248,-2.4894,-2.5119,-2.533,-2.5837,-2.5893,-2.571,-2.526,-2.5119,-2.4922,-2.4655,-2.4585,-2.526,-2.6961,-2.6891,-2.6694,-2.7439,-2.7566,-2.7411,-2.7397,-2.7017,-2.6863,-2.7326,-2.7059,-2.6905,-2.7383,-2.7045,-2.6526,-2.6062,-2.5992,-2.5639,-2.45,-2.4852,-2.5006,-2.4697,-2.4641,-2.5175,-2.6694,-2.7471,-2.7953,-2.3647,-2.4573,-2.5411,-2.6329,-2.7232,-2.7688,-2.7474,-2.6885,-2.6885,-2.7,-2.7161,-2.7295,-2.8066,-2.9206,-2.9139,-2.9153,-2.9223,-2.8507,-2.8226,-2.8324,-2.7862,-2.7622,-2.7665,-2.836,-2.8361,-2.7824,-2.8068,-2.788,-2.7248,-2.6946,-2.653,-2.6021,-2.6006,-2.572,-2.5201,0.0,0.0,0.0,-2.6228,-2.6193,-2.6291,-2.4681,-2.3776,-2.3681,-2.2205,0.0,-2.1254,-2.1102,-2.0988,-2.0988,-2.0988,0.0,0.0,0.0,0.0,0.0,0.0,0.0,0.0,0.0,0.0,0.0,-2.0401,-2.0387,-2.0493,-2.0436,-2.0704,-2.1357,-2.136,-2.1752,-2.285,-2.2756,-2.3126,-2.4444,-2.4542,-2.481,-2.5626,-2.5711,-2.5781,-2.5879,-2.5893,-2.5851,-2.5697,-2.5725,-2.5655,-2.5471,-2.5555,-2.5752,-2.6188,-2.5781,-2.5625,-2.6118,-2.6343,-2.6287,-2.6245,-2.6174,-2.616,-2.6202,-2.6174,-2.6132,-2.6231,-2.6174,-2.6048,-2.5823,-2.5893,-2.5781,-2.5486,-2.5655,-2.5541,-2.5528,-2.5486,-2.5414,-2.4922,-2.5467,-2.6303,-2.3897,0.0,-2.5621,-2.6588,0.0,-2.7738,-2.7378,-2.6873,-2.6609,-2.6861,-2.753,-2.7855,-2.8583,-2.9588,-2.9293,-2.9321,-2.956,-2.8661,-2.8394,-2.8661,-2.8396,-2.8255,-2.8283,-2.8997,-2.9029,-2.8463,-2.8412,-2.8081,-2.7489,-2.7031,-2.6631,-2.6286,-2.6297,-2.6137,-2.5807,-2.5781,-2.5966,-2.6312,-2.6094,-2.617,-2.6418,-2.4897,-2.4072,-2.4112,0.0,0.0,0.0,0.0,0.0,0.0,0.0,0.0,0.0,0.0,0.0,-2.1382,-2.103,-2.0882,-2.1076,-2.1069,-2.1145,-2.1332,-2.1629,-2.1648,-2.1375,-2.1561,-2.2011,-2.2649,-2.2696,-2.3037,-2.3923,-2.3783,-2.4106,-2.5233,-2.5189,-2.5246,-2.5767,-2.5893,-2.5893,-2.5893,-2.5893,-2.5795,-2.5472,-2.5444,-2.533,-2.5022,-2.4725,-2.4769,-2.5344,-2.5458,-2.557,-2.5864,-2.5893,-2.5907,-2.5893,-2.5893,-2.5879,-2.5893,-2.5893,-2.5767,-2.5486,-2.5217,-2.4922,-2.4587,-2.4278,-2.4092,-2.4095,-2.4292,-2.4531,-2.4559,-2.4769,-2.4759,-2.4068,-2.4822,-2.5859,-2.4145,-2.5777,-2.5777,-2.6835,-2.8462,-2.7849,-2.7198,-2.6585,0.0,0.0,0.0,-2.8059,-2.878,-2.9495,-2.9049,-2.9125,-2.9501,-2.8563,-2.841,-2.8844,-2.8858,-2.8844,-2.8902,-2.952,-2.9482,-2.8933,-2.8569,-2.8109,-2.7517,-2.7031,-2.6794,-2.6794,-2.6794,-2.6794,-2.6794,-2.6794,-2.6518,-2.6006,-2.5901,-2.6105,-2.6614,-2.5152,-2.439,-2.4525,-2.2692,-2.1765,-2.1851,-2.1314,-2.0982,-2.0864,-2.0961,-2.1005,-2.1002,-2.1079,-2.1137,-2.1132,-2.1104,-2.1226,-2.1541,-2.1561,-2.1741,-2.2165,-2.2648,-2.2774,-2.2376,-2.2915,-2.3502,-2.405,-2.4118,-2.4331,-2.4936,-2.4556,-2.4655,-2.5653,-2.5302,-2.5175,-2.55,-2.557,-2.5541,-2.5597,-2.5541,-2.5388,-2.4922,-2.4838,-2.4669,-2.4177,-2.3797,-2.3589,-2.4655,-2.5428,-2.5781,-2.5697,-2.5794,-2.5865,-2.5739,-2.5724,-2.5697,-2.5486,-2.5527,-2.5414,-2.4922,-2.443,-2.3923,-2.3575,-2.2845,-2.2742,-2.2644,-2.3164,-2.3319,-2.3431,-2.3867,-2.4187,-2.4109,-2.4883,-2.5699,-2.4145,-2.5777,-2.5777,-2.6823,-2.8438,-2.7426,-2.6429,-2.5552,-2.5456,-2.6087,-2.7255,-2.7525,-2.8259,-2.9331,-2.9414,-2.9532,-2.9602,-2.942,-2.9406,-2.9476,-2.9476,-2.9476,-2.9476,-2.9701,-2.9558,-2.9052,-2.8627,-2.8137,-2.7668,-2.7072,-2.6794,-2.6794,-2.6794,-2.6794,-2.6794,-2.6794,-2.6762,-2.666,-2.621,-2.6013,-2.6086,-2.3832,-2.2667,-2.2596,-2.132,-2.0549,-2.0556,-2.0867,-2.0816,-2.0429,-2.076,-2.1004,-2.1024,-2.1447,-2.1895,-2.2286,-2.2238,-2.2189,-2.2252,-2.2151,-2.2109,-2.2194,-2.2292,-2.2503,-2.2943,-2.3586,-2.4019,-2.4118,-2.4146,-2.4345,-2.4908,-2.4908,-2.4922,-2.5119,-2.5063,-2.4852,-2.4486,-2.4416,-2.443,-2.4444,-2.4371,-2.4388,-2.4329,-2.4261,-2.4247,-2.4132,-2.3938,-2.398,-2.4233,-2.5177,-2.5584,-2.5317,-2.557,-2.5626,-2.526,-2.5133,-2.4964,-2.443,-2.443,-2.4444,-2.4247,-2.4106,-2.3923,-2.3909,-2.3614,-2.3653,-2.3667,-2.3906,-2.4022,-2.4345,-2.4587,-2.4763,-2.4914,-2.5149,-2.5121,-2.3897,-2.5115,-2.5621,-2.6577,-2.7775,-2.7138,-2.6441,-2.5721,-2.5432,-2.6027,-2.712,-2.6985,-2.7798,-2.9214,-2.9082,-2.923,-2.9602,-2.9602,-2.9602,-2.9602,-2.9602,-2.9434,-2.9198,-2.9681,-2.9677,-2.9154,-2.9102,-2.8784,-2.8274,-2.7955,-2.7636,-2.7345,-2.7663,-2.7488,-2.6837,-2.6804,-2.6654,-2.634,-2.6396,-2.6278,-2.5921,-2.4481,-2.3571,-2.323,-2.1997,-2.1471,-2.1755,-2.169,-2.1676,-2.1712,-2.1676,-2.176,-2.1977,-2.1937,-2.2096,-2.2457,-2.2454,-2.237,-2.2301,-2.2231,-2.2194,-2.2208,-2.2517,-2.2774,-2.3069,-2.3389,-2.3853,-2.45,-2.4585,-2.4697,-2.4978,-2.5006,-2.5006,-2.5006,-2.4725,-2.4427,-2.4188,-2.4118,-2.4118,-2.4118,-2.4118,-2.4118,-2.4118,-2.4118,-2.4118,-2.4118,-2.4103,-2.3878,-2.3259,-2.412,-2.4852,-2.4599,-2.4753,-2.4795,-2.4556,-2.45,-2.4388,-2.4132,-2.4118,-2.3938,-2.367,-2.3558,-2.3417,-2.3136,-2.308,-2.3066,-2.3094,-2.3361,-2.3631,-2.3856,-2.4175,-2.4424,-2.4791,-2.4803,-2.4828,-2.3647,-2.4573,-2.5453,-2.6397,-2.729,-2.7263,-2.6861,-2.6274,-2.5853,-2.6225,-2.6997,-2.6624,-2.7302,-2.8697,-2.8404,-2.8583,-2.9103,-2.9293,-2.9324,-2.9355,-2.94,-2.9139,-2.8804,-2.9485,-2.9549,-2.9181,-2.9361,-2.9247,-2.8828,-2.8697,-2.8279,-2.7751,-2.8167,-2.788,-2.6797,-2.6736,-2.651,-2.6134,-2.6521,-2.6421,-2.5701,-2.4926,-2.4258,-2.381,-2.2802,-2.2468,-2.292,-2.27,-2.263,-2.283,-2.263,-2.2503,-2.2505,-2.2245,-2.2161,-2.2324,-2.2347,-2.2301,-2.2194,-2.2194,-2.2194,-2.2208,-2.2606,-2.2943,-2.3069,-2.2957,-2.3445,-2.457,-2.4894,-2.4992,-2.5006,-2.5006,-2.495,-2.4795,-2.4247,-2.3797,-2.3698,-2.3783,-2.3881,-2.3867,-2.3867,-2.3878,-2.3853,-2.3755,-2.36,-2.3586,-2.3656,-2.322,-2.2531,-2.3094,-2.36,-2.3727,-2.3881,-2.4036,-2.3923,-2.3867,-2.3797,-2.3741,-2.3628,-2.3361,-2.3023,-2.2887,-2.2746,-2.239,-2.2264,-2.2306,-2.2278,-2.2573,-2.2919,-2.3084,-2.3325,-2.3646,-2.4217,-2.4213,-2.4391,-2.3657,-2.4584,-2.5421,-2.6522,-2.769,-2.8134,-2.7702,-2.6849,-2.6741,-2.6803,-2.6844,-2.654,-2.6751,-2.7364,-2.753,-2.7637,-2.7815,-2.8344,-2.8588,-2.8643,-2.8722,-2.8745,-2.8703,-2.8804,-2.8882,-2.8931,-2.9035,-2.9022,-2.8909,-2.8569,-2.8097,-2.7519,-2.7619,-2.7372,-2.6715,-2.6606,-2.6576,-2.6535,-2.6565,-2.6138,-2.5076,-2.3938,-2.3326,-2.327,-2.2624,-2.2511,-2.2961,-2.3362,-2.33,-2.28,-2.3096,-2.2832,-2.1914,-2.2114,-2.2301,-2.2231,-2.2217,-2.2208,-2.2194,-2.2194,-2.2194,-2.2208,-2.225,-2.2545,-2.3009,-2.2615,-2.2812,-2.3938,-2.4669,-2.495,-2.5006,-2.5006,-2.4795,-2.4289,-2.3631,-2.2971,-2.2644,-2.2859,-2.3182,-2.3182,-2.3333,-2.3196,-2.3294,-2.2915,-2.2531,-2.2672,-2.2644,-2.2531,-2.2306,-2.2362,-2.2573,-2.2672,-2.3277,-2.3698,-2.3375,-2.322,-2.3051,-2.2601,-2.2419,-2.2433,-2.2405,-2.2362,-2.225,-2.2278,-2.2147,-2.2147,-2.2147,-2.2269,-2.2384,-2.2582,-2.2752,-2.3008,-2.3541,-2.3611,-2.371,-2.3762,-2.3851,-2.5509,-2.6994,-2.8091,-2.8089,-2.7621,-2.6898,-2.6586,-2.6274,-2.5949,-2.5811,-2.6274,-2.717,-2.6964,-2.7082,-2.7504,-2.7789,-2.8136,-2.8478,-2.8547,-2.8629,-2.8715,-2.8747,-2.8612,-2.8338,-2.8429,-2.8246,-2.7903,-2.7809,-2.7668,-2.7585,-2.792,-2.7605,-2.6658,-2.6538,-2.6288,-2.5883,-2.5432,-2.4949,-2.4564,-2.418,-2.3837,-2.3445,-2.2539,-2.2257,-2.2669,-2.2668,-2.2578,-2.2587,-2.225,-2.2055,-2.2062,-2.1697,-2.1684,-2.2123,-2.2194,-2.2194,-2.2194,-2.2194,-2.2194,-2.2194,-2.2194,-2.232,-2.2507,-2.2348,-2.2587,-2.3389,-2.4092,-2.4599,-2.4936,-2.5006,-2.4753,-2.4149,-2.3516,-2.2859,-2.2292,-2.2718,-2.3097,-2.3126,-2.3459,-2.3698,-2.3614,-2.3112,-2.276,-2.2662,-2.2437,-2.2208,-2.2194,-2.2194,-2.2194,-2.225,-2.2686,-2.2826,-2.2606,-2.255,-2.2423,-2.2278,-2.2194,-2.2194,-2.217,-2.2194,-2.2208,-2.217,-2.2067,-2.1973,-2.1949,-2.1807,-2.1798,-2.2016,-2.236,-2.2629,-2.2896,-2.3238,-2.3617,-2.3711,-2.3485,-2.5455,-2.6918,-2.7901,-2.7768,-2.739,-2.6861,-2.6334,-2.5877,-2.5528,-2.5372,-2.58,-2.653,-2.6278,-2.6402,-2.6854,-2.6948,-2.7327,-2.7854,-2.7828,-2.7881,-2.8092,-2.8121,-2.7962,-2.7629,-2.7803,-2.7681,-2.725,-2.732,-2.7392,-2.744,-2.7851,-2.7514,-2.6506,-2.6284,-2.6021,-2.5554,-2.4926,-2.4672,-2.4677,-2.4669,-2.4381,-2.3802,-2.2807,-2.2481,-2.2963,-2.2483,-2.2382,-2.2694,-2.2126,-2.1983,-2.228,-2.1747,-2.167,-2.2114,-2.2194,-2.2194,-2.2194,-2.2194,-2.2194,-2.2194,-2.2194,-2.2194,-2.2194,-2.2194,-2.2475,-2.3094,-2.3713,-2.4359,-2.4894,-2.5006,-2.4739,-2.4174,-2.3516,-2.2901,-2.255,-2.3009,-2.3473,-2.3617,-2.4092,-2.4261,-2.4036,-2.3516,-2.3055,-2.2999,-2.2564,-2.2194,-2.2194,-2.2194,-2.2194,-2.2194,-2.2208,-2.2222,-2.2194,-2.225,-2.2194,-2.2194,-2.2194,-2.217,-2.2137,-2.2077,-2.2006,-2.1864,-2.1783,-2.1712,-2.1688,-2.152,-2.135,-2.1383,-2.163,-2.2026,-2.2168,-2.2801,-2.3367,-2.313,-2.3373,-2.5094,-2.6106,-2.6541,-2.7316,-2.7366,-2.6813,-2.6334,-2.6069,-2.5925,-2.5516,-2.5324,-2.5443,-2.5442,-2.5382,-2.5451,-2.5688,-2.6051,-2.6511,-2.6226,-2.6227,-2.6569,-2.6589,-2.6634,-2.6745,-2.7236,-2.7538,-2.7505,-2.7584,-2.7372,-2.6794,-2.6909,-2.665,-2.6049,-2.5936,-2.5906,-2.5817,-2.5701,-2.574,-2.5691,-2.5122,-2.4597,-2.421,-2.3641,-2.3505,-2.3845,-2.3457,-2.3147,-2.3074,-2.3414,-2.3272,-2.2392,-2.2674,-2.266,-2.2255,-2.2194,-2.2194,-2.2194,-2.2194,-2.2194,-2.2194,-2.2194,-2.2194,-2.2194,-2.2194,-2.2475,-2.3041,-2.3713,-2.4345,-2.4894,-2.5006,-2.4753,-2.4134,-2.3516,-2.3097,-2.3041,-2.3558,-2.4275,-2.4697,-2.488,-2.4795,-2.4258,-2.353,-2.3266,-2.3108,-2.263,-2.2236,-2.2194,-2.2194,-2.2194,-2.2194,-2.2194,-2.2194,-2.2194,-2.2194,-2.2194,-2.2123,-2.2077,-2.2077,-2.1935,-2.1769,-2.1664,-2.1568,-2.1458,-2.1434,-2.1423,-2.135,-2.1229,-2.1133,-2.0949,-2.1156,-2.1668,-2.2086,-2.2609,-2.4103,-2.4381,-2.4461,-2.5221,-2.6365,-2.6446,-2.6385,-2.6394,-2.619,-2.5913,-2.56,-2.5384,-2.5312,-2.5312,-2.5312,-2.5312,-2.5288,-2.5375,-2.5561,-2.5891,-2.6105,-2.6354,-2.6602,-2.6514,-2.6438,-2.643,-2.6242,-2.6239,-2.6355,-2.6355,-2.6299,-2.622,-2.622,-2.6129,-2.5898,-2.577,-2.5723,-2.5688,-2.5606,-2.55,-2.5523,-2.5272,-2.5066,-2.4858,-2.3789,-2.3223,-2.3369,-2.2874,-2.2585,-2.2538,-2.2792,-2.2721,-2.2287,-2.2402,-2.2447,-2.2236,-2.2194,-2.2194,-2.2194,-2.2194,-2.2194,-2.2194,-2.2194,-2.217,-2.2194,-2.2208,-2.2461,-2.3066,-2.3713,-2.4345,-2.4838,-2.5006,-2.4753,-2.4149,-2.353,-2.3112,-2.321,-2.3698,-2.4331,-2.4908,-2.5316,-2.5444,-2.5161,-2.4685,-2.4191,-2.3769,-2.3192,-2.2648,-2.2292,-2.2194,-2.2147,-2.217,-2.2194,-2.2194,-2.2194,-2.2194,-2.2147,-2.202,-2.1902,-2.1769,-2.1626,-2.1554,-2.1447,-2.1375,-2.1264,-2.1155,-2.1169,-2.1071,-2.0959,-2.0885,-2.0724,-2.0908,-2.1394,-2.1733,-2.2126,-2.4177,-2.4348,-2.4164,-2.4519,-2.5281,-2.5312,-2.5344,-2.5466,-2.5455,-2.5373,-2.5312,-2.5312,-2.5312,-2.5312,-2.5312,-2.5312,-2.5288,-2.5131,-2.5217,-2.5481,-2.5688,-2.5958,-2.6206,-2.609,-2.6035,-2.5965,-2.5558,-2.5382,-2.55,-2.55,-2.5571,-2.5676,-2.5723,-2.5676,-2.5688,-2.5571,-2.55,-2.5453,-2.5382,-2.5312,-2.5312,-2.5312,-2.5312,-2.5143,-2.4109,-2.3421,-2.3276,-2.2727,-2.2354,-2.2254,-2.2422,-2.2442,-2.2268,-2.2061,-2.1878,-2.1722,-2.1841,-2.1949,-2.1926,-2.1793,-2.1827,-2.2147,-2.2044,-2.1983,-2.2147,-2.2194,-2.2419,-2.2831,-2.3378,-2.4036,-2.4486,-2.4514,-2.4303,-2.4008,-2.3516,-2.321,-2.3431,-2.3825,-2.4444,-2.5175,-2.5639,-2.5837,-2.585,-2.5344,-2.4852,-2.4416,-2.361,-2.2808,-2.2458,-2.2094,-2.1935,-2.1935,-2.1902,-2.1902,-2.1864,-2.1817,-2.1935,-2.1831,-2.1664,-2.153,-2.1385,-2.1302,-2.1229,-2.118,-2.1082,-2.0972,-2.0848,-2.0787,-2.0724,-2.0699,-2.0712,-2.083,-2.1132,-2.1381,-2.1721,-2.3149,-2.3329,-2.4102,-2.3939,-2.3529,-2.4018,-2.422,-2.4148,-2.4202,-2.4647,-2.5087,-2.5264,-2.5312,-2.5312,-2.5312,-2.5312,-2.5228,-2.4879,-2.4855,-2.52,-2.4888,-2.4959,-2.5331,-2.5488,-2.5502,-2.5478,-2.5324,-2.5312,-2.5312,-2.5347,-2.5347,-2.53,-2.5347,-2.5394,-2.5312,-2.5347,-2.5312,-2.5312,-2.53,-2.5312,-2.5312,-2.5312,-2.5312,-2.5264,-2.4747,-2.4218,-2.3782,-2.3252,-2.2678,-2.2339,-2.2768,-2.2823,-2.2345,-2.1773,-2.1166,-2.0936,-2.1144,-2.1375,-2.1337,-2.0957,-2.1202,-2.1732,-2.1636,-2.1554,-2.1874,-2.203,-2.2095,-2.2258,-2.2758,-2.3396,-2.3923,-2.3656,-2.3505,-2.3895,-2.3459,-2.3262,-2.3839,-2.412,-2.457,-2.5556,-2.5907,-2.5893,-2.5794,-2.5471,-2.505,-2.4649,-2.3807,-2.2854,-2.2594,-2.2062,-2.1567,-2.1434,-2.153,-2.1602,-2.1496,-2.1423,-2.1568,-2.1664,-2.1458,-2.1313,-2.1131,-2.1021,-2.0983,-2.0909,-2.0885,-2.0799,-2.0799,-2.0724,-2.0724,-2.0699,-2.0712,-2.0725,-2.0883,-2.1119,-2.1276,-2.3627,-2.3125,-2.3123,-2.314,-2.301,-2.2783,-2.2859,-2.3364,-2.3854,-2.4253,-2.4564,-2.5052,-2.5312,-2.5276,-2.5312,-2.5312,-2.53,-2.5131,-2.4975,-2.4843,-2.4963,-2.4939,-2.4939,-2.5504,-2.5853,-2.5781,-2.5468,-2.5312,-2.5312,-2.5324,-2.5312,-2.5312,-2.5324,-2.5312,-2.5336,-2.5312,-2.5312,-2.5312,-2.5312,-2.5312,-2.5312,-2.5312,-2.5312,-2.53,-2.5108,-2.4675,-2.3821,-2.33,-2.2739,-2.2252,-2.2781,-2.3014,-2.2654,-2.1576,-2.0958,-2.1106,-2.0919,-2.0809,-2.0708,-2.0546,-2.0559,-2.0881,-2.0794,-2.0832,-2.1055,-2.1142,-2.1288,-2.1609,-2.2199,-2.2967,-2.3711,-2.3502,-2.3357,-2.4008,-2.3164,-2.2995,-2.4022,-2.4824,-2.5456,-2.5781,-2.5893,-2.5893,-2.5879,-2.5626,-2.5349,-2.4813,-2.4167,-2.3554,-2.2633,-2.214,-2.183,-2.1507,-2.1453,-2.1313,-2.1277,-2.1204,-2.1229,-2.1302,-2.1204,-2.1106,-2.0923,-2.0823,-2.0774,-2.0749,-2.0699,-2.0699,-2.0699,-2.0699,-2.0699,-2.0699,-2.0699,-2.0712,-2.0725,-2.0844,-2.104,-2.3578,-2.3081,-2.2808,-2.2698,-2.2645,-2.22,-2.2211,-2.2633,-2.3218,-2.352,-2.3827,-2.4492,-2.4862,-2.4898,-2.5158,-2.5312,-2.5312,-2.5312,-2.5131,-2.4891,-2.5119,-2.5107,-2.4856,-2.5444,-2.5805,-2.5757,-2.5456,-2.5312,-2.5324,-2.5504,-2.56,-2.5612,-2.56,-2.5612,-2.5564,-2.5396,-2.5312,-2.5312,-2.5312,-2.5312,-2.5312,-2.5312,-2.5312,-2.5312,-2.5312,-2.4783,-2.3878,-2.3637,-2.3123,-2.2404,-2.242,-2.2459,-2.2382,-2.1471,-2.0962,-2.0955,-2.0768,-2.0502,-2.0386,-1.9963,-1.9953,-2.0207,-2.0143,-2.0181,-2.041,-2.0576,-2.0845,-2.105,-2.1526,-2.2211,-2.2865,-2.2752,-2.2779,-2.3353,-2.2947,-2.3115,-2.4261,-2.5275,-2.5809,-2.5893,-2.5893,-2.5893,-2.5893,-2.5743,-2.5563,-2.4956,-2.4272,-2.3702,-2.2597,-2.201,-2.1582,-2.1263,-2.1122,-2.1071,-2.112,-2.1021,-2.0898,-2.0923,-2.0923,-2.0873,-2.0787,-2.0749,-2.0724,-2.0724,-2.0699,-2.0699,-2.0699,-2.0699,-2.0699,-2.0699,-2.0699,-2.0699,-2.0712,-2.0712,-2.0818,-2.3198,-2.314,-2.313,-2.2695,-2.2124,-2.2291,-2.2099,-2.1837,-2.232,-2.266,-2.3071,-2.381,-2.4166,-2.4324,-2.4909,-2.5266,-2.5312,-2.5312,-2.5288,-2.5252,-2.5312,-2.5288,-2.5384,-2.5408,-2.5456,-2.548,-2.536,-2.5312,-2.5336,-2.5685,-2.6045,-2.5913,-2.5889,-2.6009,-2.5829,-2.5528,-2.5312,-2.5312,-2.5312,-2.5312,-2.5312,-2.5312,-2.5312,-2.5312,-2.5288,-2.4855,-2.4085,-2.398,-2.3559,-2.2402,-2.1807,-2.1566,-2.1463,-2.1367,-2.0989,-2.0616,-2.0444,-2.0276,-2.006,-1.9392,-1.9141,-1.9824,-1.9567,-1.9553,-1.9952,-2.0231,-2.0397,-2.0372,-2.072,-2.1147,-2.1472,-2.1458,-2.1695,-2.2273,-2.2843,-2.364,-2.4705,-2.5446,-2.581,-2.5866,-2.5866,-2.588,-2.5825,-2.5647,-2.5398,-2.4984,-2.3933,-2.3192,-2.2432,-2.1744,-2.0997,-2.0788,-2.0861,-2.0848,-2.0923,-2.0898,-2.0799,-2.0799,-2.0799,-2.0749,-2.0712,-2.0699,-2.0699,-2.0699,-2.0699,-2.0699,-2.0699,-2.0699,-2.0699,-2.0699,-2.0699,-2.0699,-2.0699,-2.0699,-2.0699,-2.4189,-2.3643,-2.3613,-2.3125,-2.2363,-2.2158,-2.1616,-2.1102,-2.2,-2.226,-2.2385,-2.3264,-2.3824,-2.4141,-2.4646,-2.5047,-2.5171,-2.5276,-2.5312,-2.5312,-2.5312,-2.5552,-2.5721,-2.5492,-2.5504,-2.5745,-2.5468,-2.5312,-2.5312,-2.5504,-2.5576,-2.5516,-2.56,-2.5552,-2.5468,-2.5408,-2.5324,-2.5312,-2.5312,-2.5276,-2.5276,-2.5276,-2.5312,-2.5312,-2.5276,-2.494,-2.4256,-2.3556,-2.3125,-2.2799,-2.175,-2.1373,-2.1641,-2.1009,-2.0555,-2.0403,-2.022,-1.9789,-1.9167,-1.8991,-1.8987,-1.8848,-1.8815,-1.8774,-1.8989,-1.9136,-1.9361,-1.954,-1.9819,-2.024,-2.0887,-2.0785,-2.1016,-2.195,-2.2937,-2.3742,-2.4191,-2.5107,-2.5825,-2.5647,-2.5619,-2.5592,-2.5536,-2.53,-2.4912,-2.4324,-2.3714,-2.2963,-2.2181,-2.1655,-2.0988,-2.0791,-2.0762,-2.0724,-2.0724,-2.0724,-2.0699,-2.0724,-2.0724,-2.0724,-2.0699,-2.0699,-2.0699,-2.0699,-2.0699,-2.0699,-2.0699,-2.0699,-2.0699,-2.0699,-2.0699,-2.0699,-2.0699,-2.0699,-2.0699,-2.4131,-2.3516,-2.3525,-2.3037,-2.2295,-2.2168,-2.165,-2.1124,-2.176,-2.1827,-2.1675,-2.2562,-2.3102,-2.3209,-2.394,-2.4306,-2.4358,-2.4671,-2.4779,-2.485,-2.5123,-2.5468,-2.5624,-2.542,-2.548,-2.5685,-2.5468,-2.5336,-2.536,-2.5516,-2.5636,-2.5685,-2.5636,-2.5613,-2.5541,-2.5301,-2.517,-2.5123,-2.5087,-2.5087,-2.5076,-2.5076,-2.5076,-2.5087,-2.5076,-2.4837,-2.423,-2.319,-2.2562,-2.2329,-2.1768,-2.1504,-2.1717,-2.1207,-2.0781,-2.077,-2.0522,-1.996,-1.9244,-1.9066,-1.8756,-1.8413,-1.8286,-1.8429,-1.8736,-1.8899,-1.9211,-1.9266,-1.9465,-1.9757,-1.9943,-2.0085,-2.059,-2.1414,-2.2646,-2.3511,-2.3806,-2.4858,-2.5384,-2.5341,-2.5285,-2.5285,-2.5285,-2.4963,-2.4469,-2.3872,-2.3375,-2.2563,-2.1786,-2.1433,-2.1132,-2.0844,-2.0869,-2.0923,-2.087,-2.0844,-2.0764,-2.0738,-2.0699,-2.0699,-2.0699,-2.0699,-2.0699,-2.0699,-2.0699,-2.0699,-2.0699,-2.0699,-2.0699,-2.0699,-2.0699,-2.0699,-2.0699,-2.0699,-2.0699,-2.3564,-2.3159,-2.3174,-2.2738,-2.21,-2.2334,-2.1941,-2.1356,-2.1613,-2.1379,-2.1026,-2.1805,-2.219,-2.1873,-2.303,-2.3313,-2.3106,-2.3745,-2.3927,-2.4228,-2.4671,-2.5135,-2.5099,-2.5277,-2.5348,-2.5408,-2.536,-2.5372,-2.5456,-2.5805,-2.5997,-2.5853,-2.5865,-2.5828,-2.5516,-2.5242,-2.5016,-2.4897,-2.4861,-2.4861,-2.4861,-2.4861,-2.4861,-2.4861,-2.4861,-2.4484,-2.3848,-2.2993,-2.2289,-2.1659,-2.1667,-2.1632,-2.1655,-2.1643,-2.1506,-2.1358,-2.0903,-2.0447,-1.9825,-1.92,-1.8793,-1.8403,-1.8249,-1.8409,-1.8942,-1.9264,-1.9315,-1.9114,-1.9494,-1.9228,-1.8979,-1.945,-2.0091,-2.0735,-2.1734,-2.2954,-2.3794,-2.4511,-2.4907,-2.4878,-2.4892,-2.4948,-2.485,-2.46,-2.4133,-2.332,-2.2801,-2.2075,-2.1538,-2.1302,-2.1014,-2.0777,-2.0909,-2.1237,-2.1145,-2.104,-2.0883,-2.0804,-2.0725,-2.0699,-2.0699,-2.0699,-2.0699,-2.0699,-2.0699,-2.0699,-2.0699,-2.0699,-2.0699,-2.0699,-2.0699,-2.0699,-2.0699,-2.0699,-2.0699,-2.374,-2.3623,-2.3291,-2.2904,-2.2441,-2.2461,-2.2012,-2.122,-2.1298,-2.1094,-2.083,-2.1234,-2.1567,-2.1787,-2.2366,-2.2751,-2.2841,-2.3095,-2.3231,-2.3353,-2.4011,-2.4337,-2.4528,-2.4969,-2.5264,-2.5384,-2.5745,-2.5685,-2.5505,-2.5673,-2.5805,-2.5385,-2.5362,-2.523,-2.5051,-2.4956,-2.4861,-2.4801,-2.4801,-2.4754,-2.4765,-2.4765,-2.4754,-2.4754,-2.479,-2.4225,-2.3408,-2.2989,-2.2385,-2.1614,-2.1411,-2.1474,-2.1443,-2.1391,-2.1178,-2.095,-2.1019,-2.0527,-1.9494,-1.9373,-1.9287,-1.877,-1.869,-1.8942,-1.9413,-1.9252,-1.9132,-1.8895,-1.8672,-1.8631,-1.8432,-1.9152,-1.9589,-1.9936,-2.0972,-2.1949,-2.2152,-2.3408,-2.4237,-2.4234,-2.4408,-2.4609,-2.4582,-2.3927,-2.3377,-2.2785,-2.2193,-2.1538,-2.1354,-2.125,-2.1066,-2.0883,-2.108,-2.1302,-2.0988,-2.0909,-2.0844,-2.0791,-2.0738,-2.0699,-2.0699,-2.0699,-2.0699,-2.0699,-2.0699,-2.0699,-2.0699,-2.0699,-2.0699,-2.0699,-2.0699,-2.0699,-2.0699,-2.0699,-2.0699,-2.3379,-2.3154,-2.2734,-2.2432,-2.2197,-2.2002,-2.1609,-2.1249,-2.12,-2.0986,-2.0781,-2.1035,-2.1194,-2.1254,-2.1637,-2.19,-2.1963,-2.2285,-2.2649,-2.3058,-2.3683,-2.4011,-2.4131,-2.4659,-2.5087,-2.5242,-2.5457,-2.5385,-2.5242,-2.5338,-2.5289,-2.5016,-2.4969,-2.4885,-2.4682,-2.4657,-2.4598,-2.4538,-2.4502,-2.4526,-2.4538,-2.449,-2.4538,-2.4526,-2.4491,-2.3978,-2.297,-2.2866,-2.2255,-2.1553,-2.1296,-2.1305,-2.1305,-2.1221,-2.104,-2.0925,-2.0994,-2.0753,-1.9953,-1.9597,-1.9477,-1.8954,-1.8896,-1.9195,-1.9585,-1.9585,-1.9631,-1.9562,-1.9349,-1.9063,-1.8598,-1.9136,-1.9408,-1.9593,-2.0393,-2.1127,-2.1449,-2.2758,-2.3852,-2.375,-2.4015,-2.4232,-2.4061,-2.3438,-2.3263,-2.2897,-2.2467,-2.1864,-2.1773,-2.1681,-2.1407,-2.1276,-2.1355,-2.1302,-2.0883,-2.0738,-2.0751,-2.0725,-2.0712,-2.0699,-2.0699,-2.0699,-2.0699,-2.0699,-2.0699,-2.0699,-2.0699,-2.0699,-2.0699,-2.0699,-2.0699,-2.0699,-2.0699,-2.0699,-2.0699,-2.2697,-2.2471,-2.1992,-2.1816,-2.1807,-2.1445,-2.1238,-2.1257,-2.1102,-2.077,-2.0605,-2.0907,-2.0869,-2.0771,-2.0947,-2.0849,-2.083,-2.1237,-2.1873,-2.2209,-2.2976,-2.3379,-2.3629,-2.4154,-2.4694,-2.4981,-2.5242,-2.5111,-2.492,-2.4908,-2.5026,-2.4801,-2.4883,-2.4751,-2.4536,-2.4558,-2.4486,-2.4296,-2.4273,-2.4273,-2.4273,-2.4225,-2.4273,-2.4273,-2.425,-2.3858,-2.3098,-2.2834,-2.2443,-2.1512,-2.1362,-2.1316,-2.1305,-2.1213,-2.1201,-2.1178,-2.119,-2.0836,-2.0343,-2.001,-1.9643,-1.9137,-1.916,-1.9424,-1.9918,-2.0148,-2.0136,-2.0102,-1.9884,-1.9539,-1.9046,-1.9368,-1.9644,-1.9775,-2.0102,-2.0572,-2.1167,-2.2335,-2.2987,-2.3168,-2.3352,-2.3619,-2.3511,-2.3129,-2.3124,-2.3007,-2.2567,-2.2243,-2.2126,-2.193,-2.1538,-2.1328,-2.1355,-2.1224,-2.0844,-2.0699,-2.0699,-2.0699,-2.0699,-2.0699,-2.0699,-2.0699,-2.0699,-2.0699,-2.0699,-2.0699,-2.0699,-2.0699,-2.0699,-2.0699,-2.0699,-2.0699,-2.0699,-2.0699,-2.0699,-2.1594,-2.2441,-2.1629,-2.1543,-2.1797,-2.1375,-2.1235,-2.1327,-2.0767,-2.0312,-2.0126,-2.0361,-2.059,-2.0598,-2.0447,-2.0302,-2.0378,-2.0731,-2.083,-2.0976,-2.1718,-2.2377,-2.2729,-2.3364,-2.3961,-2.4679,-2.4926,-2.4913,-2.4988,-2.5226,-2.508,-2.476,-2.4968,-2.4881,-2.462,-2.457,-2.4581,-2.4315,-2.4223,-2.4189,-2.4189,-2.4189,-2.4189,-2.4189,-2.4189,-2.3856,-2.3419,-2.3235,-2.3006,-2.25,-2.203,-2.1812,-2.1629,-2.1374,-2.1224,-2.1201,-2.1201,-2.0951,-2.0549,-2.0343,-2.024,-2.0171,-2.0056,-2.0297,-2.0618,-2.0595,-2.04,-1.9998,-1.9631,-1.9183,-1.8965,-1.947,-1.9666,-1.9826,-2.0113,-2.0469,-2.0796,-2.1485,-2.2218,-2.2292,-2.2616,-2.3015,-2.3043,-2.2976,-2.284,-2.2665,-2.2273,-2.2044,-2.1969,-2.1721,-2.1407,-2.1276,-2.1224,-2.1053,-2.0792,-2.0738,-2.0699,-2.0699,-2.0699,-2.0699,-2.0699,-2.0699,-2.0699,-2.0699,-2.0699,-2.0699,-2.0699,-2.0699,-2.0699,-2.0699,-2.0699,-2.0699,-2.0699,-2.0699,-2.0699,-2.0578,-2.1245,-2.0878,-2.1199,-2.1648,-2.0882,-2.0772,-2.108,-2.0654,-2.0526,-2.0597,-2.0704,-2.0831,-2.0854,-2.0809,-2.0695,-2.0614,-2.0519,-2.0453,-2.0499,-2.1174,-2.1528,-2.1731,-2.2349,-2.2734,-2.3097,-2.346,-2.422,-2.4811,-2.5094,-2.5136,-2.5284,-2.5358,-2.5275,-2.4981,-2.4912,-2.4809,-2.4545,-2.4338,-2.4189,-2.4189,-2.4189,-2.4189,-2.4189,-2.4166,-2.3925,-2.351,-2.3407,-2.3018,-2.2409,-2.202,-2.1812,-2.156,-2.1385,-2.1201,-2.1201,-2.119,-2.1109,-2.0768,-2.0607,-2.0358,-2.0358,-2.0393,-2.0504,-2.0733,-2.0722,-2.0618,-2.0465,-2.0327,-1.9982,-1.9769,-1.993,-2.0033,-2.0102,-2.0297,-2.0527,-2.0818,-2.1292,-2.1479,-2.1671,-2.2237,-2.2743,-2.3055,-2.2909,-2.2626,-2.2296,-2.1977,-2.1859,-2.1812,-2.1551,-2.1237,-2.1198,-2.1132,-2.0923,-2.0777,-2.0738,-2.0699,-2.0699,-2.0699,-2.0699,-2.0699,-2.0699,-2.0699,-2.0699,-2.0699,-2.0699,-2.0699,-2.0699,-2.0699,-2.0699,-2.0699,-2.0699,-2.0699,-2.0699,-2.0699,-1.9312,-2.0023,-1.9986,-2.0577,-2.1358,-2.0537,-2.0379,-2.0783,-2.0718,-2.0778,-2.1057,-2.1066,-2.1094,-2.1147,-2.1137,-2.1081,-2.0949,-2.0633,-2.0461,-2.0316,-2.0813,-2.0967,-2.1043,-2.128,-2.1718,-2.2107,-2.2138,-2.2665,-2.3809,-2.4457,-2.4888,-2.5085,-2.5351,-2.5716,-2.5578,-2.5119,-2.4992,-2.4774,-2.4453,-2.4212,-2.4189,-2.4189,-2.4189,-2.4189,-2.4189,-2.4005,-2.3695,-2.3614,-2.3189,-2.2582,-2.2146,-2.1881,-2.1454,-2.1259,-2.1201,-2.1201,-2.1201,-2.1201,-2.1098,-2.0879,-2.0641,-2.0653,-2.0584,-2.0584,-2.0607,-2.0836,-2.0948,-2.1052,-2.0937,-2.073,-2.032,-2.0492,-2.0549,-2.0561,-2.0595,-2.0699,-2.1006,-2.1242,-2.1273,-2.1557,-2.2032,-2.2255,-2.2445,-2.2175,-2.1719,-2.1938,-2.1602,-2.1608,-2.1536,-2.1342,-2.1119,-2.1106,-2.1014,-2.0805,-2.0712,-2.0725,-2.0699,-2.0699,-2.0699,-2.0699,-2.0699,-2.0699,-2.0699,-2.0699,-2.0699,-2.0699,-2.0699,-2.0699,-2.0699,-2.0699,-2.0699,-2.0699,-2.0699,-2.0699,-2.0699,-1.7573,-1.9342,-1.8986,-1.9558,-2.0664,-2.0529,-2.0646,-2.0898,-2.0824,-2.0666,-2.0758,-2.0829,-2.1024,-2.1099,-2.1145,-2.0725,-2.0393,-2.0398,-2.0227,-1.9851,-2.0102,-2.0379,-2.0479,-2.0576,-2.1001,-2.1336,-2.1565,-2.189,-2.2469,-2.3264,-2.3946,-2.4321,-2.5237,-2.5761,-2.5865,-2.5337,-2.4935,-2.4806,-2.4453,-2.4189,-2.4189,-2.4189,-2.4189,-2.4189,-2.4189,-2.4108,-2.3948,-2.3879,-2.3556,-2.3075,-2.2708,-2.2329,-2.187,-2.1431,-2.1247,-2.1201,-2.1201,-2.1201,-2.1178,-2.1075,-2.1017,-2.1006,-2.104,-2.1086,-2.0994,-2.0733,-2.0676,-2.0492,-2.0561,-2.0607,-2.0618,-2.0856,-2.1029,-2.1052,-2.1006,-2.104,-2.1201,-2.1201,-2.1201,-2.1233,-2.1651,-2.1557,-2.1577,-2.1178,-2.084,-2.1129,-2.1347,-2.1363,-2.1353,-2.1225,-2.0975,-2.0936,-2.0923,-2.0764,-2.0699,-2.0699,-2.0699,-2.0699,-2.0699,-2.0699,-2.0699,-2.0699,-2.0699,-2.0699,-2.0699,-2.0699,-2.0699,-2.0699,-2.0699,-2.0699,-2.0699,-2.0699,-2.0699,-2.0699,-2.0699,-1.5989,-1.7662,-1.8215,-1.9115,-2.0131,-2.0222,-2.0573,-2.1076,-2.1022,-2.1022,-2.1172,-2.1243,-2.1353,-2.1392,-2.1236,-2.0934,-2.064,-2.053,-2.0218,-1.9692,-1.9778,-1.9888,-1.9811,-1.9844,-2.0148,-2.0343,-2.0421,-2.0255,-2.0898,-2.2144,-2.3371,-2.4471,-2.5103,-2.5887,-2.6109,-2.5688,-2.5463,-2.5164,-2.4671,-2.4223,-2.4189,-2.4189,-2.4189,-2.4189,-2.4189,-2.4062,-2.3831,-2.3728,-2.3304,-2.2731,-2.2317,-2.203,-2.1594,-2.1316,-2.1201,-2.1201,-2.1201,-2.1201,-2.1201,-2.1201,-2.1201,-2.1201,-2.1201,-2.1178,-2.1132,-2.1006,-2.0825,-2.0859,-2.0848,-2.0825,-2.0814,-2.1063,-2.1144,-2.1201,-2.1201,-2.1201,-2.1201,-2.1201,-2.1201,-2.1201,-2.119,-2.1167,-2.1178,-2.1129,-2.0932,-2.0945,-2.128,-2.1501,-2.1471,-2.1394,-2.1106,-2.0777,-2.0764,-2.0712,-2.0699,-2.0699,-2.0699,-2.0699,-2.0699,-2.0699,-2.0699,-2.0699,-2.0699,-2.0699,-2.0699,-2.0699,-2.0699,-2.0699,-2.0699,-2.0699,-2.0699,-2.0699,-2.0699,-2.0699,-2.0699,-1.483,-1.6057,-1.7201,-1.841,-1.9547,-1.9638,-2.0298,-2.1244,-2.1185,-2.1264,-2.1467,-2.1539,-2.1585,-2.1586,-2.13,-2.1007,-2.0888,-2.0549,-2.0154,-1.9888,-1.9732,-1.9577,-1.9454,-1.9371,-1.9371,-1.9292,-1.9529,-1.9529,-1.9929,-2.0869,-2.2367,-2.4175,-2.4293,-2.5271,-2.6044,-2.5577,-2.4856,-2.4623,-2.3858,-2.3615,-2.3787,-2.3861,-2.4007,-2.4116,-2.4154,-2.4016,-2.3648,-2.3453,-2.296,-2.2376,-2.202,-2.1778,-2.1339,-2.1236,-2.1201,-2.1169,-2.1106,-2.0999,-2.1031,-2.1106,-2.1169,-2.1201,-2.1201,-2.1201,-2.1201,-2.1201,-2.1201,-2.1144,-2.1144,-2.1167,-2.1201,-2.119,-2.1201,-2.1201,-2.1201,-2.1201,-2.1201,-2.1201,-2.1201,-2.1201,-2.1155,-2.104,-2.1063,-2.1212,-2.1124,-2.0909,-2.1132,-2.1508,-2.1524,-2.1381,-2.1159,-2.0806,-2.0936,-2.0845,-2.0699,-2.0699,-2.0699,-2.0699,-2.0699,-2.0699,-2.0699,-2.0699,-2.0699,-2.0699,-2.0699,-2.0699,-2.0699,-2.0699,-2.0699,-2.0699,-2.0699,-2.0699,-2.0699,-2.0699,-2.0699,-1.4459,-1.512,-1.5742,-1.7038,-1.8674,-1.9033,-1.9875,-2.1012,-2.1065,-2.1083,-2.12,-2.119,-2.1366,-2.1495,-2.1284,-2.0979,-2.0594,-2.0154,-1.9897,-1.9613,-1.9347,-1.9457,-1.9402,-1.9384,-1.9329,-1.9292,-1.9292,-1.9292,-1.9341,-1.9634,-2.0641,-2.1481,-2.2806,-2.4011,-2.465,-2.4423,-2.3744,-2.3356,-2.266,-2.2617,-2.2894,-2.3106,-2.3342,-2.3866,-2.4082,-2.4154,-2.4049,-2.331,-2.2695,-2.2071,-2.162,-2.1337,-2.0854,-2.0775,-2.0732,-2.0807,-2.0667,-2.0571,-2.0667,-2.0892,-2.1126,-2.1169,-2.1138,-2.1074,-2.1106,-2.1169,-2.1201,-2.1201,-2.1201,-2.1201,-2.1201,-2.1201,-2.1106,-2.1169,-2.1169,-2.1126,-2.1158,-2.1201,-2.1201,-2.1201,-2.1155,-2.1063,-2.0841,-2.0953,-2.0686,-2.0418,-2.0595,-2.0975,-2.1182,-2.1133,-2.1043,-2.0926,-2.1173,-2.1107,-2.0739,-2.0699,-2.0699,-2.0699,-2.0699,-2.0699,-2.0699,-2.0699,-2.0699,-2.0699,-2.0699,-2.0699,-2.0699,-2.0699,-2.0699,-2.0699,-2.0699,-2.0699,-2.0699,-2.0699,-2.0699,-1.4258,-1.4465,-1.4829,-1.5857,-1.7267,-1.7795,-1.8862,-2.0158,-2.0298,-2.0621,-2.1108,-2.1117,-2.1156,-2.1328,-2.152,-2.1264,-2.0906,-2.0759,-2.0374,-2.0122,-2.0012,-1.9907,-1.9806,-1.9582,-1.9577,-1.9356,-1.9292,-1.9292,-1.9292,-1.9292,-1.9466,-2.0373,-2.1431,-2.2685,-2.3307,-2.3295,-2.2766,-2.2309,-2.1956,-2.1993,-2.2044,-2.1999,-2.2066,-2.2287,-2.2006,-2.1778,-2.1471,-2.1298,-2.0896,-2.0582,-2.0256,-2.0073,-1.9955,-1.9813,-1.9933,-2.0139,-1.9998,-2.0042,-2.0269,-2.0463,-2.0528,-2.0528,-2.0539,-2.0603,-2.0807,-2.0828,-2.0999,-2.1106,-2.1169,-2.1106,-2.1169,-2.0999,-2.086,-2.1031,-2.1063,-2.0987,-2.0987,-2.1031,-2.1042,-2.0967,-2.1083,-2.1144,-2.0876,-2.0634,-2.0264,-1.9899,-2.0148,-2.0427,-2.0745,-2.1014,-2.1004,-2.0914,-2.1095,-2.1095,-2.0767,-2.07,-2.0699,-2.0699,-2.0699,-2.0699,-2.0699,-2.0699,-2.0699,-2.0699,-2.0699,-2.0699,-2.0699,-2.0699,-2.0699,-2.0699,-2.0699,-2.0699,-2.0699,-2.0699,-2.0699,-1.4188,-1.4342,-1.4382,-1.5101,-1.6271,-1.6679,-1.7991,-1.9581,-1.9687,-2.0175,-2.1046,-2.0964,-2.1007,-2.1163,-2.1312,-2.1392,-2.1071,-2.0906,-2.0732,-2.0558,-2.0411,-2.0273,-2.0012,-1.982,-1.9637,-1.9393,-1.9292,-1.9292,-1.9292,-1.9292,-1.9359,-1.968,-2.0207,-2.1411,-2.2311,-2.2338,-2.19,-2.1525,-2.1145,-2.1187,-2.1113,-2.0971,-2.0959,-2.1053,-2.0873,-2.0673,-2.0411,-2.0243,-1.9823,-1.945,-1.9132,-1.8931,-1.8867,-1.89,-1.9034,-1.9266,-1.9474,-1.9573,-1.9813,-2.0074,-2.0096,-2.0204,-2.0193,-2.0302,-2.0377,-2.0431,-2.056,-2.0732,-2.0828,-2.0892,-2.0903,-2.0603,-2.0495,-2.0624,-2.0571,-2.0528,-2.0635,-2.0667,-2.0732,-2.0732,-2.0816,-2.0773,-2.0559,-2.0274,-2.0135,-1.99,-2.0136,-2.0412,-2.0729,-2.0971,-2.1091,-2.0991,-2.0901,-2.0849,-2.0754,-2.0726,-2.0699,-2.0699,-2.0699,-2.0699,-2.0699,-2.0699,-2.0699,-2.0699,-2.0699,-2.0699,-2.0699,-2.0699,-2.0699,-2.0699,-2.0699,-2.0699,-2.0699,-2.0699,-2.0699,-1.4402,-1.4894,-1.4335,-1.4859,-1.5862,-1.587,-1.7286,-1.9217,-1.9325,-1.9902,-2.0884,-2.0662,-2.0769,-2.1034,-2.12,-2.1163,-2.1099,-2.0833,-2.0668,-2.0649,-2.0631,-2.0287,-2.0076,-1.9912,-1.9802,-1.9421,-1.9439,-1.9512,-1.9412,-1.9412,-1.9384,-1.9301,-1.9631,-2.0131,-2.1222,-2.1341,-2.1017,-2.0489,-1.9844,-1.9802,-1.9906,-1.9889,-1.9896,-1.9975,-1.9895,-1.9641,-1.9424,-1.9098,-1.8804,-1.8714,-1.8339,-1.8307,-1.859,-1.8657,-1.8924,-1.9464,-1.9386,-1.9407,-1.9539,-1.9857,-1.9868,-1.9901,-1.9879,-1.9966,-2.0074,-2.0107,-2.0161,-2.0366,-2.0302,-2.0258,-2.0193,-2.0139,-2.0172,-2.0237,-2.0204,-2.0204,-2.0302,-2.0366,-2.0431,-2.0463,-2.0302,-2.0139,-1.9986,-1.9871,-1.9912,-1.9954,-2.0133,-2.0318,-2.0382,-2.0628,-2.0719,-2.0662,-2.0486,-2.0797,-2.0756,-2.0701,-2.0699,-2.0699,-2.0699,-2.0699,-2.0699,-2.0699,-2.0699,-2.0699,-2.0699,-2.0699,-2.0699,-2.0699,-2.0699,-2.0699,-2.0699,-2.0699,-2.0699,-2.0699,-2.0699,-1.4244,-1.4362,-1.4168,-1.4347,-1.4753,-1.4861,-1.5879,-1.7302,-1.8329,-1.9532,-2.0407,-2.0301,-2.0521,-2.0882,-2.1126,-2.1126,-2.1065,-2.1392,-2.1264,-2.0897,-2.0808,-2.0659,-2.0411,-2.0168,-2.0021,-1.9847,-1.9866,-2.0008,-2.0136,-1.9769,-1.9687,-1.9659,-1.9191,-1.9303,-1.979,-1.9972,-1.982,-1.9659,-1.9229,-1.897,-1.9013,-1.8648,-1.8381,-1.8426,-1.8232,-1.8082,-1.8011,-1.7726,-1.7653,-1.7634,-1.721,-1.7217,-1.7345,-1.7354,-1.7423,-1.7789,-1.7696,-1.7808,-1.8022,-1.8317,-1.8687,-1.9121,-1.9462,-1.9551,-1.9726,-1.9769,-1.9889,-1.9998,-1.9998,-2.0031,-2.0128,-1.9889,-1.9857,-2.0042,-2.0042,-2.0009,-2.0074,-2.0139,-2.0193,-2.0226,-2.0128,-1.9998,-1.9857,-1.9457,-1.9408,-1.9207,-1.9257,-1.8945,-1.8904,-1.9601,-1.9944,-1.9978,-2.0017,-2.0488,-2.0745,-2.0702,-2.0699,-2.0699,-2.0699,-2.0699,-2.0699,-2.0699,-2.0699,-2.0699,-2.0699,-2.0699,-2.0699,-2.0699,-2.0699,-2.0699,-2.0699,-2.0699,-2.0699,-2.0699,-2.0699,-1.3778,-1.387,-1.387,-1.387,-1.3897,-1.4203,-1.5005,-1.6182,-1.782,-1.911,-1.9737,-1.9956,-2.0342,-2.0869,-2.119,-2.1094,-2.1076,-2.1302,-2.1204,-2.0866,-2.0845,-2.0543,-2.0402,-2.036,-2.009,-1.9966,-2.0031,-2.0218,-1.9934,-1.9797,-1.9577,-1.9253,-1.8912,-1.8738,-1.8878,-1.8953,-1.9261,-1.9157,-1.8942,-1.8536,-1.8273,-1.7825,-1.7252,-1.7,-1.6775,-1.6543,-1.6351,-1.6237,-1.6237,-1.6211,-1.614,-1.6096,-1.614,-1.6202,-1.6342,-1.6716,-1.6925,-1.7132,-1.7417,-1.7828,-1.8327,-1.8741,-1.8808,-1.9042,-1.9308,-1.9407,-1.9539,-1.966,-1.9748,-1.9781,-1.9748,-1.9473,-1.9561,-1.9715,-1.9715,-1.9649,-1.9682,-1.9748,-1.9781,-1.9813,-1.9802,-1.9759,-1.9555,-1.919,-1.8847,-1.8546,-1.8285,-1.7992,-1.7846,-1.8719,-1.9495,-1.9649,-1.9866,-2.0374,-2.0692,-2.0701,-2.0699,-2.0699,-2.0674,-2.0649,-2.0699,-2.0699,-2.0699,-2.0699,-2.0699,-2.0699,-2.0699,-2.0699,-2.0699,-2.0699,-2.0699,-2.0699,-2.0699,-2.0699,-2.0699,-1.3131,-1.3372,-1.3379,-1.3408,-1.3483,-1.3897,-1.4753,-1.6061,-1.7661,-1.8455,-1.869,-1.9799,-2.0214,-2.061,-2.1213,-2.1116,-2.0741,-2.088,-2.0628,-2.0359,-2.0301,-2.0121,-2.0117,-2.0163,-1.9944,-1.9719,-1.9756,-1.9998,-1.9436,-1.9429,-1.9219,-1.8782,-1.8518,-1.8262,-1.8228,-1.845,-1.8772,-1.8734,-1.8402,-1.8019,-1.7675,-1.726,-1.6786,-1.651,-1.6333,-1.6272,-1.6211,-1.6105,-1.6105,-1.6035,-1.5929,-1.6132,-1.6333,-1.6542,-1.689,-1.7132,-1.7166,-1.7141,-1.7176,-1.752,-1.7818,-1.8022,-1.8134,-1.8506,-1.8975,-1.9208,-1.9274,-1.9264,-1.933,-1.9231,-1.9164,-1.9164,-1.9198,-1.9231,-1.9231,-1.9198,-1.9198,-1.9231,-1.9231,-1.9264,-1.9264,-1.9138,-1.8815,-1.848,-1.827,-1.7868,-1.772,-1.8027,-1.8036,-1.8627,-1.9336,-1.9756,-2.0003,-2.0411,-2.0574,-2.0549,-2.0549,-2.0511,-2.0549,-2.0549,-2.0624,-2.0649,-2.0599,-2.0599,-2.0674,-2.0699,-2.0699,-2.0699,-2.0699,-2.0699,-2.0699,-2.0699,-2.0699,-2.0699,-2.0712,-1.2965,-1.3347,-1.2978,-1.307,-1.3408,-1.3525,-1.4271,-1.5376,-1.5797,-1.6695,-1.8523,-1.8337,-1.9104,-2.0408,-2.0146,-1.9943,-1.9943,-1.9969,-1.988,-1.9779,-1.9686,-1.9687,-1.9678,-1.9696,-1.9661,-1.9779,-1.988,-1.9924,-1.9801,-1.952,-1.8868,-1.836,-1.8136,-1.7883,-1.7821,-1.8029,-1.8085,-1.8051,-1.768,-1.7473,-1.716,-1.6759,-1.6395,-1.6211,-1.614,-1.6105,-1.6008,-1.5938,-1.5903,-1.5867,-1.5841,-1.5938,-1.5964,-1.6035,-1.6175,-1.6211,-1.6246,-1.6246,-1.6281,-1.6456,-1.6795,-1.7192,-1.7226,-1.7978,-1.8586,-1.8998,-1.8998,-1.8965,-1.8998,-1.8975,-1.9065,-1.9098,-1.9098,-1.9098,-1.9098,-1.9098,-1.9098,-1.9098,-1.9098,-1.9077,-1.9077,-1.8766,-1.8371,-1.8009,-1.778,-1.7299,-1.717,-1.7545,-1.8002,-1.8538,-1.9001,-1.9397,-1.9643,-1.9888,-2.0207,-2.0283,-2.0309,-2.0334,-2.0385,-2.041,-2.0385,-2.041,-2.0435,-2.0498,-2.0549,-2.0624,-2.0699,-2.0674,-2.0649,-2.0699,-2.0699,-2.0699,-2.0699,-2.0699,-2.0699,-1.2419,-1.2744,-1.2469,-1.2525,-1.28,-1.2931,-1.34,-1.401,-1.4475,-1.5698,-1.6916,-1.709,-1.781,-1.8699,-1.8914,-1.8928,-1.8698,-1.9356,-1.9451,-1.9035,-1.8974,-1.9101,-1.9169,-1.9276,-1.9348,-1.9547,-1.9637,-1.9617,-1.9549,-1.9097,-1.8421,-1.7674,-1.7599,-1.7349,-1.7137,-1.7011,-1.7018,-1.7037,-1.6958,-1.6933,-1.6685,-1.6368,-1.6131,-1.6008,-1.5973,-1.5903,-1.5841,-1.5805,-1.5805,-1.5805,-1.5805,-1.5805,-1.5805,-1.5805,-1.5841,-1.5876,-1.5911,-1.5911,-1.5973,-1.614,-1.6333,-1.6533,-1.6777,-1.7432,-1.791,-1.8259,-1.8462,-1.864,-1.8741,-1.8841,-1.8975,-1.9098,-1.9098,-1.9098,-1.9098,-1.9098,-1.9098,-1.9098,-1.9088,-1.9067,-1.887,-1.8526,-1.8164,-1.7719,-1.7315,-1.6919,-1.6717,-1.6853,-1.7361,-1.7931,-1.839,-1.8806,-1.9004,-1.9188,-1.954,-1.9888,-1.9965,-2.0067,-2.0258,-2.0258,-2.0195,-2.0233,-2.0283,-2.0359,-2.0423,-2.0498,-2.0574,-2.0599,-2.0599,-2.0624,-2.0649,-2.0674,-2.0674,-2.0699,-2.0699,-1.1633,-1.1944,-1.1886,-1.1914,-1.1932,-1.2174,-1.2329,-1.243,-1.3738,-1.458,-1.4971,-1.5846,-1.64,-1.6985,-1.75,-1.7676,-1.7646,-1.8129,-1.8299,-1.8224,-1.827,-1.8388,-1.8585,-1.8917,-1.8896,-1.8878,-1.8958,-1.9108,-1.8727,-1.8329,-1.7775,-1.6916,-1.6884,-1.6706,-1.6366,-1.6545,-1.6543,-1.6266,-1.6668,-1.695,-1.6522,-1.6137,-1.5805,-1.5841,-1.5841,-1.5805,-1.5805,-1.5805,-1.5805,-1.5805,-1.5805,-1.5805,-1.5805,-1.5805,-1.5805,-1.5805,-1.5805,-1.5805,-1.5876,-1.6105,-1.6307,-1.6577,-1.6959,-1.7132,-1.7373,-1.7886,-1.8236,-1.8472,-1.8607,-1.8875,-1.9042,-1.9098,-1.9098,-1.9098,-1.9098,-1.9098,-1.9098,-1.9098,-1.9098,-1.9015,-1.8723,-1.8392,-1.7957,-1.7513,-1.7068,-1.6641,-1.6472,-1.6506,-1.674,-1.7363,-1.7738,-1.8163,-1.8271,-1.8459,-1.8898,-1.924,-1.954,-1.9721,-1.9965,-2.0118,-2.0042,-2.0093,-2.0182,-2.0233,-2.0283,-2.0347,-2.0423,-2.0448,-2.0473,-2.0524,-2.0587,-2.0637,-2.0662,-2.0649,-2.0674,-1.1453,-1.192,-1.1886,-1.1778,-1.1627,-1.1868,-1.2017,-1.2017,-1.2354,-1.3266,-1.4157,-1.4448,-1.4898,-1.5619,-1.5858,-1.6031,-1.6262,-1.6694,-1.6537,-1.6936,-1.7242,-1.7663,-1.7674,-1.8157,-1.8254,-1.836,-1.843,-1.846,-1.8206,-1.783,-1.7389,-1.694,-1.6736,-1.6446,-1.5997,-1.6319,-1.6465,-1.5908,-1.6364,-1.6584,-1.6144,-1.5988,-1.5805,-1.5805,-1.5805,-1.5805,-1.5805,-1.5805,-1.5805,-1.5805,-1.5805,-1.5805,-1.5805,-1.5805,-1.5805,-1.5805,-1.5805,-1.5805,-1.5841,-1.5973,-1.6079,-1.6044,-1.6246,-1.6447,-1.689,-1.7623,-1.8134,-1.8337,-1.8573,-1.8841,-1.9042,-1.9065,-1.9098,-1.9098,-1.9088,-1.9088,-1.9088,-1.9056,-1.9067,-1.8839,-1.8557,-1.8164,-1.7688,-1.7275,-1.6881,-1.6601,-1.6475,-1.642,-1.642,-1.6797,-1.7067,-1.7418,-1.7479,-1.7715,-1.8271,-1.8818,-1.92,-1.937,-1.9526,-1.9708,-1.9888,-1.9965,-2.0054,-2.008,-2.0131,-2.0182,-2.0246,-2.0271,-2.0322,-2.0398,-2.0423,-2.0473,-2.0498,-2.0524,-2.0599,-1.1286,-1.1513,-1.1564,-1.1441,-1.1407,-1.1591,-1.1712,-1.173,-1.1832,-1.2292,-1.2967,-1.3078,-1.3443,-1.4138,-1.4295,-1.4784,-1.5155,-1.5632,-1.6389,-1.6764,-1.6708,-1.7044,-1.7303,-1.7523,-1.7549,-1.767,-1.7687,-1.7653,-1.7575,-1.7242,-1.6793,-1.6524,-1.6422,-1.6276,-1.5899,-1.6405,-1.6507,-1.5857,-1.6302,-1.6182,-1.5814,-1.5805,-1.5805,-1.5805,-1.5805,-1.5805,-1.5805,-1.5805,-1.5805,-1.5805,-1.5805,-1.5805,-1.5805,-1.5805,-1.5805,-1.5805,-1.5805,-1.5805,-1.5805,-1.5805,-1.5805,-1.577,-1.5805,-1.6175,-1.6237,-1.6968,-1.7759,-1.7988,-1.8337,-1.8607,-1.8975,-1.9098,-1.9098,-1.9098,-1.9056,-1.9025,-1.8859,-1.8714,-1.8516,-1.8247,-1.7968,-1.7585,-1.7192,-1.6953,-1.6591,-1.6519,-1.6413,-1.6402,-1.6402,-1.6402,-1.6609,-1.6853,-1.7045,-1.7451,-1.8108,-1.8605,-1.9028,-1.9133,-1.916,-1.9526,-1.9837,-1.9862,-1.9926,-1.9978,-1.9991,-2.0029,-2.008,-2.0105,-2.0182,-2.0258,-2.0258,-2.0271,-2.0322,-2.0359,-2.041,-1.1123,-1.1117,-1.1123,-1.1123,-1.1148,-1.1333,-1.1435,-1.1477,-1.1709,-1.1639,-1.1672,-1.2079,-1.2035,-1.2391,-1.3067,-1.394,-1.4526,-1.4707,-1.5773,-1.6545,-1.6913,-1.6748,-1.6847,-1.7239,-1.7269,-1.7145,-1.7085,-1.6905,-1.6696,-1.6533,-1.6381,-1.5934,-1.5822,-1.5814,-1.5814,-1.5882,-1.5908,-1.5874,-1.5994,-1.5934,-1.584,-1.5805,-1.5805,-1.5805,-1.5805,-1.5805,-1.5805,-1.5805,-1.5805,-1.577,-1.5726,-1.5655,-1.5584,-1.5549,-1.5584,-1.5584,-1.562,-1.5655,-1.5691,-1.5726,-1.5726,-1.5735,-1.577,-1.5867,-1.5964,-1.6447,-1.7235,-1.7681,-1.8032,-1.8303,-1.8664,-1.8998,-1.8998,-1.899,-1.8938,-1.8963,-1.8725,-1.8444,-1.8164,-1.7874,-1.7533,-1.7203,-1.6882,-1.6632,-1.6477,-1.6423,-1.6402,-1.6402,-1.6402,-1.6402,-1.6477,-1.674,-1.6972,-1.7435,-1.7793,-1.8104,-1.8429,-1.883,-1.8898,-1.9384,-1.9759,-1.9837,-1.9862,-1.9837,-1.9862,-1.9914,-1.9939,-1.9978,-2.0054,-2.0118,-2.0067,-2.0067,-2.0156,-2.0207,-2.022,-1.1117,-1.1117,-1.1117,-1.1117,-1.1123,-1.114,-1.1196,-1.1202,-1.125,-1.1226,-1.1304,-1.1453,-1.1591,-1.1585,-1.1994,-1.2665,-1.3318,-1.3661,-1.41,-1.4776,-1.5674,-1.5881,-1.608,-1.6396,-1.703,-1.6826,-1.6527,-1.6711,-1.6005,-1.608,-1.6265,-1.5975,-1.5794,-1.5796,-1.5821,-1.589,-1.5992,-1.5942,-1.5977,-1.6036,-1.5796,-1.577,-1.5805,-1.5805,-1.5805,-1.5805,-1.5805,-1.5805,-1.5805,-1.5726,-1.5505,-1.5355,-1.5248,-1.5141,-1.515,-1.5256,-1.5284,-1.5319,-1.5355,-1.5505,-1.5513,-1.5355,-1.5461,-1.5823,-1.5991,-1.6263,-1.6855,-1.7245,-1.752,-1.7623,-1.7988,-1.8462,-1.863,-1.8652,-1.8614,-1.8812,-1.8797,-1.8548,-1.8257,-1.7999,-1.7699,-1.7316,-1.6903,-1.6674,-1.6454,-1.6402,-1.6402,-1.6402,-1.6402,-1.6402,-1.6402,-1.6609,-1.687,-1.674,-1.6835,-1.7179,-1.7567,-1.8093,-1.862,-1.903,-1.941,-1.9773,-1.9798,-1.9798,-1.9798,-1.985,-1.9862,-1.9875,-1.9888,-1.9939,-1.9875,-1.9875,-1.9965,-2.0042,-2.0067]}]]